<?xml version="1.0" encoding="UTF-8" standalone="no" ?><gpx xmlns="http://www.topografix.com/GPX/1/1" xmlns:gpxx="http://www.garmin.com/xmlschemas/GpxExtensions/v3" xmlns:gpxtrkx="http://www.garmin.com/xmlschemas/TrackStatsExtension/v1" xmlns:wptx1="http://www.garmin.com/xmlschemas/WaypointExtension/v1" xmlns:gpxtpx="http://www.garmin.com/xmlschemas/TrackPointExtension/v1" creator="eTrex 20" version="1.1" xmlns:xsi="http://www.w3.org/2001/XMLSchema-instance" xsi:schemaLocation="http://www.topografix.com/GPX/1/1 http://www.topografix.com/GPX/1/1/gpx.xsd http://www.garmin.com/xmlschemas/GpxExtensions/v3 http://www8.garmin.com/xmlschemas/GpxExtensionsv3.xsd http://www.garmin.com/xmlschemas/TrackStatsExtension/v1 http://www8.garmin.com/xmlschemas/TrackStatsExtension.xsd http://www.garmin.com/xmlschemas/WaypointExtension/v1 http://www8.garmin.com/xmlschemas/WaypointExtensionv1.xsd http://www.garmin.com/xmlschemas/TrackPointExtension/v1 http://www.garmin.com/xmlschemas/TrackPointExtensionv1.xsd"><metadata><link href="http://www.garmin.com"><text>Garmin International</text></link><time>2014-09-07T10:14:24Z</time></metadata><trk><name>2014-09-04 12:03:10 Auto</name><extensions><gpxx:TrackExtension><gpxx:DisplayColor>Cyan</gpxx:DisplayColor></gpxx:TrackExtension></extensions><trkseg><trkpt lat="45.7340308372" lon="7.3617812153"><ele>660.56</ele><time>2014-09-04T10:03:10Z</time></trkpt><trkpt lat="45.7384310849" lon="7.3340646084"><ele>631.24</ele><time>2014-09-04T10:03:32Z</time></trkpt><trkpt lat="45.7387668639" lon="7.3334127478"><ele>611.06</ele><time>2014-09-04T10:03:59Z</time></trkpt><trkpt lat="45.7388197538" lon="7.3334033601"><ele>606.25</ele><time>2014-09-04T10:04:29Z</time></trkpt><trkpt lat="45.7388368528" lon="7.3333699163"><ele>604.81</ele><time>2014-09-04T10:04:50Z</time></trkpt><trkpt lat="45.7388286386" lon="7.3333612829"><ele>605.77</ele><time>2014-09-04T10:05:03Z</time></trkpt><trkpt lat="45.7388561312" lon="7.3334113229"><ele>603.85</ele><time>2014-09-04T10:05:08Z</time></trkpt><trkpt lat="45.7388717216" lon="7.3334948067"><ele>602.40</ele><time>2014-09-04T10:05:12Z</time></trkpt><trkpt lat="45.7388794329" lon="7.3335368000"><ele>601.92</ele><time>2014-09-04T10:05:13Z</time></trkpt><trkpt lat="45.7389084343" lon="7.3335842416"><ele>601.92</ele><time>2014-09-04T10:05:15Z</time></trkpt><trkpt lat="45.7389433868" lon="7.3335877620"><ele>601.92</ele><time>2014-09-04T10:05:16Z</time></trkpt><trkpt lat="45.7389698736" lon="7.3335885163"><ele>602.40</ele><time>2014-09-04T10:05:17Z</time></trkpt><trkpt lat="45.7390375994" lon="7.3335898574"><ele>604.81</ele><time>2014-09-04T10:05:26Z</time></trkpt><trkpt lat="45.7390755694" lon="7.3336143326"><ele>606.73</ele><time>2014-09-04T10:05:45Z</time></trkpt><trkpt lat="45.7391114440" lon="7.3336093035"><ele>608.65</ele><time>2014-09-04T10:05:50Z</time></trkpt><trkpt lat="45.7391291298" lon="7.3335974850"><ele>608.65</ele><time>2014-09-04T10:05:51Z</time></trkpt><trkpt lat="45.7391490787" lon="7.3335615266"><ele>608.65</ele><time>2014-09-04T10:05:53Z</time></trkpt><trkpt lat="45.7391517609" lon="7.3335045297"><ele>609.13</ele><time>2014-09-04T10:05:55Z</time></trkpt><trkpt lat="45.7391553652" lon="7.3334630392"><ele>609.13</ele><time>2014-09-04T10:05:56Z</time></trkpt><trkpt lat="45.7391608972" lon="7.3334350437"><ele>609.13</ele><time>2014-09-04T10:05:57Z</time></trkpt><trkpt lat="45.7391643338" lon="7.3334056232"><ele>609.13</ele><time>2014-09-04T10:05:58Z</time></trkpt><trkpt lat="45.7391683571" lon="7.3329158686"><ele>610.57</ele><time>2014-09-04T10:06:08Z</time></trkpt><trkpt lat="45.7391600590" lon="7.3322986253"><ele>612.50</ele><time>2014-09-04T10:06:22Z</time></trkpt><trkpt lat="45.7391713746" lon="7.3316257261"><ele>612.50</ele><time>2014-09-04T10:06:34Z</time></trkpt><trkpt lat="45.7391886413" lon="7.3309783079"><ele>612.02</ele><time>2014-09-04T10:06:45Z</time></trkpt><trkpt lat="45.7391923293" lon="7.3309208080"><ele>612.02</ele><time>2014-09-04T10:06:46Z</time></trkpt><trkpt lat="45.7393415272" lon="7.3301072605"><ele>610.09</ele><time>2014-09-04T10:07:02Z</time></trkpt><trkpt lat="45.7393797487" lon="7.3300119583"><ele>606.25</ele><time>2014-09-04T10:07:13Z</time></trkpt><trkpt lat="45.7393893879" lon="7.3299591523"><ele>604.81</ele><time>2014-09-04T10:07:40Z</time></trkpt><trkpt lat="45.7393904775" lon="7.3298688792"><ele>603.85</ele><time>2014-09-04T10:08:04Z</time></trkpt><trkpt lat="45.7395075727" lon="7.3291854188"><ele>605.77</ele><time>2014-09-04T10:08:18Z</time></trkpt><trkpt lat="45.7395006157" lon="7.3289234005"><ele>605.77</ele><time>2014-09-04T10:08:23Z</time></trkpt><trkpt lat="45.7395128533" lon="7.3288796470"><ele>605.77</ele><time>2014-09-04T10:08:25Z</time></trkpt><trkpt lat="45.7395120990" lon="7.3288530763"><ele>605.77</ele><time>2014-09-04T10:08:32Z</time></trkpt><trkpt lat="45.7395108417" lon="7.3288586922"><ele>604.81</ele><time>2014-09-04T10:08:36Z</time></trkpt></trkseg><trkseg><trkpt lat="45.7395286113" lon="7.3289162759"><ele>606.73</ele><time>2014-09-04T10:09:23Z</time></trkpt><trkpt lat="45.7395077404" lon="7.3288739473"><ele>612.50</ele><time>2014-09-04T10:09:51Z</time></trkpt><trkpt lat="45.7395133562" lon="7.3289162759"><ele>611.54</ele><time>2014-09-04T10:10:27Z</time></trkpt><trkpt lat="45.7395251747" lon="7.3289338779"><ele>608.65</ele><time>2014-09-04T10:11:06Z</time></trkpt><trkpt lat="45.7395032141" lon="7.3289343808"><ele>610.09</ele><time>2014-09-04T10:11:13Z</time></trkpt></trkseg><trkseg><trkpt lat="45.7395339757" lon="7.3286705185"><ele>596.64</ele><time>2014-09-04T10:11:37Z</time></trkpt><trkpt lat="45.7395141944" lon="7.3288564291"><ele>609.61</ele><time>2014-09-04T10:12:07Z</time></trkpt><trkpt lat="45.7395226602" lon="7.3288631346"><ele>605.77</ele><time>2014-09-04T10:12:24Z</time></trkpt><trkpt lat="45.7394389249" lon="7.3286509886"><ele>605.77</ele><time>2014-09-04T10:12:33Z</time></trkpt><trkpt lat="45.7394271903" lon="7.3286157008"><ele>605.77</ele><time>2014-09-04T10:12:35Z</time></trkpt><trkpt lat="45.7394157909" lon="7.3284802493"><ele>604.33</ele><time>2014-09-04T10:12:40Z</time></trkpt><trkpt lat="45.7396011986" lon="7.3281949293"><ele>603.85</ele><time>2014-09-04T10:12:55Z</time></trkpt><trkpt lat="45.7395951636" lon="7.3281458952"><ele>604.33</ele><time>2014-09-04T10:13:02Z</time></trkpt><trkpt lat="45.7395312935" lon="7.3280909099"><ele>603.36</ele><time>2014-09-04T10:13:05Z</time></trkpt><trkpt lat="45.7394998614" lon="7.3280828632"><ele>602.40</ele><time>2014-09-04T10:13:06Z</time></trkpt><trkpt lat="45.7394737098" lon="7.3280673567"><ele>601.92</ele><time>2014-09-04T10:13:07Z</time></trkpt><trkpt lat="45.7394504920" lon="7.3280404508"><ele>601.44</ele><time>2014-09-04T10:13:08Z</time></trkpt><trkpt lat="45.7393991109" lon="7.3279326595"><ele>600.96</ele><time>2014-09-04T10:13:11Z</time></trkpt><trkpt lat="45.7393797487" lon="7.3278776743"><ele>600.96</ele><time>2014-09-04T10:13:12Z</time></trkpt><trkpt lat="45.7392180618" lon="7.3276449926"><ele>603.85</ele><time>2014-09-04T10:13:20Z</time></trkpt><trkpt lat="45.7390961889" lon="7.3275291547"><ele>604.33</ele><time>2014-09-04T10:13:26Z</time></trkpt><trkpt lat="45.7390612364" lon="7.3274548911"><ele>604.33</ele><time>2014-09-04T10:13:29Z</time></trkpt><trkpt lat="45.7390505075" lon="7.3274266440"><ele>604.33</ele><time>2014-09-04T10:13:30Z</time></trkpt><trkpt lat="45.7390407845" lon="7.3273971397"><ele>604.33</ele><time>2014-09-04T10:13:31Z</time></trkpt><trkpt lat="45.7390322350" lon="7.3273700662"><ele>604.81</ele><time>2014-09-04T10:13:32Z</time></trkpt><trkpt lat="45.7390220929" lon="7.3273445014"><ele>604.81</ele><time>2014-09-04T10:13:33Z</time></trkpt><trkpt lat="45.7390122861" lon="7.3273203615"><ele>604.81</ele><time>2014-09-04T10:13:34Z</time></trkpt><trkpt lat="45.7390051614" lon="7.3272984847"><ele>604.81</ele><time>2014-09-04T10:13:35Z</time></trkpt><trkpt lat="45.7389977854" lon="7.3272765242"><ele>605.29</ele><time>2014-09-04T10:13:36Z</time></trkpt><trkpt lat="45.7388977055" lon="7.3270233069"><ele>605.29</ele><time>2014-09-04T10:13:47Z</time></trkpt><trkpt lat="45.7388854679" lon="7.3270030227"><ele>605.29</ele><time>2014-09-04T10:13:48Z</time></trkpt><trkpt lat="45.7388348412" lon="7.3267080635"><ele>601.92</ele><time>2014-09-04T10:14:03Z</time></trkpt><trkpt lat="45.7387858070" lon="7.3264945764"><ele>602.88</ele><time>2014-09-04T10:14:14Z</time></trkpt><trkpt lat="45.7387257088" lon="7.3262408562"><ele>601.44</ele><time>2014-09-04T10:14:25Z</time></trkpt><trkpt lat="45.7387117110" lon="7.3262079153"><ele>600.96</ele><time>2014-09-04T10:14:26Z</time></trkpt><trkpt lat="45.7386513613" lon="7.3258293886"><ele>596.64</ele><time>2014-09-04T10:14:41Z</time></trkpt><trkpt lat="45.7386293169" lon="7.3256898299"><ele>595.19</ele><time>2014-09-04T10:14:48Z</time></trkpt><trkpt lat="45.7386245392" lon="7.3256697971"><ele>595.19</ele><time>2014-09-04T10:14:49Z</time></trkpt><trkpt lat="45.7386223599" lon="7.3256443162"><ele>594.71</ele><time>2014-09-04T10:14:50Z</time></trkpt><trkpt lat="45.7386221923" lon="7.3256177455"><ele>594.71</ele><time>2014-09-04T10:14:51Z</time></trkpt><trkpt lat="45.7386231143" lon="7.3255949467"><ele>594.23</ele><time>2014-09-04T10:14:52Z</time></trkpt><trkpt lat="45.7385913469" lon="7.3254195973"><ele>594.71</ele><time>2014-09-04T10:15:00Z</time></trkpt><trkpt lat="45.7385806181" lon="7.3253991455"><ele>594.71</ele><time>2014-09-04T10:15:01Z</time></trkpt><trkpt lat="45.7385715656" lon="7.3253799509"><ele>594.71</ele><time>2014-09-04T10:15:02Z</time></trkpt><trkpt lat="45.7385631837" lon="7.3253610916"><ele>594.71</ele><time>2014-09-04T10:15:03Z</time></trkpt><trkpt lat="45.7385559753" lon="7.3253404722"><ele>594.71</ele><time>2014-09-04T10:15:04Z</time></trkpt><trkpt lat="45.7385465875" lon="7.3253189307"><ele>595.19</ele><time>2014-09-04T10:15:05Z</time></trkpt><trkpt lat="45.7385378703" lon="7.3252972215"><ele>595.19</ele><time>2014-09-04T10:15:06Z</time></trkpt><trkpt lat="45.7385306619" lon="7.3252717406"><ele>595.19</ele><time>2014-09-04T10:15:07Z</time></trkpt><trkpt lat="45.7385258842" lon="7.3252441641"><ele>594.71</ele><time>2014-09-04T10:15:08Z</time></trkpt><trkpt lat="45.7384900935" lon="7.3251281586"><ele>594.71</ele><time>2014-09-04T10:15:21Z</time></trkpt><trkpt lat="45.7384706475" lon="7.3249740154"><ele>592.31</ele><time>2014-09-04T10:15:32Z</time></trkpt><trkpt lat="45.7384658698" lon="7.3249547370"><ele>592.31</ele><time>2014-09-04T10:15:33Z</time></trkpt><trkpt lat="45.7384606730" lon="7.3249338660"><ele>592.31</ele><time>2014-09-04T10:15:34Z</time></trkpt><trkpt lat="45.7384553924" lon="7.3249068763"><ele>591.35</ele><time>2014-09-04T10:15:48Z</time></trkpt><trkpt lat="45.7384051848" lon="7.3246320337"><ele>587.50</ele><time>2014-09-04T10:16:06Z</time></trkpt><trkpt lat="45.7383334357" lon="7.3243049718"><ele>586.54</ele><time>2014-09-04T10:16:20Z</time></trkpt><trkpt lat="45.7383194380" lon="7.3242975958"><ele>586.54</ele><time>2014-09-04T10:16:21Z</time></trkpt><trkpt lat="45.7383034285" lon="7.3242683429"><ele>586.06</ele><time>2014-09-04T10:16:32Z</time></trkpt><trkpt lat="45.7383671310" lon="7.3241847754"><ele>585.10</ele><time>2014-09-04T10:17:02Z</time></trkpt><trkpt lat="45.7382541429" lon="7.3242929857"><ele>589.91</ele><time>2014-09-04T10:17:34Z</time></trkpt><trkpt lat="45.7382181007" lon="7.3243547603"><ele>595.67</ele><time>2014-09-04T10:18:07Z</time></trkpt><trkpt lat="45.7384130638" lon="7.3242532555"><ele>593.75</ele><time>2014-09-04T10:18:46Z</time></trkpt><trkpt lat="45.7384310011" lon="7.3242354020"><ele>594.23</ele><time>2014-09-04T10:19:26Z</time></trkpt><trkpt lat="45.7383859064" lon="7.3242566921"><ele>591.83</ele><time>2014-09-04T10:19:56Z</time></trkpt><trkpt lat="45.7382509578" lon="7.3243440315"><ele>594.71</ele><time>2014-09-04T10:20:24Z</time></trkpt><trkpt lat="45.7382624410" lon="7.3243913054"><ele>597.60</ele><time>2014-09-04T10:20:55Z</time></trkpt><trkpt lat="45.7381987385" lon="7.3244173732"><ele>597.60</ele><time>2014-09-04T10:21:19Z</time></trkpt><trkpt lat="45.7381263189" lon="7.3245104961"><ele>600.48</ele><time>2014-09-04T10:21:44Z</time></trkpt><trkpt lat="45.7380784582" lon="7.3245403357"><ele>601.92</ele><time>2014-09-04T10:22:09Z</time></trkpt><trkpt lat="45.7380944677" lon="7.3244758788"><ele>602.88</ele><time>2014-09-04T10:22:12Z</time></trkpt><trkpt lat="45.7381040230" lon="7.3244398367"><ele>603.36</ele><time>2014-09-04T10:22:13Z</time></trkpt><trkpt lat="45.7381233014" lon="7.3243041337"><ele>606.25</ele><time>2014-09-04T10:22:17Z</time></trkpt><trkpt lat="45.7381003350" lon="7.3241534270"><ele>612.02</ele><time>2014-09-04T10:22:26Z</time></trkpt><trkpt lat="45.7380117383" lon="7.3238898162"><ele>613.94</ele><time>2014-09-04T10:22:41Z</time></trkpt><trkpt lat="45.7379880175" lon="7.3238650057"><ele>611.06</ele><time>2014-09-04T10:22:45Z</time></trkpt><trkpt lat="45.7379529811" lon="7.3238561209"><ele>606.73</ele><time>2014-09-04T10:22:58Z</time></trkpt><trkpt lat="45.7379817311" lon="7.3237502575"><ele>605.77</ele><time>2014-09-04T10:23:04Z</time></trkpt><trkpt lat="45.7379909512" lon="7.3235852178"><ele>598.08</ele><time>2014-09-04T10:23:17Z</time></trkpt><trkpt lat="45.7379782107" lon="7.3234972917"><ele>597.60</ele><time>2014-09-04T10:23:22Z</time></trkpt><trkpt lat="45.7378773764" lon="7.3232842237"><ele>603.85</ele><time>2014-09-04T10:23:37Z</time></trkpt><trkpt lat="45.7377792243" lon="7.3233037535"><ele>608.65</ele><time>2014-09-04T10:23:46Z</time></trkpt><trkpt lat="45.7377858460" lon="7.3233226128"><ele>611.54</ele><time>2014-09-04T10:23:57Z</time></trkpt><trkpt lat="45.7377270050" lon="7.3233194277"><ele>613.94</ele><time>2014-09-04T10:24:12Z</time></trkpt><trkpt lat="45.7376854308" lon="7.3232848942"><ele>616.34</ele><time>2014-09-04T10:24:43Z</time></trkpt><trkpt lat="45.7376880292" lon="7.3232678790"><ele>618.75</ele><time>2014-09-04T10:24:59Z</time></trkpt><trkpt lat="45.7378223911" lon="7.3232454993"><ele>623.55</ele><time>2014-09-04T10:25:09Z</time></trkpt><trkpt lat="45.7378634624" lon="7.3231954593"><ele>622.59</ele><time>2014-09-04T10:25:16Z</time></trkpt><trkpt lat="45.7379023544" lon="7.3232422303"><ele>621.15</ele><time>2014-09-04T10:25:30Z</time></trkpt><trkpt lat="45.7378948107" lon="7.3232910130"><ele>620.67</ele><time>2014-09-04T10:25:53Z</time></trkpt><trkpt lat="45.7378962357" lon="7.3233139794"><ele>622.11</ele><time>2014-09-04T10:26:20Z</time></trkpt><trkpt lat="45.7378753647" lon="7.3233340122"><ele>625.96</ele><time>2014-09-04T10:26:47Z</time></trkpt><trkpt lat="45.7378613669" lon="7.3232946172"><ele>626.44</ele><time>2014-09-04T10:27:06Z</time></trkpt><trkpt lat="45.7378558349" lon="7.3232834693"><ele>625.96</ele><time>2014-09-04T10:27:07Z</time></trkpt><trkpt lat="45.7377916295" lon="7.3230486922"><ele>625.96</ele><time>2014-09-04T10:27:23Z</time></trkpt><trkpt lat="45.7377867680" lon="7.3230318446"><ele>626.44</ele><time>2014-09-04T10:27:24Z</time></trkpt><trkpt lat="45.7377376501" lon="7.3228707444"><ele>629.32</ele><time>2014-09-04T10:27:35Z</time></trkpt><trkpt lat="45.7376723550" lon="7.3227704968"><ele>625.47</ele><time>2014-09-04T10:27:51Z</time></trkpt><trkpt lat="45.7376829162" lon="7.3227427527"><ele>624.51</ele><time>2014-09-04T10:27:56Z</time></trkpt><trkpt lat="45.7376861013" lon="7.3226170242"><ele>623.55</ele><time>2014-09-04T10:28:02Z</time></trkpt><trkpt lat="45.7376098260" lon="7.3223498091"><ele>619.71</ele><time>2014-09-04T10:28:19Z</time></trkpt><trkpt lat="45.7375322934" lon="7.3220546823"><ele>617.30</ele><time>2014-09-04T10:28:36Z</time></trkpt><trkpt lat="45.7374248374" lon="7.3219163809"><ele>609.61</ele><time>2014-09-04T10:28:51Z</time></trkpt><trkpt lat="45.7373732887" lon="7.3216219246"><ele>602.40</ele><time>2014-09-04T10:29:07Z</time></trkpt><trkpt lat="45.7373178005" lon="7.3214523587"><ele>602.40</ele><time>2014-09-04T10:29:18Z</time></trkpt><trkpt lat="45.7373419404" lon="7.3213263787"><ele>609.61</ele><time>2014-09-04T10:29:30Z</time></trkpt><trkpt lat="45.7373314630" lon="7.3213082738"><ele>610.09</ele><time>2014-09-04T10:29:54Z</time></trkpt><trkpt lat="45.7373271883" lon="7.3212609999"><ele>612.02</ele><time>2014-09-04T10:30:13Z</time></trkpt><trkpt lat="45.7373457123" lon="7.3212121334"><ele>612.98</ele><time>2014-09-04T10:30:16Z</time></trkpt><trkpt lat="45.7374408469" lon="7.3211408872"><ele>614.90</ele><time>2014-09-04T10:30:21Z</time></trkpt><trkpt lat="45.7374555990" lon="7.3211442400"><ele>614.90</ele><time>2014-09-04T10:30:22Z</time></trkpt><trkpt lat="45.7374728657" lon="7.3211461678"><ele>615.38</ele><time>2014-09-04T10:30:23Z</time></trkpt><trkpt lat="45.7374913059" lon="7.3211478442"><ele>615.38</ele><time>2014-09-04T10:30:24Z</time></trkpt><trkpt lat="45.7375084888" lon="7.3211465031"><ele>615.38</ele><time>2014-09-04T10:30:25Z</time></trkpt><trkpt lat="45.7375257555" lon="7.3211415578"><ele>614.90</ele><time>2014-09-04T10:30:26Z</time></trkpt><trkpt lat="45.7375436928" lon="7.3211397137"><ele>614.90</ele><time>2014-09-04T10:30:27Z</time></trkpt><trkpt lat="45.7375625521" lon="7.3211347684"><ele>614.90</ele><time>2014-09-04T10:30:28Z</time></trkpt><trkpt lat="45.7375812437" lon="7.3211283144"><ele>614.90</ele><time>2014-09-04T10:30:29Z</time></trkpt><trkpt lat="45.7378093991" lon="7.3210338503"><ele>615.38</ele><time>2014-09-04T10:30:41Z</time></trkpt><trkpt lat="45.7378223911" lon="7.3210355267"><ele>615.86</ele><time>2014-09-04T10:30:42Z</time></trkpt><trkpt lat="45.7378342934" lon="7.3210372031"><ele>615.86</ele><time>2014-09-04T10:30:43Z</time></trkpt><trkpt lat="45.7378479559" lon="7.3210348561"><ele>616.34</ele><time>2014-09-04T10:30:44Z</time></trkpt><trkpt lat="45.7378584333" lon="7.3210210260"><ele>616.34</ele><time>2014-09-04T10:30:45Z</time></trkpt><trkpt lat="45.7378559187" lon="7.3210078664"><ele>616.34</ele><time>2014-09-04T10:30:46Z</time></trkpt><trkpt lat="45.7378463633" lon="7.3209995683"><ele>616.34</ele><time>2014-09-04T10:30:47Z</time></trkpt><trkpt lat="45.7378318626" lon="7.3210450821"><ele>616.34</ele><time>2014-09-04T10:30:56Z</time></trkpt><trkpt lat="45.7378467824" lon="7.3210518714"><ele>616.34</ele><time>2014-09-04T10:30:57Z</time></trkpt><trkpt lat="45.7378697488" lon="7.3210650310"><ele>616.82</ele><time>2014-09-04T10:30:59Z</time></trkpt><trkpt lat="45.7378885243" lon="7.3210813757"><ele>617.30</ele><time>2014-09-04T10:31:00Z</time></trkpt><trkpt lat="45.7379091438" lon="7.3211144004"><ele>617.30</ele><time>2014-09-04T10:31:01Z</time></trkpt><trkpt lat="45.7379218005" lon="7.3211432341"><ele>617.30</ele><time>2014-09-04T10:31:02Z</time></trkpt><trkpt lat="45.7379289251" lon="7.3211756721"><ele>617.30</ele><time>2014-09-04T10:31:03Z</time></trkpt><trkpt lat="45.7381295878" lon="7.3218608927"><ele>612.98</ele><time>2014-09-04T10:31:22Z</time></trkpt><trkpt lat="45.7382230461" lon="7.3220514134"><ele>611.54</ele><time>2014-09-04T10:31:34Z</time></trkpt><trkpt lat="45.7382039353" lon="7.3219828494"><ele>610.57</ele><time>2014-09-04T10:32:05Z</time></trkpt><trkpt lat="45.7382236328" lon="7.3220197298"><ele>606.73</ele><time>2014-09-04T10:32:39Z</time></trkpt><trkpt lat="45.7382243872" lon="7.3219904769"><ele>610.09</ele><time>2014-09-04T10:33:12Z</time></trkpt><trkpt lat="45.7382518798" lon="7.3219423648"><ele>607.69</ele><time>2014-09-04T10:33:41Z</time></trkpt><trkpt lat="45.7382171787" lon="7.3219556920"><ele>610.57</ele><time>2014-09-04T10:34:07Z</time></trkpt><trkpt lat="45.7382034324" lon="7.3219798319"><ele>601.92</ele><time>2014-09-04T10:34:43Z</time></trkpt><trkpt lat="45.7381985709" lon="7.3219496571"><ele>599.52</ele><time>2014-09-04T10:35:11Z</time></trkpt><trkpt lat="45.7382533886" lon="7.3219541833"><ele>603.36</ele><time>2014-09-04T10:35:51Z</time></trkpt><trkpt lat="45.7382283267" lon="7.3219307978"><ele>601.44</ele><time>2014-09-04T10:36:25Z</time></trkpt><trkpt lat="45.7382512931" lon="7.3219680972"><ele>599.04</ele><time>2014-09-04T10:36:55Z</time></trkpt><trkpt lat="45.7382320985" lon="7.3219359946"><ele>600.00</ele><time>2014-09-04T10:37:09Z</time></trkpt><trkpt lat="45.7380874269" lon="7.3215796798"><ele>600.48</ele><time>2014-09-04T10:37:23Z</time></trkpt><trkpt lat="45.7379855029" lon="7.3212691303"><ele>599.52</ele><time>2014-09-04T10:37:34Z</time></trkpt><trkpt lat="45.7379152626" lon="7.3210524581"><ele>598.56</ele><time>2014-09-04T10:37:43Z</time></trkpt><trkpt lat="45.7378969900" lon="7.3210393824"><ele>599.04</ele><time>2014-09-04T10:37:44Z</time></trkpt><trkpt lat="45.7378129195" lon="7.3210309166"><ele>598.08</ele><time>2014-09-04T10:37:47Z</time></trkpt><trkpt lat="45.7377950661" lon="7.3210406397"><ele>598.08</ele><time>2014-09-04T10:37:48Z</time></trkpt><trkpt lat="45.7377785537" lon="7.3210506979"><ele>597.60</ele><time>2014-09-04T10:37:49Z</time></trkpt><trkpt lat="45.7376313675" lon="7.3211027496"><ele>595.19</ele><time>2014-09-04T10:37:55Z</time></trkpt><trkpt lat="45.7376130112" lon="7.3210919369"><ele>595.19</ele><time>2014-09-04T10:37:56Z</time></trkpt><trkpt lat="45.7375907153" lon="7.3210720718"><ele>594.71</ele><time>2014-09-04T10:37:57Z</time></trkpt><trkpt lat="45.7375175413" lon="7.3209695611"><ele>594.71</ele><time>2014-09-04T10:38:02Z</time></trkpt><trkpt lat="45.7374802418" lon="7.3208948784"><ele>594.71</ele><time>2014-09-04T10:38:05Z</time></trkpt><trkpt lat="45.7374603767" lon="7.3208732530"><ele>595.19</ele><time>2014-09-04T10:38:06Z</time></trkpt><trkpt lat="45.7374449540" lon="7.3208475206"><ele>595.67</ele><time>2014-09-04T10:38:07Z</time></trkpt><trkpt lat="45.7374338899" lon="7.3208169267"><ele>595.67</ele><time>2014-09-04T10:38:08Z</time></trkpt><trkpt lat="45.7374250051" lon="7.3207829800"><ele>595.67</ele><time>2014-09-04T10:38:09Z</time></trkpt><trkpt lat="45.7374163717" lon="7.3207472730"><ele>595.67</ele><time>2014-09-04T10:38:10Z</time></trkpt><trkpt lat="45.7373127714" lon="7.3203613702"><ele>597.60</ele><time>2014-09-04T10:38:23Z</time></trkpt><trkpt lat="45.7373121008" lon="7.3203410022"><ele>597.60</ele><time>2014-09-04T10:38:24Z</time></trkpt><trkpt lat="45.7373086642" lon="7.3203229811"><ele>597.60</ele><time>2014-09-04T10:38:25Z</time></trkpt><trkpt lat="45.7372820936" lon="7.3202958237"><ele>598.08</ele><time>2014-09-04T10:38:37Z</time></trkpt><trkpt lat="45.7372664195" lon="7.3202468734"><ele>598.08</ele><time>2014-09-04T10:38:53Z</time></trkpt><trkpt lat="45.7372509968" lon="7.3202369828"><ele>598.56</ele><time>2014-09-04T10:38:54Z</time></trkpt><trkpt lat="45.7372364961" lon="7.3202266730"><ele>598.56</ele><time>2014-09-04T10:38:55Z</time></trkpt><trkpt lat="45.7371830195" lon="7.3201871105"><ele>598.56</ele><time>2014-09-04T10:38:59Z</time></trkpt><trkpt lat="45.7371738832" lon="7.3201663233"><ele>598.56</ele><time>2014-09-04T10:39:00Z</time></trkpt><trkpt lat="45.7371616457" lon="7.3201509845"><ele>598.56</ele><time>2014-09-04T10:39:01Z</time></trkpt><trkpt lat="45.7371019665" lon="7.3201317899"><ele>598.08</ele><time>2014-09-04T10:39:05Z</time></trkpt><trkpt lat="45.7370812632" lon="7.3200760502"><ele>598.08</ele><time>2014-09-04T10:39:07Z</time></trkpt><trkpt lat="45.7370751444" lon="7.3200373258"><ele>598.08</ele><time>2014-09-04T10:39:08Z</time></trkpt><trkpt lat="45.7370710373" lon="7.3200130183"><ele>598.56</ele><time>2014-09-04T10:39:09Z</time></trkpt><trkpt lat="45.7370658405" lon="7.3199879564"><ele>598.56</ele><time>2014-09-04T10:39:10Z</time></trkpt><trkpt lat="45.7370587159" lon="7.3199660797"><ele>598.56</ele><time>2014-09-04T10:39:11Z</time></trkpt><trkpt lat="45.7370494120" lon="7.3199444544"><ele>599.04</ele><time>2014-09-04T10:39:12Z</time></trkpt><trkpt lat="45.7370373420" lon="7.3199245054"><ele>599.04</ele><time>2014-09-04T10:39:13Z</time></trkpt><trkpt lat="45.7370232604" lon="7.3199058138"><ele>599.04</ele><time>2014-09-04T10:39:14Z</time></trkpt><trkpt lat="45.7370122802" lon="7.3198823445"><ele>599.04</ele><time>2014-09-04T10:39:15Z</time></trkpt><trkpt lat="45.7370042335" lon="7.3198571149"><ele>599.52</ele><time>2014-09-04T10:39:16Z</time></trkpt><trkpt lat="45.7369941752" lon="7.3198346514"><ele>599.52</ele><time>2014-09-04T10:39:17Z</time></trkpt><trkpt lat="45.7369581331" lon="7.3198109306"><ele>599.52</ele><time>2014-09-04T10:39:20Z</time></trkpt><trkpt lat="45.7369474042" lon="7.3198071588"><ele>599.52</ele><time>2014-09-04T10:39:21Z</time></trkpt><trkpt lat="45.7369355857" lon="7.3197980225"><ele>599.52</ele><time>2014-09-04T10:39:22Z</time></trkpt><trkpt lat="45.7369234320" lon="7.3197864555"><ele>599.52</ele><time>2014-09-04T10:39:23Z</time></trkpt><trkpt lat="45.7367650978" lon="7.3195451405"><ele>593.27</ele><time>2014-09-04T10:39:39Z</time></trkpt><trkpt lat="45.7367321569" lon="7.3194103595"><ele>586.54</ele><time>2014-09-04T10:39:48Z</time></trkpt><trkpt lat="45.7367319893" lon="7.3193830345"><ele>586.06</ele><time>2014-09-04T10:39:49Z</time></trkpt><trkpt lat="45.7367024850" lon="7.3193381075"><ele>584.62</ele><time>2014-09-04T10:39:52Z</time></trkpt><trkpt lat="45.7365201786" lon="7.3190295696"><ele>569.24</ele><time>2014-09-04T10:40:10Z</time></trkpt><trkpt lat="45.7365379483" lon="7.3189092055"><ele>559.62</ele><time>2014-09-04T10:40:23Z</time></trkpt><trkpt lat="45.7366517745" lon="7.3187681381"><ele>556.26</ele><time>2014-09-04T10:40:41Z</time></trkpt><trkpt lat="45.7366782613" lon="7.3186454270"><ele>555.30</ele><time>2014-09-04T10:40:51Z</time></trkpt><trkpt lat="45.7366521936" lon="7.3186002485"><ele>560.59</ele><time>2014-09-04T10:40:55Z</time></trkpt><trkpt lat="45.7366402075" lon="7.3183653038"><ele>570.68</ele><time>2014-09-04T10:41:07Z</time></trkpt><trkpt lat="45.7366315741" lon="7.3181536607"><ele>576.45</ele><time>2014-09-04T10:41:18Z</time></trkpt><trkpt lat="45.7365726493" lon="7.3179412633"><ele>582.22</ele><time>2014-09-04T10:41:34Z</time></trkpt><trkpt lat="45.7365569752" lon="7.3179185484"><ele>584.14</ele><time>2014-09-04T10:41:36Z</time></trkpt><trkpt lat="45.7365468331" lon="7.3179093283"><ele>585.10</ele><time>2014-09-04T10:41:37Z</time></trkpt><trkpt lat="45.7364586554" lon="7.3177389242"><ele>596.15</ele><time>2014-09-04T10:41:48Z</time></trkpt><trkpt lat="45.7364206016" lon="7.3173920810"><ele>602.88</ele><time>2014-09-04T10:42:04Z</time></trkpt><trkpt lat="45.7364057656" lon="7.3172956891"><ele>604.33</ele><time>2014-09-04T10:42:09Z</time></trkpt><trkpt lat="45.7363179233" lon="7.3172190785"><ele>607.21</ele><time>2014-09-04T10:42:16Z</time></trkpt><trkpt lat="45.7362869103" lon="7.3172169831"><ele>608.65</ele><time>2014-09-04T10:42:18Z</time></trkpt><trkpt lat="45.7362387143" lon="7.3171751574"><ele>610.57</ele><time>2014-09-04T10:42:22Z</time></trkpt><trkpt lat="45.7362077851" lon="7.3171138018"><ele>610.09</ele><time>2014-09-04T10:42:26Z</time></trkpt><trkpt lat="45.7361997385" lon="7.3171020672"><ele>610.09</ele><time>2014-09-04T10:42:27Z</time></trkpt><trkpt lat="45.7361854892" lon="7.3170252889"><ele>610.57</ele><time>2014-09-04T10:42:31Z</time></trkpt><trkpt lat="45.7361830585" lon="7.3170076031"><ele>610.57</ele><time>2014-09-04T10:42:32Z</time></trkpt><trkpt lat="45.7361796219" lon="7.3169731535"><ele>610.57</ele><time>2014-09-04T10:42:34Z</time></trkpt><trkpt lat="45.7361777779" lon="7.3169559706"><ele>610.57</ele><time>2014-09-04T10:42:35Z</time></trkpt><trkpt lat="45.7360983174" lon="7.3166640289"><ele>607.69</ele><time>2014-09-04T10:42:55Z</time></trkpt><trkpt lat="45.7360158395" lon="7.3166113067"><ele>603.36</ele><time>2014-09-04T10:43:22Z</time></trkpt><trkpt lat="45.7360048592" lon="7.3166030925"><ele>600.00</ele><time>2014-09-04T10:43:38Z</time></trkpt><trkpt lat="45.7359727565" lon="7.3165707383"><ele>599.04</ele><time>2014-09-04T10:43:55Z</time></trkpt><trkpt lat="45.7359562442" lon="7.3166014161"><ele>599.04</ele><time>2014-09-04T10:44:07Z</time></trkpt><trkpt lat="45.7359979860" lon="7.3166213650"><ele>600.96</ele><time>2014-09-04T10:44:35Z</time></trkpt><trkpt lat="45.7360537257" lon="7.3165999912"><ele>601.44</ele><time>2014-09-04T10:45:03Z</time></trkpt><trkpt lat="45.7360820565" lon="7.3165852390"><ele>601.44</ele><time>2014-09-04T10:45:21Z</time></trkpt><trkpt lat="45.7361019216" lon="7.3166185152"><ele>601.92</ele><time>2014-09-04T10:45:41Z</time></trkpt><trkpt lat="45.7361105550" lon="7.3166201916"><ele>602.88</ele><time>2014-09-04T10:46:05Z</time></trkpt><trkpt lat="45.7360637840" lon="7.3165860772"><ele>605.77</ele><time>2014-09-04T10:46:17Z</time></trkpt><trkpt lat="45.7359871734" lon="7.3163655493"><ele>604.81</ele><time>2014-09-04T10:46:29Z</time></trkpt><trkpt lat="45.7359793782" lon="7.3163486179"><ele>604.33</ele><time>2014-09-04T10:46:30Z</time></trkpt><trkpt lat="45.7359743491" lon="7.3163010087"><ele>603.36</ele><time>2014-09-04T10:46:32Z</time></trkpt><trkpt lat="45.7359763607" lon="7.3162833229"><ele>602.88</ele><time>2014-09-04T10:46:33Z</time></trkpt><trkpt lat="45.7359807193" lon="7.3162575904"><ele>602.88</ele><time>2014-09-04T10:46:34Z</time></trkpt><trkpt lat="45.7359818928" lon="7.3162327800"><ele>602.40</ele><time>2014-09-04T10:46:35Z</time></trkpt><trkpt lat="45.7359712478" lon="7.3161711730"><ele>601.44</ele><time>2014-09-04T10:46:38Z</time></trkpt><trkpt lat="45.7359705772" lon="7.3161585163"><ele>600.96</ele><time>2014-09-04T10:46:39Z</time></trkpt><trkpt lat="45.7359677274" lon="7.3161424231"><ele>600.48</ele><time>2014-09-04T10:46:40Z</time></trkpt><trkpt lat="45.7359640393" lon="7.3161254916"><ele>600.00</ele><time>2014-09-04T10:46:41Z</time></trkpt><trkpt lat="45.7358948886" lon="7.3158711009"><ele>595.67</ele><time>2014-09-04T10:46:57Z</time></trkpt><trkpt lat="45.7357653882" lon="7.3157083243"><ele>596.64</ele><time>2014-09-04T10:47:11Z</time></trkpt><trkpt lat="45.7356826589" lon="7.3155100085"><ele>597.12</ele><time>2014-09-04T10:47:23Z</time></trkpt><trkpt lat="45.7355694193" lon="7.3153146263"><ele>600.96</ele><time>2014-09-04T10:47:35Z</time></trkpt><trkpt lat="45.7355674077" lon="7.3152926657"><ele>601.44</ele><time>2014-09-04T10:47:36Z</time></trkpt><trkpt lat="45.7355598640" lon="7.3152779974"><ele>601.44</ele><time>2014-09-04T10:47:37Z</time></trkpt><trkpt lat="45.7354798168" lon="7.3151246924"><ele>603.36</ele><time>2014-09-04T10:47:50Z</time></trkpt><trkpt lat="45.7354612090" lon="7.3147920147"><ele>602.88</ele><time>2014-09-04T10:48:06Z</time></trkpt><trkpt lat="45.7354641426" lon="7.3147366103"><ele>602.88</ele><time>2014-09-04T10:48:10Z</time></trkpt><trkpt lat="45.7354793139" lon="7.3147204332"><ele>603.36</ele><time>2014-09-04T10:48:11Z</time></trkpt><trkpt lat="45.7354923896" lon="7.3147016577"><ele>604.33</ele><time>2014-09-04T10:48:13Z</time></trkpt><trkpt lat="45.7358056214" lon="7.3144918587"><ele>609.13</ele><time>2014-09-04T10:48:24Z</time></trkpt><trkpt lat="45.7362911850" lon="7.3142222967"><ele>607.69</ele><time>2014-09-04T10:48:37Z</time></trkpt><trkpt lat="45.7363936957" lon="7.3141641263"><ele>606.73</ele><time>2014-09-04T10:48:40Z</time></trkpt><trkpt lat="45.7364220265" lon="7.3141399864"><ele>606.25</ele><time>2014-09-04T10:48:41Z</time></trkpt><trkpt lat="45.7368590590" lon="7.3138702568"><ele>603.85</ele><time>2014-09-04T10:48:53Z</time></trkpt><trkpt lat="45.7374550961" lon="7.3135395907"><ele>603.36</ele><time>2014-09-04T10:49:09Z</time></trkpt><trkpt lat="45.7376391627" lon="7.3134857789"><ele>603.36</ele><time>2014-09-04T10:49:19Z</time></trkpt><trkpt lat="45.7376547530" lon="7.3134852760"><ele>598.56</ele><time>2014-09-04T10:49:32Z</time></trkpt><trkpt lat="45.7376354747" lon="7.3134656623"><ele>590.39</ele><time>2014-09-04T10:49:59Z</time></trkpt><trkpt lat="45.7376487181" lon="7.3134813365"><ele>592.79</ele><time>2014-09-04T10:50:19Z</time></trkpt><trkpt lat="45.7376701757" lon="7.3134654947"><ele>593.75</ele><time>2014-09-04T10:50:24Z</time></trkpt><trkpt lat="45.7376840059" lon="7.3134532571"><ele>593.75</ele><time>2014-09-04T10:50:25Z</time></trkpt><trkpt lat="45.7377004344" lon="7.3134392593"><ele>593.75</ele><time>2014-09-04T10:50:26Z</time></trkpt><trkpt lat="45.7377226464" lon="7.3134223279"><ele>593.27</ele><time>2014-09-04T10:50:27Z</time></trkpt><trkpt lat="45.7377383206" lon="7.3134113476"><ele>593.27</ele><time>2014-09-04T10:50:28Z</time></trkpt><trkpt lat="45.7377574313" lon="7.3133981880"><ele>592.79</ele><time>2014-09-04T10:50:29Z</time></trkpt><trkpt lat="45.7377809845" lon="7.3133858666"><ele>592.79</ele><time>2014-09-04T10:50:30Z</time></trkpt><trkpt lat="45.7378021907" lon="7.3133752216"><ele>592.31</ele><time>2014-09-04T10:50:31Z</time></trkpt><trkpt lat="45.7378199603" lon="7.3133680969"><ele>592.31</ele><time>2014-09-04T10:50:32Z</time></trkpt><trkpt lat="45.7378383167" lon="7.3133583739"><ele>592.79</ele><time>2014-09-04T10:50:33Z</time></trkpt><trkpt lat="45.7378567569" lon="7.3133461364"><ele>592.79</ele><time>2014-09-04T10:50:34Z</time></trkpt><trkpt lat="45.7378744427" lon="7.3133347370"><ele>592.79</ele><time>2014-09-04T10:50:35Z</time></trkpt><trkpt lat="45.7378952298" lon="7.3133219127"><ele>592.79</ele><time>2014-09-04T10:50:36Z</time></trkpt><trkpt lat="45.7379158493" lon="7.3133088369"><ele>592.79</ele><time>2014-09-04T10:50:37Z</time></trkpt><trkpt lat="45.7379368879" lon="7.3132961802"><ele>592.79</ele><time>2014-09-04T10:50:38Z</time></trkpt><trkpt lat="45.7380163483" lon="7.3132033087"><ele>593.27</ele><time>2014-09-04T10:50:42Z</time></trkpt><trkpt lat="45.7380225509" lon="7.3131382652"><ele>593.27</ele><time>2014-09-04T10:50:44Z</time></trkpt><trkpt lat="45.7378655579" lon="7.3124831356"><ele>593.27</ele><time>2014-09-04T10:51:00Z</time></trkpt><trkpt lat="45.7377292681" lon="7.3118974920"><ele>590.87</ele><time>2014-09-04T10:51:15Z</time></trkpt><trkpt lat="45.7376536634" lon="7.3117401637"><ele>593.27</ele><time>2014-09-04T10:51:27Z</time></trkpt><trkpt lat="45.7376137655" lon="7.3116711807"><ele>592.31</ele><time>2014-09-04T10:51:54Z</time></trkpt><trkpt lat="45.7376001030" lon="7.3117231485"><ele>588.46</ele><time>2014-09-04T10:52:31Z</time></trkpt><trkpt lat="45.7375634741" lon="7.3117010202"><ele>590.39</ele><time>2014-09-04T10:52:44Z</time></trkpt><trkpt lat="45.7375233248" lon="7.3117003497"><ele>590.87</ele><time>2014-09-04T10:52:46Z</time></trkpt><trkpt lat="45.7375059742" lon="7.3117047921"><ele>590.87</ele><time>2014-09-04T10:52:47Z</time></trkpt><trkpt lat="45.7374875341" lon="7.3117161915"><ele>591.35</ele><time>2014-09-04T10:52:48Z</time></trkpt><trkpt lat="45.7370916568" lon="7.3119197879"><ele>594.23</ele><time>2014-09-04T10:53:01Z</time></trkpt><trkpt lat="45.7366492599" lon="7.3121608514"><ele>589.91</ele><time>2014-09-04T10:53:15Z</time></trkpt><trkpt lat="45.7360603474" lon="7.3124698084"><ele>590.87</ele><time>2014-09-04T10:53:30Z</time></trkpt><trkpt lat="45.7358666416" lon="7.3125563096"><ele>589.91</ele><time>2014-09-04T10:53:36Z</time></trkpt><trkpt lat="45.7358299289" lon="7.3125770129"><ele>589.91</ele><time>2014-09-04T10:53:37Z</time></trkpt><trkpt lat="45.7354228199" lon="7.3127964512"><ele>586.54</ele><time>2014-09-04T10:53:48Z</time></trkpt><trkpt lat="45.7351369970" lon="7.3129642569"><ele>588.95</ele><time>2014-09-04T10:53:58Z</time></trkpt><trkpt lat="45.7351147011" lon="7.3129518516"><ele>588.46</ele><time>2014-09-04T10:53:59Z</time></trkpt><trkpt lat="45.7350889686" lon="7.3129222635"><ele>588.95</ele><time>2014-09-04T10:54:01Z</time></trkpt><trkpt lat="45.7350555249" lon="7.3128851317"><ele>587.98</ele><time>2014-09-04T10:54:06Z</time></trkpt><trkpt lat="45.7349898107" lon="7.3128267936"><ele>587.50</ele><time>2014-09-04T10:54:19Z</time></trkpt><trkpt lat="45.7348537724" lon="7.3127961997"><ele>584.62</ele><time>2014-09-04T10:54:46Z</time></trkpt><trkpt lat="45.7347825263" lon="7.3123979755"><ele>588.46</ele><time>2014-09-04T10:55:00Z</time></trkpt><trkpt lat="45.7346785069" lon="7.3119083047"><ele>595.19</ele><time>2014-09-04T10:55:15Z</time></trkpt><trkpt lat="45.7346034888" lon="7.3114116769"><ele>593.75</ele><time>2014-09-04T10:55:26Z</time></trkpt><trkpt lat="45.7345087733" lon="7.3107493389"><ele>592.31</ele><time>2014-09-04T10:55:40Z</time></trkpt><trkpt lat="45.7343898341" lon="7.3100459296"><ele>597.60</ele><time>2014-09-04T10:55:55Z</time></trkpt><trkpt lat="45.7342774328" lon="7.3093719408"><ele>599.52</ele><time>2014-09-04T10:56:11Z</time></trkpt><trkpt lat="45.7341390476" lon="7.3085360136"><ele>604.81</ele><time>2014-09-04T10:56:27Z</time></trkpt><trkpt lat="45.7340163365" lon="7.3076963145"><ele>606.73</ele><time>2014-09-04T10:56:44Z</time></trkpt><trkpt lat="45.7338827290" lon="7.3068119399"><ele>608.65</ele><time>2014-09-04T10:57:01Z</time></trkpt><trkpt lat="45.7337530609" lon="7.3060145695"><ele>611.06</ele><time>2014-09-04T10:57:16Z</time></trkpt><trkpt lat="45.7336132508" lon="7.3051441927"><ele>612.50</ele><time>2014-09-04T10:57:33Z</time></trkpt><trkpt lat="45.7334664837" lon="7.3043710459"><ele>612.02</ele><time>2014-09-04T10:57:48Z</time></trkpt><trkpt lat="45.7334031165" lon="7.3038752563"><ele>609.61</ele><time>2014-09-04T10:58:02Z</time></trkpt><trkpt lat="45.7333192974" lon="7.3033993319"><ele>608.17</ele><time>2014-09-04T10:58:14Z</time></trkpt><trkpt lat="45.7333215605" lon="7.3033663072"><ele>607.21</ele><time>2014-09-04T10:58:17Z</time></trkpt><trkpt lat="45.7333344687" lon="7.3033262417"><ele>606.73</ele><time>2014-09-04T10:58:18Z</time></trkpt><trkpt lat="45.7333295234" lon="7.3030485492"><ele>605.29</ele><time>2014-09-04T10:58:23Z</time></trkpt><trkpt lat="45.7332079858" lon="7.3026020452"><ele>604.81</ele><time>2014-09-04T10:58:32Z</time></trkpt><trkpt lat="45.7331914734" lon="7.3025292065"><ele>604.81</ele><time>2014-09-04T10:58:34Z</time></trkpt><trkpt lat="45.7330530882" lon="7.3017631844"><ele>606.25</ele><time>2014-09-04T10:58:48Z</time></trkpt><trkpt lat="45.7329478115" lon="7.3011148442"><ele>606.25</ele><time>2014-09-04T10:58:59Z</time></trkpt><trkpt lat="45.7328722905" lon="7.3006399255"><ele>607.21</ele><time>2014-09-04T10:59:07Z</time></trkpt><trkpt lat="45.7328592986" lon="7.3005819228"><ele>607.21</ele><time>2014-09-04T10:59:08Z</time></trkpt><trkpt lat="45.7327448018" lon="7.2998676170"><ele>609.13</ele><time>2014-09-04T10:59:20Z</time></trkpt><trkpt lat="45.7326013874" lon="7.2988180351"><ele>610.57</ele><time>2014-09-04T10:59:37Z</time></trkpt><trkpt lat="45.7324499264" lon="7.2977835406"><ele>609.13</ele><time>2014-09-04T10:59:53Z</time></trkpt><trkpt lat="45.7324257027" lon="7.2976551298"><ele>609.13</ele><time>2014-09-04T10:59:55Z</time></trkpt><trkpt lat="45.7324200869" lon="7.2975896671"><ele>609.13</ele><time>2014-09-04T10:59:56Z</time></trkpt><trkpt lat="45.7324167341" lon="7.2975249588"><ele>608.65</ele><time>2014-09-04T10:59:57Z</time></trkpt><trkpt lat="45.7324120402" lon="7.2974441573"><ele>608.65</ele><time>2014-09-04T10:59:58Z</time></trkpt><trkpt lat="45.7324028201" lon="7.2973523755"><ele>608.17</ele><time>2014-09-04T11:00:00Z</time></trkpt><trkpt lat="45.7323111221" lon="7.2966439370"><ele>607.69</ele><time>2014-09-04T11:00:10Z</time></trkpt><trkpt lat="45.7322031632" lon="7.2957093548"><ele>605.77</ele><time>2014-09-04T11:00:26Z</time></trkpt><trkpt lat="45.7319306675" lon="7.2945290152"><ele>601.92</ele><time>2014-09-04T11:00:46Z</time></trkpt><trkpt lat="45.7319170050" lon="7.2944643069"><ele>601.92</ele><time>2014-09-04T11:00:47Z</time></trkpt><trkpt lat="45.7319050189" lon="7.2944116686"><ele>601.44</ele><time>2014-09-04T11:00:48Z</time></trkpt><trkpt lat="45.7318919431" lon="7.2943604551"><ele>601.44</ele><time>2014-09-04T11:00:49Z</time></trkpt><trkpt lat="45.7318756822" lon="7.2943053860"><ele>601.44</ele><time>2014-09-04T11:00:50Z</time></trkpt><trkpt lat="45.7315272465" lon="7.2931471746"><ele>599.52</ele><time>2014-09-04T11:01:11Z</time></trkpt><trkpt lat="45.7312758733" lon="7.2923876904"><ele>598.56</ele><time>2014-09-04T11:01:27Z</time></trkpt><trkpt lat="45.7310223207" lon="7.2916141246"><ele>599.52</ele><time>2014-09-04T11:01:44Z</time></trkpt><trkpt lat="45.7307773177" lon="7.2907625232"><ele>602.88</ele><time>2014-09-04T11:02:04Z</time></trkpt><trkpt lat="45.7306100149" lon="7.2901809029"><ele>605.29</ele><time>2014-09-04T11:02:19Z</time></trkpt><trkpt lat="45.7304158900" lon="7.2895467281"><ele>606.25</ele><time>2014-09-04T11:02:35Z</time></trkpt><trkpt lat="45.7302005589" lon="7.2888767626"><ele>610.09</ele><time>2014-09-04T11:02:54Z</time></trkpt><trkpt lat="45.7301078551" lon="7.2883956414"><ele>610.57</ele><time>2014-09-04T11:03:08Z</time></trkpt><trkpt lat="45.7300993055" lon="7.2883658856"><ele>606.25</ele><time>2014-09-04T11:03:28Z</time></trkpt><trkpt lat="45.7300984673" lon="7.2883095592"><ele>607.21</ele><time>2014-09-04T11:03:49Z</time></trkpt><trkpt lat="45.7300982997" lon="7.2882865090"><ele>607.21</ele><time>2014-09-04T11:03:50Z</time></trkpt><trkpt lat="45.7300562225" lon="7.2877738718"><ele>607.69</ele><time>2014-09-04T11:04:02Z</time></trkpt><trkpt lat="45.7299621776" lon="7.2867580689"><ele>608.65</ele><time>2014-09-04T11:04:22Z</time></trkpt><trkpt lat="45.7298981398" lon="7.2861626185"><ele>607.69</ele><time>2014-09-04T11:04:32Z</time></trkpt><trkpt lat="45.7298890874" lon="7.2860973235"><ele>607.69</ele><time>2014-09-04T11:04:33Z</time></trkpt><trkpt lat="45.7298224512" lon="7.2854045592"><ele>606.73</ele><time>2014-09-04T11:04:47Z</time></trkpt><trkpt lat="45.7296820544" lon="7.2844843101"><ele>605.29</ele><time>2014-09-04T11:05:02Z</time></trkpt><trkpt lat="45.7293502148" lon="7.2833514120"><ele>603.36</ele><time>2014-09-04T11:05:19Z</time></trkpt><trkpt lat="45.7293091435" lon="7.2832440399"><ele>603.36</ele><time>2014-09-04T11:05:21Z</time></trkpt><trkpt lat="45.7291890308" lon="7.2830131184"><ele>602.40</ele><time>2014-09-04T11:05:26Z</time></trkpt><trkpt lat="45.7291427627" lon="7.2829162236"><ele>601.92</ele><time>2014-09-04T11:05:28Z</time></trkpt><trkpt lat="45.7288215682" lon="7.2823776864"><ele>600.48</ele><time>2014-09-04T11:05:39Z</time></trkpt><trkpt lat="45.7287887949" lon="7.2823371179"><ele>600.48</ele><time>2014-09-04T11:05:40Z</time></trkpt><trkpt lat="45.7286442909" lon="7.2821104713"><ele>600.48</ele><time>2014-09-04T11:05:45Z</time></trkpt><trkpt lat="45.7281148061" lon="7.2812123504"><ele>600.00</ele><time>2014-09-04T11:06:04Z</time></trkpt><trkpt lat="45.7277613413" lon="7.2806233540"><ele>600.00</ele><time>2014-09-04T11:06:17Z</time></trkpt><trkpt lat="45.7274273224" lon="7.2800616827"><ele>600.48</ele><time>2014-09-04T11:06:32Z</time></trkpt><trkpt lat="45.7270633802" lon="7.2794912104"><ele>602.88</ele><time>2014-09-04T11:06:49Z</time></trkpt><trkpt lat="45.7267367374" lon="7.2789188102"><ele>605.77</ele><time>2014-09-04T11:07:07Z</time></trkpt><trkpt lat="45.7263939176" lon="7.2783521935"><ele>608.65</ele><time>2014-09-04T11:07:26Z</time></trkpt><trkpt lat="45.7261292171" lon="7.2779115569"><ele>610.09</ele><time>2014-09-04T11:07:42Z</time></trkpt><trkpt lat="45.7259122096" lon="7.2775931284"><ele>612.98</ele><time>2014-09-04T11:07:55Z</time></trkpt><trkpt lat="45.7255747542" lon="7.2770368215"><ele>613.94</ele><time>2014-09-04T11:08:14Z</time></trkpt><trkpt lat="45.7251908630" lon="7.2763874754"><ele>613.46</ele><time>2014-09-04T11:08:31Z</time></trkpt><trkpt lat="45.7249105722" lon="7.2758892551"><ele>613.46</ele><time>2014-09-04T11:08:45Z</time></trkpt><trkpt lat="45.7246120088" lon="7.2753903642"><ele>612.98</ele><time>2014-09-04T11:08:59Z</time></trkpt><trkpt lat="45.7244571950" lon="7.2750947345"><ele>613.46</ele><time>2014-09-04T11:09:12Z</time></trkpt><trkpt lat="45.7242927421" lon="7.2746463865"><ele>614.42</ele><time>2014-09-04T11:09:25Z</time></trkpt><trkpt lat="45.7241566200" lon="7.2739011515"><ele>615.38</ele><time>2014-09-04T11:09:40Z</time></trkpt><trkpt lat="45.7240686100" lon="7.2729789745"><ele>614.42</ele><time>2014-09-04T11:09:56Z</time></trkpt><trkpt lat="45.7240568753" lon="7.2726275213"><ele>613.94</ele><time>2014-09-04T11:10:06Z</time></trkpt><trkpt lat="45.7240518462" lon="7.2724924050"><ele>612.98</ele><time>2014-09-04T11:10:18Z</time></trkpt><trkpt lat="45.7240006328" lon="7.2718506027"><ele>613.94</ele><time>2014-09-04T11:10:32Z</time></trkpt><trkpt lat="45.7238135487" lon="7.2709887754"><ele>613.94</ele><time>2014-09-04T11:10:49Z</time></trkpt><trkpt lat="45.7235016581" lon="7.2702102643"><ele>612.98</ele><time>2014-09-04T11:11:03Z</time></trkpt><trkpt lat="45.7229697425" lon="7.2693804558"><ele>611.06</ele><time>2014-09-04T11:11:21Z</time></trkpt><trkpt lat="45.7224195544" lon="7.2685355600"><ele>610.57</ele><time>2014-09-04T11:11:40Z</time></trkpt><trkpt lat="45.7221076638" lon="7.2680587973"><ele>609.61</ele><time>2014-09-04T11:11:53Z</time></trkpt><trkpt lat="45.7217317354" lon="7.2673559748"><ele>608.17</ele><time>2014-09-04T11:12:11Z</time></trkpt><trkpt lat="45.7214620896" lon="7.2665102407"><ele>608.17</ele><time>2014-09-04T11:12:29Z</time></trkpt><trkpt lat="45.7211380452" lon="7.2657397762"><ele>608.65</ele><time>2014-09-04T11:12:45Z</time></trkpt><trkpt lat="45.7206599414" lon="7.2651029192"><ele>608.65</ele><time>2014-09-04T11:13:01Z</time></trkpt><trkpt lat="45.7201364078" lon="7.2644926328"><ele>611.06</ele><time>2014-09-04T11:13:19Z</time></trkpt><trkpt lat="45.7196276262" lon="7.2638917342"><ele>612.50</ele><time>2014-09-04T11:13:38Z</time></trkpt><trkpt lat="45.7191499416" lon="7.2633375227"><ele>613.94</ele><time>2014-09-04T11:13:57Z</time></trkpt><trkpt lat="45.7187824789" lon="7.2629099619"><ele>615.38</ele><time>2014-09-04T11:14:14Z</time></trkpt><trkpt lat="45.7184339594" lon="7.2624950577"><ele>617.30</ele><time>2014-09-04T11:14:30Z</time></trkpt><trkpt lat="45.7181488071" lon="7.2621738631"><ele>618.26</ele><time>2014-09-04T11:14:42Z</time></trkpt><trkpt lat="45.7178108487" lon="7.2617995273"><ele>619.23</ele><time>2014-09-04T11:14:57Z</time></trkpt><trkpt lat="45.7175341621" lon="7.2614388540"><ele>620.19</ele><time>2014-09-04T11:15:10Z</time></trkpt><trkpt lat="45.7170651108" lon="7.2608733270"><ele>619.71</ele><time>2014-09-04T11:15:28Z</time></trkpt><trkpt lat="45.7167123165" lon="7.2604173515"><ele>620.19</ele><time>2014-09-04T11:15:44Z</time></trkpt><trkpt lat="45.7167118136" lon="7.2603947204"><ele>620.19</ele><time>2014-09-04T11:15:45Z</time></trkpt><trkpt lat="45.7167489454" lon="7.2603436746"><ele>621.15</ele><time>2014-09-04T11:15:48Z</time></trkpt><trkpt lat="45.7169127278" lon="7.2602501325"><ele>623.55</ele><time>2014-09-04T11:15:57Z</time></trkpt><trkpt lat="45.7169332635" lon="7.2602114920"><ele>624.99</ele><time>2014-09-04T11:16:11Z</time></trkpt><trkpt lat="45.7169242110" lon="7.2602104861"><ele>624.03</ele><time>2014-09-04T11:16:26Z</time></trkpt><trkpt lat="45.7169423159" lon="7.2602165211"><ele>627.88</ele><time>2014-09-04T11:17:13Z</time></trkpt><trkpt lat="45.7169374544" lon="7.2602813970"><ele>628.36</ele><time>2014-09-04T11:17:46Z</time></trkpt><trkpt lat="45.7168708183" lon="7.2603144217"><ele>627.40</ele><time>2014-09-04T11:17:50Z</time></trkpt><trkpt lat="45.7167896815" lon="7.2603527270"><ele>625.96</ele><time>2014-09-04T11:17:53Z</time></trkpt><trkpt lat="45.7167137414" lon="7.2603927925"><ele>624.99</ele><time>2014-09-04T11:17:57Z</time></trkpt><trkpt lat="45.7166942116" lon="7.2603820637"><ele>623.55</ele><time>2014-09-04T11:17:59Z</time></trkpt><trkpt lat="45.7166811358" lon="7.2603701614"><ele>623.07</ele><time>2014-09-04T11:18:00Z</time></trkpt><trkpt lat="45.7166649587" lon="7.2603538167"><ele>622.59</ele><time>2014-09-04T11:18:01Z</time></trkpt><trkpt lat="45.7166454289" lon="7.2603350412"><ele>622.59</ele><time>2014-09-04T11:18:02Z</time></trkpt><trkpt lat="45.7166249771" lon="7.2603165172"><ele>622.11</ele><time>2014-09-04T11:18:03Z</time></trkpt><trkpt lat="45.7166020107" lon="7.2602884378"><ele>621.63</ele><time>2014-09-04T11:18:04Z</time></trkpt><trkpt lat="45.7165883482" lon="7.2602696624"><ele>621.63</ele><time>2014-09-04T11:18:05Z</time></trkpt><trkpt lat="45.7161566801" lon="7.2597267665"><ele>619.23</ele><time>2014-09-04T11:18:21Z</time></trkpt><trkpt lat="45.7159679197" lon="7.2594837751"><ele>618.75</ele><time>2014-09-04T11:18:31Z</time></trkpt><trkpt lat="45.7159681711" lon="7.2594620660"><ele>618.75</ele><time>2014-09-04T11:18:32Z</time></trkpt><trkpt lat="45.7159705181" lon="7.2594332322"><ele>618.75</ele><time>2014-09-04T11:18:35Z</time></trkpt><trkpt lat="45.7159803249" lon="7.2594346572"><ele>618.75</ele><time>2014-09-04T11:18:36Z</time></trkpt><trkpt lat="45.7159843482" lon="7.2594493255"><ele>618.75</ele><time>2014-09-04T11:18:37Z</time></trkpt><trkpt lat="45.7159887068" lon="7.2594606411"><ele>618.26</ele><time>2014-09-04T11:18:40Z</time></trkpt></trkseg><trkseg><trkpt lat="45.7159913890" lon="7.2594617307"><ele>614.42</ele><time>2014-09-04T12:28:30Z</time></trkpt><trkpt lat="45.7160443626" lon="7.2594647482"><ele>616.82</ele><time>2014-09-04T12:28:52Z</time></trkpt><trkpt lat="45.7160354778" lon="7.2594591323"><ele>615.86</ele><time>2014-09-04T12:28:54Z</time></trkpt><trkpt lat="45.7159771398" lon="7.2593964357"><ele>615.38</ele><time>2014-09-04T12:28:58Z</time></trkpt><trkpt lat="45.7159523293" lon="7.2593738884"><ele>615.38</ele><time>2014-09-04T12:28:59Z</time></trkpt><trkpt lat="45.7159263454" lon="7.2593451384"><ele>614.90</ele><time>2014-09-04T12:29:00Z</time></trkpt><trkpt lat="45.7158987690" lon="7.2593166400"><ele>614.90</ele><time>2014-09-04T12:29:01Z</time></trkpt><trkpt lat="45.7153505925" lon="7.2586480156"><ele>615.86</ele><time>2014-09-04T12:29:19Z</time></trkpt><trkpt lat="45.7146988157" lon="7.2578557581"><ele>616.34</ele><time>2014-09-04T12:29:39Z</time></trkpt><trkpt lat="45.7142815646" lon="7.2573088389"><ele>616.34</ele><time>2014-09-04T12:29:54Z</time></trkpt><trkpt lat="45.7139280159" lon="7.2568072658"><ele>618.26</ele><time>2014-09-04T12:30:08Z</time></trkpt><trkpt lat="45.7135619782" lon="7.2563402262"><ele>620.19</ele><time>2014-09-04T12:30:24Z</time></trkpt><trkpt lat="45.7132834475" lon="7.2559904493"><ele>620.67</ele><time>2014-09-04T12:30:41Z</time></trkpt><trkpt lat="45.7129764184" lon="7.2556129284"><ele>621.15</ele><time>2014-09-04T12:30:57Z</time></trkpt><trkpt lat="45.7125446666" lon="7.2551507503"><ele>622.59</ele><time>2014-09-04T12:31:14Z</time></trkpt><trkpt lat="45.7121388149" lon="7.2545421403"><ele>623.55</ele><time>2014-09-04T12:31:31Z</time></trkpt><trkpt lat="45.7119916286" lon="7.2539290041"><ele>624.03</ele><time>2014-09-04T12:31:46Z</time></trkpt><trkpt lat="45.7120223064" lon="7.2538028564"><ele>623.55</ele><time>2014-09-04T12:31:55Z</time></trkpt><trkpt lat="45.7120291796" lon="7.2537965700"><ele>620.67</ele><time>2014-09-04T12:32:30Z</time></trkpt><trkpt lat="45.7120529842" lon="7.2538032755"><ele>617.78</ele><time>2014-09-04T12:33:04Z</time></trkpt><trkpt lat="45.7120489608" lon="7.2538041975"><ele>619.71</ele><time>2014-09-04T12:33:44Z</time></trkpt><trkpt lat="45.7120404951" lon="7.2533239983"><ele>622.11</ele><time>2014-09-04T12:33:58Z</time></trkpt><trkpt lat="45.7120546605" lon="7.2527020611"><ele>623.55</ele><time>2014-09-04T12:34:12Z</time></trkpt><trkpt lat="45.7121837419" lon="7.2522300761"><ele>625.47</ele><time>2014-09-04T12:34:24Z</time></trkpt><trkpt lat="45.7124542259" lon="7.2516324464"><ele>626.92</ele><time>2014-09-04T12:34:41Z</time></trkpt><trkpt lat="45.7126665395" lon="7.2511380818"><ele>631.72</ele><time>2014-09-04T12:34:57Z</time></trkpt><trkpt lat="45.7128077745" lon="7.2506147996"><ele>633.65</ele><time>2014-09-04T12:35:12Z</time></trkpt><trkpt lat="45.7128345128" lon="7.2501787730"><ele>634.13</ele><time>2014-09-04T12:35:27Z</time></trkpt><trkpt lat="45.7128117140" lon="7.2501207702"><ele>634.13</ele><time>2014-09-04T12:35:34Z</time></trkpt><trkpt lat="45.7127776835" lon="7.2501599975"><ele>634.13</ele><time>2014-09-04T12:35:37Z</time></trkpt><trkpt lat="45.7127709780" lon="7.2502069362"><ele>634.61</ele><time>2014-09-04T12:35:39Z</time></trkpt><trkpt lat="45.7127673738" lon="7.2502788529"><ele>635.09</ele><time>2014-09-04T12:35:40Z</time></trkpt><trkpt lat="45.7127280626" lon="7.2506878059"><ele>634.13</ele><time>2014-09-04T12:35:46Z</time></trkpt><trkpt lat="45.7127118856" lon="7.2507651709"><ele>633.65</ele><time>2014-09-04T12:35:47Z</time></trkpt><trkpt lat="45.7126916852" lon="7.2508368362"><ele>633.65</ele><time>2014-09-04T12:35:48Z</time></trkpt><trkpt lat="45.7121754438" lon="7.2519899346"><ele>629.32</ele><time>2014-09-04T12:36:02Z</time></trkpt><trkpt lat="45.7120686583" lon="7.2523209359"><ele>628.36</ele><time>2014-09-04T12:36:08Z</time></trkpt><trkpt lat="45.7119047921" lon="7.2533820849"><ele>626.92</ele><time>2014-09-04T12:36:23Z</time></trkpt><trkpt lat="45.7119768765" lon="7.2542485222"><ele>626.44</ele><time>2014-09-04T12:36:35Z</time></trkpt><trkpt lat="45.7123866677" lon="7.2550567891"><ele>625.96</ele><time>2014-09-04T12:36:50Z</time></trkpt><trkpt lat="45.7128987182" lon="7.2557957377"><ele>624.99</ele><time>2014-09-04T12:37:05Z</time></trkpt><trkpt lat="45.7129163202" lon="7.2558622062"><ele>624.99</ele><time>2014-09-04T12:37:06Z</time></trkpt><trkpt lat="45.7129134703" lon="7.2559720092"><ele>624.51</ele><time>2014-09-04T12:37:07Z</time></trkpt><trkpt lat="45.7128969580" lon="7.2560462728"><ele>624.03</ele><time>2014-09-04T12:37:09Z</time></trkpt><trkpt lat="45.7128412183" lon="7.2561023477"><ele>624.03</ele><time>2014-09-04T12:37:10Z</time></trkpt><trkpt lat="45.7127192616" lon="7.2561175190"><ele>623.07</ele><time>2014-09-04T12:37:14Z</time></trkpt><trkpt lat="45.7126693893" lon="7.2561016772"><ele>623.07</ele><time>2014-09-04T12:37:15Z</time></trkpt><trkpt lat="45.7121835742" lon="7.2557210550"><ele>623.55</ele><time>2014-09-04T12:37:29Z</time></trkpt><trkpt lat="45.7119063009" lon="7.2550511733"><ele>623.07</ele><time>2014-09-04T12:37:43Z</time></trkpt><trkpt lat="45.7118245773" lon="7.2538371384"><ele>621.63</ele><time>2014-09-04T12:38:02Z</time></trkpt><trkpt lat="45.7117531635" lon="7.2526851296"><ele>617.30</ele><time>2014-09-04T12:38:17Z</time></trkpt><trkpt lat="45.7116825040" lon="7.2515430115"><ele>615.38</ele><time>2014-09-04T12:38:33Z</time></trkpt><trkpt lat="45.7116820849" lon="7.2514726873"><ele>615.86</ele><time>2014-09-04T12:38:34Z</time></trkpt><trkpt lat="45.7116785645" lon="7.2514069732"><ele>615.38</ele><time>2014-09-04T12:38:35Z</time></trkpt><trkpt lat="45.7116663270" lon="7.2512571886"><ele>615.38</ele><time>2014-09-04T12:38:37Z</time></trkpt><trkpt lat="45.7116576098" lon="7.2510740440"><ele>615.38</ele><time>2014-09-04T12:38:40Z</time></trkpt><trkpt lat="45.7116513234" lon="7.2510101739"><ele>615.38</ele><time>2014-09-04T12:38:41Z</time></trkpt><trkpt lat="45.7115793228" lon="7.2498269007"><ele>615.86</ele><time>2014-09-04T12:39:01Z</time></trkpt><trkpt lat="45.7114986051" lon="7.2490303684"><ele>618.26</ele><time>2014-09-04T12:39:17Z</time></trkpt><trkpt lat="45.7110814378" lon="7.2482446488"><ele>621.15</ele><time>2014-09-04T12:39:35Z</time></trkpt><trkpt lat="45.7105574850" lon="7.2479522880"><ele>623.07</ele><time>2014-09-04T12:39:50Z</time></trkpt><trkpt lat="45.7097217254" lon="7.2476120666"><ele>624.03</ele><time>2014-09-04T12:40:12Z</time></trkpt><trkpt lat="45.7091587130" lon="7.2474281676"><ele>626.44</ele><time>2014-09-04T12:40:30Z</time></trkpt><trkpt lat="45.7087109517" lon="7.2474190313"><ele>629.80</ele><time>2014-09-04T12:40:45Z</time></trkpt><trkpt lat="45.7083076146" lon="7.2474574205"><ele>631.24</ele><time>2014-09-04T12:41:00Z</time></trkpt><trkpt lat="45.7080595102" lon="7.2474315204"><ele>630.28</ele><time>2014-09-04T12:41:15Z</time></trkpt><trkpt lat="45.7080339454" lon="7.2475206200"><ele>637.97</ele><time>2014-09-04T12:41:42Z</time></trkpt><trkpt lat="45.7079298422" lon="7.2474447638"><ele>649.03</ele><time>2014-09-04T12:42:07Z</time></trkpt><trkpt lat="45.7074182946" lon="7.2471630480"><ele>640.38</ele><time>2014-09-04T12:42:22Z</time></trkpt><trkpt lat="45.7067326549" lon="7.2468011174"><ele>635.57</ele><time>2014-09-04T12:42:40Z</time></trkpt><trkpt lat="45.7061921060" lon="7.2464357503"><ele>635.57</ele><time>2014-09-04T12:42:57Z</time></trkpt><trkpt lat="45.7057886850" lon="7.2458316665"><ele>637.49</ele><time>2014-09-04T12:43:14Z</time></trkpt><trkpt lat="45.7054680772" lon="7.2452451009"><ele>638.93</ele><time>2014-09-04T12:43:30Z</time></trkpt><trkpt lat="45.7050551847" lon="7.2447647341"><ele>638.93</ele><time>2014-09-04T12:43:46Z</time></trkpt><trkpt lat="45.7044836227" lon="7.2443668451"><ele>638.45</ele><time>2014-09-04T12:44:03Z</time></trkpt><trkpt lat="45.7039468456" lon="7.2442099359"><ele>637.49</ele><time>2014-09-04T12:44:19Z</time></trkpt><trkpt lat="45.7036452647" lon="7.2439597361"><ele>639.89</ele><time>2014-09-04T12:44:30Z</time></trkpt><trkpt lat="45.7032501418" lon="7.2434240486"><ele>641.34</ele><time>2014-09-04T12:44:45Z</time></trkpt><trkpt lat="45.7028110977" lon="7.2428074758"><ele>642.30</ele><time>2014-09-04T12:45:03Z</time></trkpt><trkpt lat="45.7024244405" lon="7.2422819305"><ele>643.74</ele><time>2014-09-04T12:45:18Z</time></trkpt><trkpt lat="45.7020826265" lon="7.2418075986"><ele>644.70</ele><time>2014-09-04T12:45:32Z</time></trkpt><trkpt lat="45.7017728314" lon="7.2412314266"><ele>645.66</ele><time>2014-09-04T12:45:47Z</time></trkpt><trkpt lat="45.7014285028" lon="7.2407363914"><ele>645.66</ele><time>2014-09-04T12:46:04Z</time></trkpt><trkpt lat="45.7013931312" lon="7.2407161072"><ele>645.66</ele><time>2014-09-04T12:46:05Z</time></trkpt><trkpt lat="45.7012621220" lon="7.2406909615"><ele>645.66</ele><time>2014-09-04T12:46:10Z</time></trkpt><trkpt lat="45.7012415025" lon="7.2407083958"><ele>645.66</ele><time>2014-09-04T12:46:11Z</time></trkpt><trkpt lat="45.7012179494" lon="7.2407532390"><ele>645.66</ele><time>2014-09-04T12:46:13Z</time></trkpt><trkpt lat="45.7012093998" lon="7.2407939751"><ele>645.66</ele><time>2014-09-04T12:46:14Z</time></trkpt><trkpt lat="45.7012135070" lon="7.2408268321"><ele>645.66</ele><time>2014-09-04T12:46:15Z</time></trkpt><trkpt lat="45.7012228947" lon="7.2408653889"><ele>645.66</ele><time>2014-09-04T12:46:16Z</time></trkpt><trkpt lat="45.7012298517" lon="7.2408917919"><ele>645.66</ele><time>2014-09-04T12:46:17Z</time></trkpt><trkpt lat="45.7012431789" lon="7.2409197036"><ele>645.66</ele><time>2014-09-04T12:46:18Z</time></trkpt><trkpt lat="45.7012566738" lon="7.2409393173"><ele>645.66</ele><time>2014-09-04T12:46:19Z</time></trkpt><trkpt lat="45.7012704201" lon="7.2409637924"><ele>645.66</ele><time>2014-09-04T12:46:20Z</time></trkpt><trkpt lat="45.7012851723" lon="7.2409878485"><ele>645.66</ele><time>2014-09-04T12:46:21Z</time></trkpt><trkpt lat="45.7013003435" lon="7.2410123236"><ele>646.14</ele><time>2014-09-04T12:46:22Z</time></trkpt><trkpt lat="45.7015997451" lon="7.2415831313"><ele>647.59</ele><time>2014-09-04T12:46:38Z</time></trkpt><trkpt lat="45.7017688919" lon="7.2420905717"><ele>647.10</ele><time>2014-09-04T12:46:51Z</time></trkpt><trkpt lat="45.7017545588" lon="7.2421084251"><ele>646.14</ele><time>2014-09-04T12:47:18Z</time></trkpt><trkpt lat="45.7017704844" lon="7.2421041504"><ele>647.10</ele><time>2014-09-04T12:47:46Z</time></trkpt><trkpt lat="45.7017859071" lon="7.2421060782"><ele>647.10</ele><time>2014-09-04T12:47:47Z</time></trkpt><trkpt lat="45.7017937023" lon="7.2421027254"><ele>647.10</ele><time>2014-09-04T12:47:48Z</time></trkpt><trkpt lat="45.7018013299" lon="7.2420800105"><ele>646.62</ele><time>2014-09-04T12:47:49Z</time></trkpt><trkpt lat="45.7017994020" lon="7.2420533560"><ele>647.10</ele><time>2014-09-04T12:47:50Z</time></trkpt><trkpt lat="45.7017967198" lon="7.2420350835"><ele>647.10</ele><time>2014-09-04T12:47:51Z</time></trkpt><trkpt lat="45.7015843224" lon="7.2415002342"><ele>646.14</ele><time>2014-09-04T12:48:06Z</time></trkpt><trkpt lat="45.7013290934" lon="7.2409230564"><ele>645.66</ele><time>2014-09-04T12:48:24Z</time></trkpt><trkpt lat="45.7012083102" lon="7.2406248283"><ele>644.22</ele><time>2014-09-04T12:48:34Z</time></trkpt><trkpt lat="45.7011910435" lon="7.2406314500"><ele>643.74</ele><time>2014-09-04T12:48:35Z</time></trkpt><trkpt lat="45.7011695020" lon="7.2406392451"><ele>643.74</ele><time>2014-09-04T12:48:36Z</time></trkpt><trkpt lat="45.7011446916" lon="7.2406385746"><ele>643.74</ele><time>2014-09-04T12:48:37Z</time></trkpt><trkpt lat="45.7011135109" lon="7.2406192962"><ele>644.22</ele><time>2014-09-04T12:48:38Z</time></trkpt><trkpt lat="45.7010733616" lon="7.2405714355"><ele>644.22</ele><time>2014-09-04T12:48:40Z</time></trkpt><trkpt lat="45.7010542508" lon="7.2405463737"><ele>644.22</ele><time>2014-09-04T12:48:41Z</time></trkpt><trkpt lat="45.7008379139" lon="7.2401458863"><ele>647.59</ele><time>2014-09-04T12:48:54Z</time></trkpt><trkpt lat="45.7005494088" lon="7.2396078520"><ele>649.51</ele><time>2014-09-04T12:49:11Z</time></trkpt><trkpt lat="45.7003147993" lon="7.2391715739"><ele>652.39</ele><time>2014-09-04T12:49:27Z</time></trkpt><trkpt lat="45.7001413777" lon="7.2388657182"><ele>654.31</ele><time>2014-09-04T12:49:42Z</time></trkpt><trkpt lat="45.7001108676" lon="7.2388360463"><ele>654.31</ele><time>2014-09-04T12:49:44Z</time></trkpt><trkpt lat="45.7000914216" lon="7.2388285026"><ele>654.80</ele><time>2014-09-04T12:49:45Z</time></trkpt><trkpt lat="45.7000708859" lon="7.2388295084"><ele>654.80</ele><time>2014-09-04T12:49:46Z</time></trkpt><trkpt lat="45.7000558823" lon="7.2388319392"><ele>655.28</ele><time>2014-09-04T12:49:47Z</time></trkpt><trkpt lat="45.7000418007" lon="7.2388349567"><ele>655.28</ele><time>2014-09-04T12:49:48Z</time></trkpt><trkpt lat="45.7000310719" lon="7.2388659697"><ele>655.28</ele><time>2014-09-04T12:49:51Z</time></trkpt><trkpt lat="45.7000511046" lon="7.2388662212"><ele>655.28</ele><time>2014-09-04T12:49:52Z</time></trkpt><trkpt lat="45.7000727300" lon="7.2388444282"><ele>654.80</ele><time>2014-09-04T12:49:54Z</time></trkpt><trkpt lat="45.7000647672" lon="7.2388117388"><ele>655.28</ele><time>2014-09-04T12:49:55Z</time></trkpt><trkpt lat="45.7000324130" lon="7.2388039436"><ele>656.72</ele><time>2014-09-04T12:50:08Z</time></trkpt><trkpt lat="45.7000185829" lon="7.2387409117"><ele>658.64</ele><time>2014-09-04T12:50:20Z</time></trkpt><trkpt lat="45.7000268809" lon="7.2387157660"><ele>658.64</ele><time>2014-09-04T12:50:21Z</time></trkpt><trkpt lat="45.7000340056" lon="7.2386855911"><ele>658.64</ele><time>2014-09-04T12:50:23Z</time></trkpt><trkpt lat="45.7000512723" lon="7.2386573441"><ele>658.64</ele><time>2014-09-04T12:50:24Z</time></trkpt><trkpt lat="45.7000712212" lon="7.2386418376"><ele>658.64</ele><time>2014-09-04T12:50:25Z</time></trkpt><trkpt lat="45.7000998035" lon="7.2386244871"><ele>658.64</ele><time>2014-09-04T12:50:26Z</time></trkpt><trkpt lat="45.7001258712" lon="7.2385933064"><ele>658.16</ele><time>2014-09-04T12:50:27Z</time></trkpt><trkpt lat="45.7001491729" lon="7.2385509778"><ele>657.68</ele><time>2014-09-04T12:50:28Z</time></trkpt><trkpt lat="45.7001685351" lon="7.2384980880"><ele>657.68</ele><time>2014-09-04T12:50:29Z</time></trkpt><trkpt lat="45.7001858018" lon="7.2384369839"><ele>657.20</ele><time>2014-09-04T12:50:30Z</time></trkpt><trkpt lat="45.7004850358" lon="7.2374307364"><ele>653.35</ele><time>2014-09-04T12:50:43Z</time></trkpt><trkpt lat="45.7006778196" lon="7.2366831545"><ele>652.87</ele><time>2014-09-04T12:50:57Z</time></trkpt><trkpt lat="45.7007919811" lon="7.2362025362"><ele>651.91</ele><time>2014-09-04T12:51:07Z</time></trkpt><trkpt lat="45.7007939927" lon="7.2361395042"><ele>651.43</ele><time>2014-09-04T12:51:08Z</time></trkpt><trkpt lat="45.7007897180" lon="7.2360737901"><ele>651.43</ele><time>2014-09-04T12:51:09Z</time></trkpt><trkpt lat="45.7007789891" lon="7.2360044718"><ele>650.95</ele><time>2014-09-04T12:51:10Z</time></trkpt><trkpt lat="45.7007639017" lon="7.2359342314"><ele>650.95</ele><time>2014-09-04T12:51:11Z</time></trkpt><trkpt lat="45.7005086727" lon="7.2349424008"><ele>649.03</ele><time>2014-09-04T12:51:24Z</time></trkpt><trkpt lat="45.7002818584" lon="7.2342704237"><ele>649.51</ele><time>2014-09-04T12:51:38Z</time></trkpt><trkpt lat="45.7004007138" lon="7.2336557787"><ele>647.59</ele><time>2014-09-04T12:51:55Z</time></trkpt><trkpt lat="45.7003742270" lon="7.2335795034"><ele>646.62</ele><time>2014-09-04T12:51:59Z</time></trkpt><trkpt lat="45.7003318146" lon="7.2335733846"><ele>645.18</ele><time>2014-09-04T12:52:10Z</time></trkpt><trkpt lat="45.7003650069" lon="7.2335821856"><ele>639.89</ele><time>2014-09-04T12:53:01Z</time></trkpt><trkpt lat="45.7003791723" lon="7.2335682716"><ele>642.78</ele><time>2014-09-04T12:53:29Z</time></trkpt><trkpt lat="45.7003974449" lon="7.2335641645"><ele>642.78</ele><time>2014-09-04T12:53:30Z</time></trkpt><trkpt lat="45.7004144602" lon="7.2335570399"><ele>642.78</ele><time>2014-09-04T12:53:31Z</time></trkpt><trkpt lat="45.7004266139" lon="7.2335523460"><ele>643.26</ele><time>2014-09-04T12:53:32Z</time></trkpt><trkpt lat="45.7004479039" lon="7.2335455567"><ele>643.26</ele><time>2014-09-04T12:53:33Z</time></trkpt><trkpt lat="45.7004725467" lon="7.2335334867"><ele>643.74</ele><time>2014-09-04T12:53:34Z</time></trkpt><trkpt lat="45.7004981115" lon="7.2335186508"><ele>644.22</ele><time>2014-09-04T12:53:35Z</time></trkpt><trkpt lat="45.7005239278" lon="7.2334996238"><ele>644.22</ele><time>2014-09-04T12:53:36Z</time></trkpt><trkpt lat="45.7005515043" lon="7.2334810998"><ele>644.22</ele><time>2014-09-04T12:53:37Z</time></trkpt><trkpt lat="45.7005805057" lon="7.2334678564"><ele>644.70</ele><time>2014-09-04T12:53:38Z</time></trkpt><trkpt lat="45.7006116025" lon="7.2334567085"><ele>644.70</ele><time>2014-09-04T12:53:39Z</time></trkpt><trkpt lat="45.7009566016" lon="7.2334428784"><ele>647.10</ele><time>2014-09-04T12:53:49Z</time></trkpt><trkpt lat="45.7009947393" lon="7.2334584687"><ele>647.10</ele><time>2014-09-04T12:53:50Z</time></trkpt><trkpt lat="45.7014413271" lon="7.2335758153"><ele>650.95</ele><time>2014-09-04T12:54:03Z</time></trkpt><trkpt lat="45.7017943729" lon="7.2333677765"><ele>653.35</ele><time>2014-09-04T12:54:17Z</time></trkpt><trkpt lat="45.7021910883" lon="7.2332909144"><ele>658.64</ele><time>2014-09-04T12:54:32Z</time></trkpt><trkpt lat="45.7025230117" lon="7.2333479952"><ele>662.49</ele><time>2014-09-04T12:54:48Z</time></trkpt><trkpt lat="45.7026706170" lon="7.2333729733"><ele>664.89</ele><time>2014-09-04T12:54:57Z</time></trkpt><trkpt lat="45.7028589584" lon="7.2331874818"><ele>665.85</ele><time>2014-09-04T12:55:10Z</time></trkpt><trkpt lat="45.7030355651" lon="7.2328302450"><ele>665.85</ele><time>2014-09-04T12:55:24Z</time></trkpt><trkpt lat="45.7030840125" lon="7.2327710688"><ele>665.85</ele><time>2014-09-04T12:55:33Z</time></trkpt><trkpt lat="45.7031683344" lon="7.2326047719"><ele>665.85</ele><time>2014-09-04T12:55:46Z</time></trkpt><trkpt lat="45.7033847552" lon="7.2321363073"><ele>665.85</ele><time>2014-09-04T12:56:00Z</time></trkpt><trkpt lat="45.7035915367" lon="7.2314346582"><ele>663.45</ele><time>2014-09-04T12:56:15Z</time></trkpt><trkpt lat="45.7037211210" lon="7.2311598994"><ele>661.52</ele><time>2014-09-04T12:56:26Z</time></trkpt><trkpt lat="45.7038739230" lon="7.2310197540"><ele>660.08</ele><time>2014-09-04T12:56:39Z</time></trkpt><trkpt lat="45.7038533874" lon="7.2310073487"><ele>663.93</ele><time>2014-09-04T12:57:10Z</time></trkpt><trkpt lat="45.7038740907" lon="7.2309780959"><ele>662.01</ele><time>2014-09-04T12:57:45Z</time></trkpt><trkpt lat="45.7040422317" lon="7.2308001481"><ele>660.56</ele><time>2014-09-04T12:57:52Z</time></trkpt><trkpt lat="45.7040697243" lon="7.2307494376"><ele>660.08</ele><time>2014-09-04T12:57:53Z</time></trkpt><trkpt lat="45.7040949538" lon="7.2306949552"><ele>660.08</ele><time>2014-09-04T12:57:54Z</time></trkpt><trkpt lat="45.7041169982" lon="7.2306356113"><ele>660.08</ele><time>2014-09-04T12:57:55Z</time></trkpt><trkpt lat="45.7041369472" lon="7.2305715736"><ele>659.60</ele><time>2014-09-04T12:57:56Z</time></trkpt><trkpt lat="45.7041535433" lon="7.2305073682"><ele>659.12</ele><time>2014-09-04T12:57:57Z</time></trkpt><trkpt lat="45.7041640207" lon="7.2304416541"><ele>659.12</ele><time>2014-09-04T12:57:58Z</time></trkpt><trkpt lat="45.7041705586" lon="7.2303735930"><ele>658.64</ele><time>2014-09-04T12:57:59Z</time></trkpt><trkpt lat="45.7041843887" lon="7.2296628077"><ele>655.28</ele><time>2014-09-04T12:58:09Z</time></trkpt><trkpt lat="45.7041769288" lon="7.2295963392"><ele>654.80</ele><time>2014-09-04T12:58:10Z</time></trkpt><trkpt lat="45.7041638531" lon="7.2295333911"><ele>654.80</ele><time>2014-09-04T12:58:11Z</time></trkpt><trkpt lat="45.7041438203" lon="7.2294730414"><ele>654.80</ele><time>2014-09-04T12:58:12Z</time></trkpt><trkpt lat="45.7041200157" lon="7.2294155415"><ele>654.80</ele><time>2014-09-04T12:58:13Z</time></trkpt><trkpt lat="45.7040989771" lon="7.2293572873"><ele>654.80</ele><time>2014-09-04T12:58:14Z</time></trkpt><trkpt lat="45.7039608434" lon="7.2288948577"><ele>654.80</ele><time>2014-09-04T12:58:22Z</time></trkpt><trkpt lat="45.7039527129" lon="7.2288336698"><ele>654.80</ele><time>2014-09-04T12:58:23Z</time></trkpt><trkpt lat="45.7039104681" lon="7.2277425136"><ele>653.35</ele><time>2014-09-04T12:58:40Z</time></trkpt><trkpt lat="45.7040465903" lon="7.2265910078"><ele>655.28</ele><time>2014-09-04T12:58:59Z</time></trkpt><trkpt lat="45.7040491886" lon="7.2261688951"><ele>655.28</ele><time>2014-09-04T12:59:12Z</time></trkpt><trkpt lat="45.7040629350" lon="7.2261947952"><ele>653.35</ele><time>2014-09-04T12:59:24Z</time></trkpt><trkpt lat="45.7040565647" lon="7.2262236290"><ele>651.43</ele><time>2014-09-04T12:59:56Z</time></trkpt><trkpt lat="45.7040455006" lon="7.2262013331"><ele>655.28</ele><time>2014-09-04T13:00:13Z</time></trkpt><trkpt lat="45.7040467579" lon="7.2261377983"><ele>658.16</ele><time>2014-09-04T13:00:25Z</time></trkpt><trkpt lat="45.7040491886" lon="7.2261139099"><ele>657.68</ele><time>2014-09-04T13:00:26Z</time></trkpt><trkpt lat="45.7040517870" lon="7.2260845732"><ele>657.68</ele><time>2014-09-04T13:00:27Z</time></trkpt><trkpt lat="45.7040494401" lon="7.2260533925"><ele>657.68</ele><time>2014-09-04T13:00:28Z</time></trkpt><trkpt lat="45.7040460873" lon="7.2260167636"><ele>657.68</ele><time>2014-09-04T13:00:29Z</time></trkpt><trkpt lat="45.7040562294" lon="7.2254045494"><ele>659.12</ele><time>2014-09-04T13:00:43Z</time></trkpt><trkpt lat="45.7041707262" lon="7.2248428781"><ele>658.16</ele><time>2014-09-04T13:00:54Z</time></trkpt><trkpt lat="45.7041775156" lon="7.2247712966"><ele>657.68</ele><time>2014-09-04T13:00:55Z</time></trkpt><trkpt lat="45.7041764259" lon="7.2246998828"><ele>657.68</ele><time>2014-09-04T13:00:56Z</time></trkpt><trkpt lat="45.7041656971" lon="7.2246291395"><ele>657.20</ele><time>2014-09-04T13:00:57Z</time></trkpt><trkpt lat="45.7041489333" lon="7.2245536186"><ele>657.20</ele><time>2014-09-04T13:00:58Z</time></trkpt><trkpt lat="45.7041206025" lon="7.2244868986"><ele>657.20</ele><time>2014-09-04T13:00:59Z</time></trkpt><trkpt lat="45.7040849794" lon="7.2244304046"><ele>656.72</ele><time>2014-09-04T13:01:00Z</time></trkpt><trkpt lat="45.7040436566" lon="7.2243749164"><ele>656.24</ele><time>2014-09-04T13:01:01Z</time></trkpt><trkpt lat="45.7035718393" lon="7.2237858362"><ele>653.35</ele><time>2014-09-04T13:01:15Z</time></trkpt><trkpt lat="45.7030168734" lon="7.2234862670"><ele>651.91</ele><time>2014-09-04T13:01:32Z</time></trkpt><trkpt lat="45.7023609057" lon="7.2231580317"><ele>650.47</ele><time>2014-09-04T13:01:49Z</time></trkpt><trkpt lat="45.7020061836" lon="7.2229230870"><ele>649.51</ele><time>2014-09-04T13:01:58Z</time></trkpt><trkpt lat="45.7019722369" lon="7.2228751425"><ele>649.51</ele><time>2014-09-04T13:01:59Z</time></trkpt><trkpt lat="45.7019421458" lon="7.2228231747"><ele>649.51</ele><time>2014-09-04T13:02:00Z</time></trkpt><trkpt lat="45.7019178383" lon="7.2227658425"><ele>649.51</ele><time>2014-09-04T13:02:01Z</time></trkpt><trkpt lat="45.7018998172" lon="7.2227026429"><ele>649.03</ele><time>2014-09-04T13:02:02Z</time></trkpt><trkpt lat="45.7018872444" lon="7.2226367611"><ele>648.55</ele><time>2014-09-04T13:02:03Z</time></trkpt><trkpt lat="45.7018802874" lon="7.2225696221"><ele>648.55</ele><time>2014-09-04T13:02:04Z</time></trkpt><trkpt lat="45.7018780243" lon="7.2225072607"><ele>648.07</ele><time>2014-09-04T13:02:05Z</time></trkpt><trkpt lat="45.7018829696" lon="7.2224423010"><ele>648.07</ele><time>2014-09-04T13:02:06Z</time></trkpt><trkpt lat="45.7018929441" lon="7.2223811131"><ele>647.59</ele><time>2014-09-04T13:02:07Z</time></trkpt><trkpt lat="45.7019833010" lon="7.2218272369"><ele>646.62</ele><time>2014-09-04T13:02:21Z</time></trkpt><trkpt lat="45.7020113803" lon="7.2218228783"><ele>648.07</ele><time>2014-09-04T13:02:50Z</time></trkpt><trkpt lat="45.7020330057" lon="7.2217941284"><ele>649.03</ele><time>2014-09-04T13:03:06Z</time></trkpt><trkpt lat="45.7020221092" lon="7.2217812203"><ele>649.03</ele><time>2014-09-04T13:03:07Z</time></trkpt><trkpt lat="45.7020178344" lon="7.2217627801"><ele>648.55</ele><time>2014-09-04T13:03:08Z</time></trkpt><trkpt lat="45.7020210195" lon="7.2217336949"><ele>648.55</ele><time>2014-09-04T13:03:09Z</time></trkpt><trkpt lat="45.7020216901" lon="7.2216968983"><ele>648.07</ele><time>2014-09-04T13:03:10Z</time></trkpt><trkpt lat="45.7020838838" lon="7.2210861929"><ele>648.55</ele><time>2014-09-04T13:03:22Z</time></trkpt><trkpt lat="45.7022304833" lon="7.2199754231"><ele>649.99</ele><time>2014-09-04T13:03:42Z</time></trkpt><trkpt lat="45.7023920026" lon="7.2193138395"><ele>650.47</ele><time>2014-09-04T13:03:57Z</time></trkpt><trkpt lat="45.7024215907" lon="7.2193163540"><ele>650.95</ele><time>2014-09-04T13:03:58Z</time></trkpt><trkpt lat="45.7024459820" lon="7.2193180304"><ele>650.95</ele><time>2014-09-04T13:03:59Z</time></trkpt><trkpt lat="45.7028940786" lon="7.2194712516"><ele>652.39</ele><time>2014-09-04T13:04:14Z</time></trkpt><trkpt lat="45.7029255107" lon="7.2194773704"><ele>652.39</ele><time>2014-09-04T13:04:15Z</time></trkpt><trkpt lat="45.7029659115" lon="7.2194537334"><ele>652.39</ele><time>2014-09-04T13:04:17Z</time></trkpt><trkpt lat="45.7029810827" lon="7.2194348741"><ele>652.87</ele><time>2014-09-04T13:04:18Z</time></trkpt><trkpt lat="45.7032027002" lon="7.2190202214"><ele>654.31</ele><time>2014-09-04T13:04:30Z</time></trkpt><trkpt lat="45.7034011837" lon="7.2185451351"><ele>656.72</ele><time>2014-09-04T13:04:45Z</time></trkpt><trkpt lat="45.7034933008" lon="7.2184540238"><ele>658.16</ele><time>2014-09-04T13:04:50Z</time></trkpt><trkpt lat="45.7035109028" lon="7.2184457257"><ele>658.16</ele><time>2014-09-04T13:04:51Z</time></trkpt><trkpt lat="45.7035300136" lon="7.2184367571"><ele>658.16</ele><time>2014-09-04T13:04:52Z</time></trkpt><trkpt lat="45.7035505492" lon="7.2184264474"><ele>658.16</ele><time>2014-09-04T13:04:53Z</time></trkpt><trkpt lat="45.7035702467" lon="7.2184168082"><ele>658.64</ele><time>2014-09-04T13:04:54Z</time></trkpt><trkpt lat="45.7035906147" lon="7.2184066661"><ele>658.64</ele><time>2014-09-04T13:04:55Z</time></trkpt><trkpt lat="45.7036116533" lon="7.2183917463"><ele>659.12</ele><time>2014-09-04T13:04:56Z</time></trkpt><trkpt lat="45.7038870826" lon="7.2183239367"><ele>660.56</ele><time>2014-09-04T13:05:09Z</time></trkpt><trkpt lat="45.7041311637" lon="7.2182461526"><ele>662.97</ele><time>2014-09-04T13:05:23Z</time></trkpt><trkpt lat="45.7042594906" lon="7.2182226833"><ele>664.89</ele><time>2014-09-04T13:05:31Z</time></trkpt><trkpt lat="45.7042739913" lon="7.2182158940"><ele>664.89</ele><time>2014-09-04T13:05:32Z</time></trkpt><trkpt lat="45.7042884082" lon="7.2182087693"><ele>664.89</ele><time>2014-09-04T13:05:33Z</time></trkpt><trkpt lat="45.7043584809" lon="7.2181754094"><ele>666.33</ele><time>2014-09-04T13:05:38Z</time></trkpt><trkpt lat="45.7043738198" lon="7.2181735653"><ele>666.81</ele><time>2014-09-04T13:05:39Z</time></trkpt><trkpt lat="45.7046143804" lon="7.2180993017"><ele>669.70</ele><time>2014-09-04T13:05:54Z</time></trkpt><trkpt lat="45.7048857026" lon="7.2180381138"><ele>671.14</ele><time>2014-09-04T13:06:11Z</time></trkpt><trkpt lat="45.7049960084" lon="7.2179970425"><ele>672.58</ele><time>2014-09-04T13:06:19Z</time></trkpt><trkpt lat="45.7050065696" lon="7.2180014849"><ele>673.06</ele><time>2014-09-04T13:06:20Z</time></trkpt><trkpt lat="45.7050172985" lon="7.2180033289"><ele>673.06</ele><time>2014-09-04T13:06:21Z</time></trkpt><trkpt lat="45.7050318830" lon="7.2180003952"><ele>673.54</ele><time>2014-09-04T13:06:22Z</time></trkpt><trkpt lat="45.7050461322" lon="7.2179945279"><ele>673.54</ele><time>2014-09-04T13:06:23Z</time></trkpt><trkpt lat="45.7051235810" lon="7.2179657780"><ele>675.46</ele><time>2014-09-04T13:06:29Z</time></trkpt><trkpt lat="45.7051376626" lon="7.2179645207"><ele>675.94</ele><time>2014-09-04T13:06:30Z</time></trkpt><trkpt lat="45.7051524147" lon="7.2179659456"><ele>675.94</ele><time>2014-09-04T13:06:31Z</time></trkpt><trkpt lat="45.7051667478" lon="7.2179676220"><ele>676.42</ele><time>2014-09-04T13:06:32Z</time></trkpt><trkpt lat="45.7051828410" lon="7.2179651912"><ele>676.42</ele><time>2014-09-04T13:06:33Z</time></trkpt><trkpt lat="45.7054055482" lon="7.2179071046"><ele>677.39</ele><time>2014-09-04T13:06:48Z</time></trkpt><trkpt lat="45.7054374833" lon="7.2179006506"><ele>677.39</ele><time>2014-09-04T13:06:50Z</time></trkpt><trkpt lat="45.7054529898" lon="7.2178928554"><ele>677.39</ele><time>2014-09-04T13:06:51Z</time></trkpt><trkpt lat="45.7054698374" lon="7.2178872395"><ele>677.39</ele><time>2014-09-04T13:06:52Z</time></trkpt><trkpt lat="45.7054844219" lon="7.2178788576"><ele>677.39</ele><time>2014-09-04T13:06:53Z</time></trkpt><trkpt lat="45.7054990903" lon="7.2178742476"><ele>677.39</ele><time>2014-09-04T13:06:54Z</time></trkpt><trkpt lat="45.7055143453" lon="7.2178724036"><ele>677.87</ele><time>2014-09-04T13:06:55Z</time></trkpt><trkpt lat="45.7055293489" lon="7.2178644408"><ele>677.87</ele><time>2014-09-04T13:06:56Z</time></trkpt><trkpt lat="45.7055434305" lon="7.2178557236"><ele>677.87</ele><time>2014-09-04T13:06:57Z</time></trkpt><trkpt lat="45.7055572607" lon="7.2178443242"><ele>678.35</ele><time>2014-09-04T13:06:58Z</time></trkpt><trkpt lat="45.7055695821" lon="7.2178331763"><ele>678.35</ele><time>2014-09-04T13:06:59Z</time></trkpt><trkpt lat="45.7056284230" lon="7.2177821305"><ele>677.87</ele><time>2014-09-04T13:07:04Z</time></trkpt><trkpt lat="45.7056378108" lon="7.2177603375"><ele>677.87</ele><time>2014-09-04T13:07:05Z</time></trkpt><trkpt lat="45.7056522276" lon="7.2177362815"><ele>677.39</ele><time>2014-09-04T13:07:06Z</time></trkpt><trkpt lat="45.7057014294" lon="7.2175662965"><ele>676.91</ele><time>2014-09-04T13:07:12Z</time></trkpt><trkpt lat="45.7057081349" lon="7.2175372951"><ele>676.91</ele><time>2014-09-04T13:07:13Z</time></trkpt><trkpt lat="45.7057122421" lon="7.2175030131"><ele>676.91</ele><time>2014-09-04T13:07:14Z</time></trkpt><trkpt lat="45.7057171036" lon="7.2174702398"><ele>676.91</ele><time>2014-09-04T13:07:15Z</time></trkpt><trkpt lat="45.7057243958" lon="7.2174396459"><ele>676.91</ele><time>2014-09-04T13:07:16Z</time></trkpt><trkpt lat="45.7059062831" lon="7.2171028610"><ele>678.35</ele><time>2014-09-04T13:07:30Z</time></trkpt><trkpt lat="45.7059726678" lon="7.2171779629"><ele>679.31</ele><time>2014-09-04T13:07:36Z</time></trkpt><trkpt lat="45.7059757691" lon="7.2172059584"><ele>678.83</ele><time>2014-09-04T13:07:37Z</time></trkpt><trkpt lat="45.7059759367" lon="7.2172321938"><ele>678.83</ele><time>2014-09-04T13:07:38Z</time></trkpt><trkpt lat="45.7059755176" lon="7.2172596864"><ele>678.83</ele><time>2014-09-04T13:07:39Z</time></trkpt><trkpt lat="45.7059780322" lon="7.2172881011"><ele>679.31</ele><time>2014-09-04T13:07:40Z</time></trkpt><trkpt lat="45.7059769426" lon="7.2173163481"><ele>678.83</ele><time>2014-09-04T13:07:41Z</time></trkpt><trkpt lat="45.7059787866" lon="7.2173459362"><ele>678.83</ele><time>2014-09-04T13:07:42Z</time></trkpt><trkpt lat="45.7059798762" lon="7.2173742671"><ele>678.83</ele><time>2014-09-04T13:07:43Z</time></trkpt><trkpt lat="45.7059825584" lon="7.2174037714"><ele>678.83</ele><time>2014-09-04T13:07:44Z</time></trkpt><trkpt lat="45.7059793733" lon="7.2176053561"><ele>679.31</ele><time>2014-09-04T13:07:51Z</time></trkpt><trkpt lat="45.7059794571" lon="7.2176282387"><ele>679.31</ele><time>2014-09-04T13:07:52Z</time></trkpt><trkpt lat="45.7059784513" lon="7.2180399578"><ele>678.35</ele><time>2014-09-04T13:08:05Z</time></trkpt><trkpt lat="45.7059765235" lon="7.2184916586"><ele>678.83</ele><time>2014-09-04T13:08:18Z</time></trkpt><trkpt lat="45.7059679739" lon="7.2192001808"><ele>680.27</ele><time>2014-09-04T13:08:37Z</time></trkpt><trkpt lat="45.7059611008" lon="7.2197190206"><ele>681.23</ele><time>2014-09-04T13:08:50Z</time></trkpt><trkpt lat="45.7059628610" lon="7.2203585599"><ele>682.67</ele><time>2014-09-04T13:09:04Z</time></trkpt><trkpt lat="45.7059621066" lon="7.2211391665"><ele>685.08</ele><time>2014-09-04T13:09:21Z</time></trkpt><trkpt lat="45.7059561554" lon="7.2219221201"><ele>687.00</ele><time>2014-09-04T13:09:40Z</time></trkpt><trkpt lat="45.7059442531" lon="7.2225101106"><ele>688.44</ele><time>2014-09-04T13:09:54Z</time></trkpt><trkpt lat="45.7059911918" lon="7.2231793217"><ele>688.92</ele><time>2014-09-04T13:10:11Z</time></trkpt><trkpt lat="45.7061512861" lon="7.2236924618"><ele>688.44</ele><time>2014-09-04T13:10:29Z</time></trkpt><trkpt lat="45.7061481010" lon="7.2237241454"><ele>688.92</ele><time>2014-09-04T13:10:35Z</time></trkpt><trkpt lat="45.7061408926" lon="7.2237372212"><ele>688.92</ele><time>2014-09-04T13:10:36Z</time></trkpt><trkpt lat="45.7061136514" lon="7.2237668931"><ele>688.44</ele><time>2014-09-04T13:10:51Z</time></trkpt><trkpt lat="45.7061249670" lon="7.2237647977"><ele>688.92</ele><time>2014-09-04T13:11:33Z</time></trkpt><trkpt lat="45.7061103825" lon="7.2237637080"><ele>688.44</ele><time>2014-09-04T13:12:03Z</time></trkpt><trkpt lat="45.7061002403" lon="7.2237744369"><ele>686.04</ele><time>2014-09-04T13:12:40Z</time></trkpt><trkpt lat="45.7061084546" lon="7.2237766162"><ele>686.52</ele><time>2014-09-04T13:13:12Z</time></trkpt><trkpt lat="45.7061060239" lon="7.2237754427"><ele>686.52</ele><time>2014-09-04T13:13:50Z</time></trkpt><trkpt lat="45.7061014976" lon="7.2237718385"><ele>687.48</ele><time>2014-09-04T13:14:23Z</time></trkpt><trkpt lat="45.7060968038" lon="7.2237650491"><ele>687.96</ele><time>2014-09-04T13:14:53Z</time></trkpt><trkpt lat="45.7061036769" lon="7.2237760294"><ele>687.96</ele><time>2014-09-04T13:15:25Z</time></trkpt><trkpt lat="45.7061086223" lon="7.2237715870"><ele>686.52</ele><time>2014-09-04T13:15:43Z</time></trkpt><trkpt lat="45.7061592489" lon="7.2237265762"><ele>688.44</ele><time>2014-09-04T13:15:51Z</time></trkpt><trkpt lat="45.7061886694" lon="7.2237495426"><ele>688.44</ele><time>2014-09-04T13:15:53Z</time></trkpt><trkpt lat="45.7062019967" lon="7.2237752751"><ele>688.44</ele><time>2014-09-04T13:15:54Z</time></trkpt><trkpt lat="45.7062164135" lon="7.2237998340"><ele>688.44</ele><time>2014-09-04T13:15:55Z</time></trkpt><trkpt lat="45.7062345184" lon="7.2238322720"><ele>688.44</ele><time>2014-09-04T13:15:56Z</time></trkpt><trkpt lat="45.7062533777" lon="7.2238703258"><ele>688.44</ele><time>2014-09-04T13:15:57Z</time></trkpt><trkpt lat="45.7065951079" lon="7.2242946178"><ele>687.48</ele><time>2014-09-04T13:16:11Z</time></trkpt><trkpt lat="45.7065840438" lon="7.2243375331"><ele>687.00</ele><time>2014-09-04T13:16:13Z</time></trkpt><trkpt lat="45.7065609097" lon="7.2243744135"><ele>686.04</ele><time>2014-09-04T13:16:14Z</time></trkpt><trkpt lat="45.7065437268" lon="7.2243940271"><ele>686.04</ele><time>2014-09-04T13:16:15Z</time></trkpt><trkpt lat="45.7065301482" lon="7.2244066838"><ele>685.56</ele><time>2014-09-04T13:16:16Z</time></trkpt><trkpt lat="45.7065181620" lon="7.2244203463"><ele>685.08</ele><time>2014-09-04T13:16:17Z</time></trkpt><trkpt lat="45.7065032423" lon="7.2244342603"><ele>685.08</ele><time>2014-09-04T13:16:18Z</time></trkpt><trkpt lat="45.7064849697" lon="7.2244452406"><ele>685.08</ele><time>2014-09-04T13:16:19Z</time></trkpt><trkpt lat="45.7064661942" lon="7.2244615015"><ele>684.60</ele><time>2014-09-04T13:16:20Z</time></trkpt><trkpt lat="45.7064479217" lon="7.2244819533"><ele>684.60</ele><time>2014-09-04T13:16:21Z</time></trkpt><trkpt lat="45.7063157391" lon="7.2245979588"><ele>684.60</ele><time>2014-09-04T13:16:34Z</time></trkpt><trkpt lat="45.7063078601" lon="7.2246169019"><ele>685.56</ele><time>2014-09-04T13:16:50Z</time></trkpt><trkpt lat="45.7063110452" lon="7.2246186621"><ele>684.12</ele><time>2014-09-04T13:17:27Z</time></trkpt><trkpt lat="45.7063537091" lon="7.2245972045"><ele>685.08</ele><time>2014-09-04T13:17:33Z</time></trkpt><trkpt lat="45.7065794338" lon="7.2244013194"><ele>687.48</ele><time>2014-09-04T13:17:45Z</time></trkpt><trkpt lat="45.7066181581" lon="7.2243513633"><ele>688.44</ele><time>2014-09-04T13:17:48Z</time></trkpt><trkpt lat="45.7066553738" lon="7.2243331745"><ele>689.40</ele><time>2014-09-04T13:17:52Z</time></trkpt><trkpt lat="45.7066728920" lon="7.2243496031"><ele>689.88</ele><time>2014-09-04T13:17:53Z</time></trkpt><trkpt lat="45.7066925056" lon="7.2243733238"><ele>689.40</ele><time>2014-09-04T13:17:55Z</time></trkpt><trkpt lat="45.7067164779" lon="7.2243971284"><ele>689.40</ele><time>2014-09-04T13:17:56Z</time></trkpt><trkpt lat="45.7070880476" lon="7.2247210052"><ele>689.40</ele><time>2014-09-04T13:18:12Z</time></trkpt><trkpt lat="45.7076011039" lon="7.2251711134"><ele>689.40</ele><time>2014-09-04T13:18:29Z</time></trkpt><trkpt lat="45.7082270645" lon="7.2257445194"><ele>687.48</ele><time>2014-09-04T13:18:54Z</time></trkpt><trkpt lat="45.7083246298" lon="7.2258161847"><ele>687.00</ele><time>2014-09-04T13:19:07Z</time></trkpt><trkpt lat="45.7083312515" lon="7.2258051205"><ele>684.12</ele><time>2014-09-04T13:19:33Z</time></trkpt><trkpt lat="45.7082984783" lon="7.2258119937"><ele>683.15</ele><time>2014-09-04T13:20:06Z</time></trkpt><trkpt lat="45.7083154097" lon="7.2258054558"><ele>685.08</ele><time>2014-09-04T13:20:15Z</time></trkpt><trkpt lat="45.7082746737" lon="7.2257956490"><ele>685.56</ele><time>2014-09-04T13:20:21Z</time></trkpt><trkpt lat="45.7082981430" lon="7.2258648835"><ele>685.56</ele><time>2014-09-04T13:20:24Z</time></trkpt><trkpt lat="45.7086003106" lon="7.2261288296"><ele>685.08</ele><time>2014-09-04T13:20:38Z</time></trkpt><trkpt lat="45.7089087646" lon="7.2266692109"><ele>686.04</ele><time>2014-09-04T13:20:53Z</time></trkpt><trkpt lat="45.7089987863" lon="7.2268880624"><ele>685.56</ele><time>2014-09-04T13:21:00Z</time></trkpt><trkpt lat="45.7090236805" lon="7.2269089334"><ele>685.56</ele><time>2014-09-04T13:21:01Z</time></trkpt><trkpt lat="45.7090655901" lon="7.2269122023"><ele>685.56</ele><time>2014-09-04T13:21:02Z</time></trkpt><trkpt lat="45.7091117743" lon="7.2268909123"><ele>686.04</ele><time>2014-09-04T13:21:04Z</time></trkpt><trkpt lat="45.7091513369" lon="7.2268541995"><ele>686.04</ele><time>2014-09-04T13:21:05Z</time></trkpt><trkpt lat="45.7091846969" lon="7.2268297244"><ele>686.04</ele><time>2014-09-04T13:21:06Z</time></trkpt><trkpt lat="45.7093240879" lon="7.2265237849"><ele>688.92</ele><time>2014-09-04T13:21:17Z</time></trkpt><trkpt lat="45.7090669312" lon="7.2262524627"><ele>689.40</ele><time>2014-09-04T13:21:27Z</time></trkpt><trkpt lat="45.7086894941" lon="7.2259194497"><ele>689.88</ele><time>2014-09-04T13:21:41Z</time></trkpt><trkpt lat="45.7086731493" lon="7.2258748580"><ele>689.88</ele><time>2014-09-04T13:21:42Z</time></trkpt><trkpt lat="45.7086586487" lon="7.2258264106"><ele>689.88</ele><time>2014-09-04T13:21:43Z</time></trkpt><trkpt lat="45.7086455729" lon="7.2257817350"><ele>689.88</ele><time>2014-09-04T13:21:44Z</time></trkpt><trkpt lat="45.7086320780" lon="7.2257361375"><ele>689.88</ele><time>2014-09-04T13:21:45Z</time></trkpt><trkpt lat="45.7084463350" lon="7.2252592072"><ele>692.77</ele><time>2014-09-04T13:21:59Z</time></trkpt><trkpt lat="45.7081428263" lon="7.2248185705"><ele>695.17</ele><time>2014-09-04T13:22:16Z</time></trkpt><trkpt lat="45.7080377173" lon="7.2244483419"><ele>696.61</ele><time>2014-09-04T13:22:29Z</time></trkpt><trkpt lat="45.7081199437" lon="7.2240421548"><ele>698.05</ele><time>2014-09-04T13:22:44Z</time></trkpt><trkpt lat="45.7083364483" lon="7.2236964852"><ele>699.02</ele><time>2014-09-04T13:23:01Z</time></trkpt><trkpt lat="45.7085475884" lon="7.2234571818"><ele>702.38</ele><time>2014-09-04T13:23:16Z</time></trkpt><trkpt lat="45.7087500952" lon="7.2231928166"><ele>706.71</ele><time>2014-09-04T13:23:32Z</time></trkpt><trkpt lat="45.7088205032" lon="7.2230985202"><ele>707.19</ele><time>2014-09-04T13:23:38Z</time></trkpt><trkpt lat="45.7088268735" lon="7.2230822593"><ele>707.67</ele><time>2014-09-04T13:23:39Z</time></trkpt><trkpt lat="45.7089588884" lon="7.2227992862"><ele>709.59</ele><time>2014-09-04T13:23:54Z</time></trkpt><trkpt lat="45.7089801785" lon="7.2224989627"><ele>711.99</ele><time>2014-09-04T13:24:07Z</time></trkpt><trkpt lat="45.7089919131" lon="7.2224735655"><ele>711.99</ele><time>2014-09-04T13:24:09Z</time></trkpt><trkpt lat="45.7090241835" lon="7.2224434745"><ele>712.47</ele><time>2014-09-04T13:24:11Z</time></trkpt><trkpt lat="45.7090375945" lon="7.2224369366"><ele>712.47</ele><time>2014-09-04T13:24:12Z</time></trkpt><trkpt lat="45.7090545259" lon="7.2224350087"><ele>712.95</ele><time>2014-09-04T13:24:13Z</time></trkpt><trkpt lat="45.7090682723" lon="7.2224332485"><ele>713.44</ele><time>2014-09-04T13:24:14Z</time></trkpt><trkpt lat="45.7090805098" lon="7.2224292252"><ele>713.44</ele><time>2014-09-04T13:24:15Z</time></trkpt><trkpt lat="45.7090942562" lon="7.2224267107"><ele>713.92</ele><time>2014-09-04T13:24:16Z</time></trkpt><trkpt lat="45.7091049850" lon="7.2224337514"><ele>713.92</ele><time>2014-09-04T13:24:17Z</time></trkpt><trkpt lat="45.7091168035" lon="7.2224452347"><ele>713.92</ele><time>2014-09-04T13:24:18Z</time></trkpt><trkpt lat="45.7091280352" lon="7.2224560473"><ele>713.92</ele><time>2014-09-04T13:24:19Z</time></trkpt><trkpt lat="45.7091390993" lon="7.2224713024"><ele>714.40</ele><time>2014-09-04T13:24:20Z</time></trkpt><trkpt lat="45.7091504149" lon="7.2224891558"><ele>713.92</ele><time>2014-09-04T13:24:21Z</time></trkpt><trkpt lat="45.7091608085" lon="7.2225047462"><ele>713.92</ele><time>2014-09-04T13:24:22Z</time></trkpt><trkpt lat="45.7091726270" lon="7.2225205041"><ele>714.40</ele><time>2014-09-04T13:24:23Z</time></trkpt><trkpt lat="45.7091836911" lon="7.2225366812"><ele>714.40</ele><time>2014-09-04T13:24:24Z</time></trkpt><trkpt lat="45.7092691865" lon="7.2228122782"><ele>714.40</ele><time>2014-09-04T13:24:37Z</time></trkpt><trkpt lat="45.7093675900" lon="7.2232844308"><ele>716.32</ele><time>2014-09-04T13:24:55Z</time></trkpt><trkpt lat="45.7094183005" lon="7.2237171046"><ele>717.28</ele><time>2014-09-04T13:25:11Z</time></trkpt><trkpt lat="45.7094883732" lon="7.2242638562"><ele>718.72</ele><time>2014-09-04T13:25:29Z</time></trkpt><trkpt lat="45.7095901296" lon="7.2248001304"><ele>720.16</ele><time>2014-09-04T13:25:46Z</time></trkpt><trkpt lat="45.7097843383" lon="7.2252405994"><ele>720.65</ele><time>2014-09-04T13:26:01Z</time></trkpt><trkpt lat="45.7098820712" lon="7.2254162841"><ele>721.13</ele><time>2014-09-04T13:26:12Z</time></trkpt><trkpt lat="45.7098896988" lon="7.2254135180"><ele>723.05</ele><time>2014-09-04T13:26:46Z</time></trkpt><trkpt lat="45.7100026868" lon="7.2255436890"><ele>722.57</ele><time>2014-09-04T13:27:02Z</time></trkpt><trkpt lat="45.7101783715" lon="7.2257877700"><ele>724.49</ele><time>2014-09-04T13:27:13Z</time></trkpt><trkpt lat="45.7101843227" lon="7.2258162685"><ele>724.97</ele><time>2014-09-04T13:27:14Z</time></trkpt><trkpt lat="45.7101906091" lon="7.2258465271"><ele>724.97</ele><time>2014-09-04T13:27:15Z</time></trkpt><trkpt lat="45.7101970632" lon="7.2258765344"><ele>724.97</ele><time>2014-09-04T13:27:16Z</time></trkpt><trkpt lat="45.7102030981" lon="7.2259066254"><ele>725.45</ele><time>2014-09-04T13:27:17Z</time></trkpt><trkpt lat="45.7102605980" lon="7.2263606731"><ele>729.78</ele><time>2014-09-04T13:27:33Z</time></trkpt><trkpt lat="45.7103899308" lon="7.2264623456"><ele>731.22</ele><time>2014-09-04T13:27:44Z</time></trkpt><trkpt lat="45.7105150726" lon="7.2265144810"><ele>730.74</ele><time>2014-09-04T13:27:57Z</time></trkpt><trkpt lat="45.7105258014" lon="7.2265091166"><ele>731.22</ele><time>2014-09-04T13:27:58Z</time></trkpt><trkpt lat="45.7105393801" lon="7.2265072726"><ele>731.22</ele><time>2014-09-04T13:27:59Z</time></trkpt><trkpt lat="45.7105573174" lon="7.2265071049"><ele>731.22</ele><time>2014-09-04T13:28:01Z</time></trkpt><trkpt lat="45.7105793618" lon="7.2264868207"><ele>731.22</ele><time>2014-09-04T13:28:11Z</time></trkpt><trkpt lat="45.7105575688" lon="7.2265029140"><ele>733.14</ele><time>2014-09-04T13:28:48Z</time></trkpt><trkpt lat="45.7105497736" lon="7.2264737450"><ele>736.51</ele><time>2014-09-04T13:29:34Z</time></trkpt><trkpt lat="45.7105484325" lon="7.2264566459"><ele>737.95</ele><time>2014-09-04T13:30:01Z</time></trkpt><trkpt lat="45.7105140667" lon="7.2264551371"><ele>737.47</ele><time>2014-09-04T13:30:03Z</time></trkpt><trkpt lat="45.7104957104" lon="7.2264677100"><ele>736.51</ele><time>2014-09-04T13:30:04Z</time></trkpt><trkpt lat="45.7104822155" lon="7.2264815401"><ele>736.03</ele><time>2014-09-04T13:30:05Z</time></trkpt><trkpt lat="45.7104683015" lon="7.2264983878"><ele>736.03</ele><time>2014-09-04T13:30:06Z</time></trkpt><trkpt lat="45.7104522083" lon="7.2265096195"><ele>736.03</ele><time>2014-09-04T13:30:07Z</time></trkpt><trkpt lat="45.7104345225" lon="7.2265105415"><ele>736.03</ele><time>2014-09-04T13:30:08Z</time></trkpt><trkpt lat="45.7103206962" lon="7.2264629323"><ele>736.03</ele><time>2014-09-04T13:30:14Z</time></trkpt><trkpt lat="45.7103065308" lon="7.2264533769"><ele>736.03</ele><time>2014-09-04T13:30:15Z</time></trkpt><trkpt lat="45.7102722488" lon="7.2264451627"><ele>736.51</ele><time>2014-09-04T13:30:17Z</time></trkpt><trkpt lat="45.7102595083" lon="7.2264624294"><ele>736.03</ele><time>2014-09-04T13:30:19Z</time></trkpt><trkpt lat="45.7102666330" lon="7.2264825460"><ele>735.07</ele><time>2014-09-04T13:30:28Z</time></trkpt><trkpt lat="45.7102668844" lon="7.2264776845"><ele>735.07</ele><time>2014-09-04T13:31:01Z</time></trkpt><trkpt lat="45.7102579996" lon="7.2264778521"><ele>736.99</ele><time>2014-09-04T13:31:33Z</time></trkpt><trkpt lat="45.7102595922" lon="7.2264719009"><ele>732.66</ele><time>2014-09-04T13:32:11Z</time></trkpt><trkpt lat="45.7102550659" lon="7.2264525387"><ele>730.74</ele><time>2014-09-04T13:32:46Z</time></trkpt><trkpt lat="45.7102445047" lon="7.2264664527"><ele>729.30</ele><time>2014-09-04T13:33:19Z</time></trkpt><trkpt lat="45.7102482766" lon="7.2264597472"><ele>727.86</ele><time>2014-09-04T13:33:43Z</time></trkpt><trkpt lat="45.7102445047" lon="7.2264460009"><ele>725.93</ele><time>2014-09-04T13:34:08Z</time></trkpt><trkpt lat="45.7102439180" lon="7.2264616750"><ele>726.41</ele><time>2014-09-04T13:34:35Z</time></trkpt><trkpt lat="45.7102452591" lon="7.2264349367"><ele>725.45</ele><time>2014-09-04T13:35:01Z</time></trkpt><trkpt lat="45.7102565747" lon="7.2264668718"><ele>728.34</ele><time>2014-09-04T13:35:31Z</time></trkpt><trkpt lat="45.7102543954" lon="7.2264603339"><ele>729.30</ele><time>2014-09-04T13:36:08Z</time></trkpt><trkpt lat="45.7102498692" lon="7.2264611721"><ele>730.26</ele><time>2014-09-04T13:36:37Z</time></trkpt><trkpt lat="45.7102516294" lon="7.2264636867"><ele>728.34</ele><time>2014-09-04T13:37:05Z</time></trkpt><trkpt lat="45.7102525514" lon="7.2264596634"><ele>727.37</ele><time>2014-09-04T13:37:42Z</time></trkpt><trkpt lat="45.7102349494" lon="7.2264648601"><ele>724.97</ele><time>2014-09-04T13:38:11Z</time></trkpt><trkpt lat="45.7102610171" lon="7.2264589928"><ele>724.49</ele><time>2014-09-04T13:38:46Z</time></trkpt><trkpt lat="45.7102402300" lon="7.2264438216"><ele>724.01</ele><time>2014-09-04T13:39:23Z</time></trkpt><trkpt lat="45.7102544792" lon="7.2264398821"><ele>724.01</ele><time>2014-09-04T13:39:53Z</time></trkpt><trkpt lat="45.7102504559" lon="7.2264507785"><ele>724.97</ele><time>2014-09-04T13:40:36Z</time></trkpt><trkpt lat="45.7102581672" lon="7.2264620941"><ele>725.45</ele><time>2014-09-04T13:41:00Z</time></trkpt></trkseg><trkseg><trkpt lat="45.7102545630" lon="7.2264686320"><ele>720.16</ele><time>2014-09-04T14:03:58Z</time></trkpt><trkpt lat="45.7102376316" lon="7.2264526226"><ele>724.97</ele><time>2014-09-04T14:04:22Z</time></trkpt><trkpt lat="45.7102472708" lon="7.2264561430"><ele>723.05</ele><time>2014-09-04T14:04:37Z</time></trkpt><trkpt lat="45.7103834767" lon="7.2264900897"><ele>724.97</ele><time>2014-09-04T14:04:46Z</time></trkpt><trkpt lat="45.7105270587" lon="7.2264584061"><ele>725.93</ele><time>2014-09-04T14:04:53Z</time></trkpt><trkpt lat="45.7105701417" lon="7.2263952065"><ele>725.93</ele><time>2014-09-04T14:04:55Z</time></trkpt><trkpt lat="45.7105840556" lon="7.2263755091"><ele>725.45</ele><time>2014-09-04T14:04:56Z</time></trkpt><trkpt lat="45.7106046751" lon="7.2263429873"><ele>725.45</ele><time>2014-09-04T14:04:57Z</time></trkpt><trkpt lat="45.7106268872" lon="7.2263092082"><ele>725.45</ele><time>2014-09-04T14:04:58Z</time></trkpt><trkpt lat="45.7109600678" lon="7.2259950545"><ele>724.49</ele><time>2014-09-04T14:05:10Z</time></trkpt><trkpt lat="45.7112593856" lon="7.2258804739"><ele>724.49</ele><time>2014-09-04T14:05:21Z</time></trkpt><trkpt lat="45.7112229243" lon="7.2258456890"><ele>724.49</ele><time>2014-09-04T14:05:23Z</time></trkpt><trkpt lat="45.7111914083" lon="7.2258553281"><ele>724.01</ele><time>2014-09-04T14:05:25Z</time></trkpt><trkpt lat="45.7111117803" lon="7.2259000875"><ele>723.53</ele><time>2014-09-04T14:05:28Z</time></trkpt><trkpt lat="45.7110774983" lon="7.2259109002"><ele>723.53</ele><time>2014-09-04T14:05:29Z</time></trkpt><trkpt lat="45.7109720539" lon="7.2259937972"><ele>723.53</ele><time>2014-09-04T14:05:37Z</time></trkpt><trkpt lat="45.7109561283" lon="7.2260062024"><ele>723.53</ele><time>2014-09-04T14:05:38Z</time></trkpt><trkpt lat="45.7109399512" lon="7.2260140814"><ele>723.05</ele><time>2014-09-04T14:05:50Z</time></trkpt><trkpt lat="45.7109177392" lon="7.2260152549"><ele>724.97</ele><time>2014-09-04T14:06:22Z</time></trkpt><trkpt lat="45.7108857203" lon="7.2259911988"><ele>725.45</ele><time>2014-09-04T14:06:25Z</time></trkpt><trkpt lat="45.7108677831" lon="7.2259966470"><ele>725.45</ele><time>2014-09-04T14:06:26Z</time></trkpt><trkpt lat="45.7108471636" lon="7.2260050289"><ele>725.45</ele><time>2014-09-04T14:06:27Z</time></trkpt><trkpt lat="45.7108277176" lon="7.2260149196"><ele>725.45</ele><time>2014-09-04T14:06:28Z</time></trkpt><trkpt lat="45.7108070981" lon="7.2260252293"><ele>725.45</ele><time>2014-09-04T14:06:29Z</time></trkpt><trkpt lat="45.7107872330" lon="7.2260436695"><ele>725.45</ele><time>2014-09-04T14:06:30Z</time></trkpt><trkpt lat="45.7107687090" lon="7.2260622773"><ele>725.45</ele><time>2014-09-04T14:06:31Z</time></trkpt><trkpt lat="45.7105593290" lon="7.2263767663"><ele>725.93</ele><time>2014-09-04T14:06:44Z</time></trkpt><trkpt lat="45.7104970515" lon="7.2264559753"><ele>725.93</ele><time>2014-09-04T14:06:48Z</time></trkpt><trkpt lat="45.7102742605" lon="7.2263571527"><ele>724.97</ele><time>2014-09-04T14:06:57Z</time></trkpt><trkpt lat="45.7102571614" lon="7.2262799554"><ele>724.97</ele><time>2014-09-04T14:06:58Z</time></trkpt><trkpt lat="45.7102512103" lon="7.2262294963"><ele>724.49</ele><time>2014-09-04T14:06:59Z</time></trkpt><trkpt lat="45.7102240529" lon="7.2258067969"><ele>721.13</ele><time>2014-09-04T14:07:04Z</time></trkpt><trkpt lat="45.7101912796" lon="7.2257209662"><ele>720.65</ele><time>2014-09-04T14:07:05Z</time></trkpt><trkpt lat="45.7101492025" lon="7.2256658133"><ele>719.68</ele><time>2014-09-04T14:07:06Z</time></trkpt><trkpt lat="45.7097988389" lon="7.2252167109"><ele>717.28</ele><time>2014-09-04T14:07:13Z</time></trkpt><trkpt lat="45.7095234934" lon="7.2244991362"><ele>715.36</ele><time>2014-09-04T14:07:21Z</time></trkpt><trkpt lat="45.7094557676" lon="7.2240017541"><ele>714.40</ele><time>2014-09-04T14:07:26Z</time></trkpt><trkpt lat="45.7092383411" lon="7.2225977015"><ele>710.55</ele><time>2014-09-04T14:07:40Z</time></trkpt><trkpt lat="45.7092142850" lon="7.2225415427"><ele>710.07</ele><time>2014-09-04T14:07:41Z</time></trkpt><trkpt lat="45.7091830205" lon="7.2224868089"><ele>710.07</ele><time>2014-09-04T14:07:42Z</time></trkpt><trkpt lat="45.7091497444" lon="7.2224430554"><ele>709.59</ele><time>2014-09-04T14:07:43Z</time></trkpt><trkpt lat="45.7091122773" lon="7.2224096954"><ele>709.59</ele><time>2014-09-04T14:07:44Z</time></trkpt><trkpt lat="45.7090738043" lon="7.2223798558"><ele>709.59</ele><time>2014-09-04T14:07:45Z</time></trkpt><trkpt lat="45.7090410311" lon="7.2223550454"><ele>709.11</ele><time>2014-09-04T14:07:46Z</time></trkpt><trkpt lat="45.7089432981" lon="7.2223236971"><ele>708.63</ele><time>2014-09-04T14:07:52Z</time></trkpt><trkpt lat="45.7089117821" lon="7.2223708034"><ele>708.15</ele><time>2014-09-04T14:07:54Z</time></trkpt><trkpt lat="45.7089030650" lon="7.2224236093"><ele>707.67</ele><time>2014-09-04T14:07:55Z</time></trkpt><trkpt lat="45.7088292204" lon="7.2228792496"><ele>705.26</ele><time>2014-09-04T14:08:01Z</time></trkpt><trkpt lat="45.7088047452" lon="7.2229416948"><ele>704.78</ele><time>2014-09-04T14:08:02Z</time></trkpt><trkpt lat="45.7087737322" lon="7.2229930758"><ele>704.30</ele><time>2014-09-04T14:08:03Z</time></trkpt><trkpt lat="45.7082988974" lon="7.2236433439"><ele>698.53</ele><time>2014-09-04T14:08:16Z</time></trkpt><trkpt lat="45.7078695763" lon="7.2242895048"><ele>693.25</ele><time>2014-09-04T14:08:28Z</time></trkpt><trkpt lat="45.7078561652" lon="7.2243203502"><ele>693.25</ele><time>2014-09-04T14:08:29Z</time></trkpt><trkpt lat="45.7078415807" lon="7.2243525367"><ele>692.77</ele><time>2014-09-04T14:08:30Z</time></trkpt><trkpt lat="45.7078358810" lon="7.2243698873"><ele>692.77</ele><time>2014-09-04T14:08:31Z</time></trkpt><trkpt lat="45.7078256551" lon="7.2244267166"><ele>692.29</ele><time>2014-09-04T14:08:33Z</time></trkpt><trkpt lat="45.7078228053" lon="7.2244817857"><ele>692.29</ele><time>2014-09-04T14:08:35Z</time></trkpt><trkpt lat="45.7078446820" lon="7.2245310713"><ele>691.81</ele><time>2014-09-04T14:08:36Z</time></trkpt><trkpt lat="45.7078688219" lon="7.2245608270"><ele>691.81</ele><time>2014-09-04T14:08:37Z</time></trkpt><trkpt lat="45.7078916207" lon="7.2245860565"><ele>691.33</ele><time>2014-09-04T14:08:38Z</time></trkpt><trkpt lat="45.7083159126" lon="7.2251504101"><ele>687.48</ele><time>2014-09-04T14:08:50Z</time></trkpt><trkpt lat="45.7085397933" lon="7.2256024461"><ele>685.56</ele><time>2014-09-04T14:08:57Z</time></trkpt><trkpt lat="45.7085509412" lon="7.2256629635"><ele>685.56</ele><time>2014-09-04T14:08:58Z</time></trkpt><trkpt lat="45.7085439842" lon="7.2257106565"><ele>685.56</ele><time>2014-09-04T14:08:59Z</time></trkpt><trkpt lat="45.7085217722" lon="7.2257464472"><ele>685.56</ele><time>2014-09-04T14:09:00Z</time></trkpt><trkpt lat="45.7084980514" lon="7.2257674858"><ele>685.56</ele><time>2014-09-04T14:09:02Z</time></trkpt><trkpt lat="45.7084636856" lon="7.2257826570"><ele>685.56</ele><time>2014-09-04T14:09:03Z</time></trkpt><trkpt lat="45.7084346842" lon="7.2257769573"><ele>685.56</ele><time>2014-09-04T14:09:04Z</time></trkpt><trkpt lat="45.7084059343" lon="7.2257608641"><ele>685.56</ele><time>2014-09-04T14:09:05Z</time></trkpt><trkpt lat="45.7083772682" lon="7.2257358860"><ele>685.56</ele><time>2014-09-04T14:09:06Z</time></trkpt><trkpt lat="45.7083472610" lon="7.2257090639"><ele>685.56</ele><time>2014-09-04T14:09:07Z</time></trkpt><trkpt lat="45.7083154935" lon="7.2256811522"><ele>685.56</ele><time>2014-09-04T14:09:08Z</time></trkpt><trkpt lat="45.7078199554" lon="7.2252590396"><ele>685.56</ele><time>2014-09-04T14:09:23Z</time></trkpt><trkpt lat="45.7075555064" lon="7.2250191495"><ele>685.56</ele><time>2014-09-04T14:09:31Z</time></trkpt><trkpt lat="45.7074849308" lon="7.2249639127"><ele>686.04</ele><time>2014-09-04T14:09:33Z</time></trkpt><trkpt lat="45.7073068991" lon="7.2248357534"><ele>686.04</ele><time>2014-09-04T14:09:38Z</time></trkpt><trkpt lat="45.7069992833" lon="7.2245528642"><ele>687.00</ele><time>2014-09-04T14:09:47Z</time></trkpt><trkpt lat="45.7069639117" lon="7.2245216835"><ele>687.00</ele><time>2014-09-04T14:09:48Z</time></trkpt><trkpt lat="45.7069298811" lon="7.2244868986"><ele>687.00</ele><time>2014-09-04T14:09:49Z</time></trkpt><trkpt lat="45.7068961021" lon="7.2244516946"><ele>687.00</ele><time>2014-09-04T14:09:50Z</time></trkpt><trkpt lat="45.7068638317" lon="7.2244159877"><ele>687.00</ele><time>2014-09-04T14:09:51Z</time></trkpt><trkpt lat="45.7068287954" lon="7.2243835498"><ele>687.00</ele><time>2014-09-04T14:09:52Z</time></trkpt><trkpt lat="45.7067588065" lon="7.2243154887"><ele>686.52</ele><time>2014-09-04T14:09:54Z</time></trkpt><trkpt lat="45.7067241054" lon="7.2242809553"><ele>686.52</ele><time>2014-09-04T14:09:55Z</time></trkpt><trkpt lat="45.7066900749" lon="7.2242430691"><ele>686.52</ele><time>2014-09-04T14:09:56Z</time></trkpt><trkpt lat="45.7066518534" lon="7.2242018301"><ele>686.52</ele><time>2014-09-04T14:09:57Z</time></trkpt><trkpt lat="45.7066180743" lon="7.2241620161"><ele>686.52</ele><time>2014-09-04T14:09:58Z</time></trkpt><trkpt lat="45.7065851334" lon="7.2241209447"><ele>686.52</ele><time>2014-09-04T14:09:59Z</time></trkpt><trkpt lat="45.7064243685" lon="7.2238841560"><ele>686.52</ele><time>2014-09-04T14:10:09Z</time></trkpt><trkpt lat="45.7063459978" lon="7.2237604391"><ele>686.04</ele><time>2014-09-04T14:10:26Z</time></trkpt><trkpt lat="45.7060899306" lon="7.2231329698"><ele>685.08</ele><time>2014-09-04T14:10:40Z</time></trkpt><trkpt lat="45.7059838995" lon="7.2221081145"><ele>683.63</ele><time>2014-09-04T14:10:56Z</time></trkpt><trkpt lat="45.7059864141" lon="7.2220211942"><ele>683.63</ele><time>2014-09-04T14:11:04Z</time></trkpt><trkpt lat="45.7059874199" lon="7.2220250499"><ele>683.15</ele><time>2014-09-04T14:11:23Z</time></trkpt><trkpt lat="45.7059837319" lon="7.2218098864"><ele>683.15</ele><time>2014-09-04T14:11:36Z</time></trkpt><trkpt lat="45.7059978135" lon="7.2208998632"><ele>683.63</ele><time>2014-09-04T14:11:50Z</time></trkpt><trkpt lat="45.7060123142" lon="7.2201826237"><ele>682.67</ele><time>2014-09-04T14:11:59Z</time></trkpt><trkpt lat="45.7061280683" lon="7.2199003212"><ele>681.71</ele><time>2014-09-04T14:12:08Z</time></trkpt><trkpt lat="45.7061814610" lon="7.2198856529"><ele>683.15</ele><time>2014-09-04T14:12:19Z</time></trkpt><trkpt lat="45.7062114682" lon="7.2199049313"><ele>682.67</ele><time>2014-09-04T14:12:51Z</time></trkpt><trkpt lat="45.7062198501" lon="7.2199518699"><ele>679.79</ele><time>2014-09-04T14:13:19Z</time></trkpt><trkpt lat="45.7062098756" lon="7.2199499421"><ele>679.31</ele><time>2014-09-04T14:13:46Z</time></trkpt><trkpt lat="45.7062194310" lon="7.2199254669"><ele>679.79</ele><time>2014-09-04T14:14:11Z</time></trkpt><trkpt lat="45.7062035054" lon="7.2199454159"><ele>679.79</ele><time>2014-09-04T14:14:37Z</time></trkpt><trkpt lat="45.7061743364" lon="7.2198618483"><ele>685.56</ele><time>2014-09-04T14:14:46Z</time></trkpt><trkpt lat="45.7060057763" lon="7.2195828147"><ele>684.60</ele><time>2014-09-04T14:14:57Z</time></trkpt><trkpt lat="45.7060027588" lon="7.2195159271"><ele>684.12</ele><time>2014-09-04T14:14:59Z</time></trkpt><trkpt lat="45.7060357835" lon="7.2187903896"><ele>680.75</ele><time>2014-09-04T14:15:13Z</time></trkpt><trkpt lat="45.7060430758" lon="7.2185036447"><ele>680.27</ele><time>2014-09-04T14:15:24Z</time></trkpt><trkpt lat="45.7060434110" lon="7.2184778284"><ele>680.27</ele><time>2014-09-04T14:15:25Z</time></trkpt><trkpt lat="45.7060419023" lon="7.2179832961"><ele>678.83</ele><time>2014-09-04T14:15:40Z</time></trkpt><trkpt lat="45.7060525473" lon="7.2178089526"><ele>678.83</ele><time>2014-09-04T14:15:43Z</time></trkpt><trkpt lat="45.7060510386" lon="7.2177488543"><ele>678.83</ele><time>2014-09-04T14:15:44Z</time></trkpt><trkpt lat="45.7060482726" lon="7.2176782787"><ele>678.35</ele><time>2014-09-04T14:15:45Z</time></trkpt><trkpt lat="45.7060110569" lon="7.2165740468"><ele>674.98</ele><time>2014-09-04T14:16:00Z</time></trkpt><trkpt lat="45.7061128970" lon="7.2153952997"><ele>668.73</ele><time>2014-09-04T14:16:14Z</time></trkpt><trkpt lat="45.7062387094" lon="7.2148118354"><ele>665.85</ele><time>2014-09-04T14:16:26Z</time></trkpt><trkpt lat="45.7062874082" lon="7.2142119426"><ele>664.89</ele><time>2014-09-04T14:16:40Z</time></trkpt><trkpt lat="45.7061870769" lon="7.2134372871"><ele>662.49</ele><time>2014-09-04T14:16:55Z</time></trkpt><trkpt lat="45.7060947083" lon="7.2127555031"><ele>660.08</ele><time>2014-09-04T14:17:10Z</time></trkpt><trkpt lat="45.7058580872" lon="7.2121908143"><ele>659.60</ele><time>2014-09-04T14:17:24Z</time></trkpt><trkpt lat="45.7054924686" lon="7.2116413806"><ele>660.08</ele><time>2014-09-04T14:17:39Z</time></trkpt><trkpt lat="45.7051427756" lon="7.2111089621"><ele>660.56</ele><time>2014-09-04T14:17:52Z</time></trkpt><trkpt lat="45.7048102655" lon="7.2106208839"><ele>663.45</ele><time>2014-09-04T14:18:05Z</time></trkpt><trkpt lat="45.7044738159" lon="7.2101005353"><ele>667.29</ele><time>2014-09-04T14:18:22Z</time></trkpt><trkpt lat="45.7042221911" lon="7.2094654385"><ele>671.14</ele><time>2014-09-04T14:18:39Z</time></trkpt><trkpt lat="45.7041480113" lon="7.2087706625"><ele>672.10</ele><time>2014-09-04T14:18:55Z</time></trkpt><trkpt lat="45.7040990610" lon="7.2080886271"><ele>674.02</ele><time>2014-09-04T14:19:12Z</time></trkpt><trkpt lat="45.7040585764" lon="7.2074624151"><ele>674.98</ele><time>2014-09-04T14:19:28Z</time></trkpt><trkpt lat="45.7040131465" lon="7.2068155836"><ele>674.98</ele><time>2014-09-04T14:19:44Z</time></trkpt><trkpt lat="45.7039823849" lon="7.2060611285"><ele>678.35</ele><time>2014-09-04T14:20:01Z</time></trkpt><trkpt lat="45.7038737554" lon="7.2053885646"><ele>680.75</ele><time>2014-09-04T14:20:15Z</time></trkpt><trkpt lat="45.7037795428" lon="7.2051471658"><ele>680.75</ele><time>2014-09-04T14:20:20Z</time></trkpt><trkpt lat="45.7032392453" lon="7.2044958919"><ele>676.91</ele><time>2014-09-04T14:20:37Z</time></trkpt><trkpt lat="45.7029194757" lon="7.2041198798"><ele>676.42</ele><time>2014-09-04T14:20:47Z</time></trkpt><trkpt lat="45.7025726326" lon="7.2032430489"><ele>678.35</ele><time>2014-09-04T14:21:04Z</time></trkpt><trkpt lat="45.7023639232" lon="7.2024648730"><ele>681.23</ele><time>2014-09-04T14:21:20Z</time></trkpt><trkpt lat="45.7021987997" lon="7.2018224001"><ele>683.15</ele><time>2014-09-04T14:21:33Z</time></trkpt><trkpt lat="45.7019883301" lon="7.2010163125"><ele>684.60</ele><time>2014-09-04T14:21:49Z</time></trkpt><trkpt lat="45.7018136512" lon="7.2003483586"><ele>685.56</ele><time>2014-09-04T14:22:02Z</time></trkpt><trkpt lat="45.7015746832" lon="7.1994291991"><ele>687.48</ele><time>2014-09-04T14:22:19Z</time></trkpt><trkpt lat="45.7013275847" lon="7.1984810382"><ele>688.92</ele><time>2014-09-04T14:22:36Z</time></trkpt><trkpt lat="45.7010407560" lon="7.1973988507"><ele>689.40</ele><time>2014-09-04T14:22:56Z</time></trkpt><trkpt lat="45.7007553522" lon="7.1963128075"><ele>690.36</ele><time>2014-09-04T14:23:15Z</time></trkpt><trkpt lat="45.7007399295" lon="7.1962517034"><ele>690.36</ele><time>2014-09-04T14:23:16Z</time></trkpt><trkpt lat="45.7004537713" lon="7.1951552667"><ele>690.36</ele><time>2014-09-04T14:23:36Z</time></trkpt><trkpt lat="45.7003735565" lon="7.1948287077"><ele>690.36</ele><time>2014-09-04T14:23:42Z</time></trkpt><trkpt lat="45.7003680244" lon="7.1947725490"><ele>689.88</ele><time>2014-09-04T14:23:43Z</time></trkpt><trkpt lat="45.7002943475" lon="7.1944688726"><ele>689.40</ele><time>2014-09-04T14:23:53Z</time></trkpt><trkpt lat="45.7003040705" lon="7.1944712196"><ele>690.36</ele><time>2014-09-04T14:24:10Z</time></trkpt><trkpt lat="45.7002996281" lon="7.1944588143"><ele>689.40</ele><time>2014-09-04T14:24:17Z</time></trkpt><trkpt lat="45.7003035676" lon="7.1944369376"><ele>689.88</ele><time>2014-09-04T14:24:18Z</time></trkpt><trkpt lat="45.7003018912" lon="7.1944104508"><ele>689.88</ele><time>2014-09-04T14:24:19Z</time></trkpt><trkpt lat="45.7002970297" lon="7.1943786833"><ele>689.88</ele><time>2014-09-04T14:24:20Z</time></trkpt><trkpt lat="45.7002900727" lon="7.1943420544"><ele>690.36</ele><time>2014-09-04T14:24:21Z</time></trkpt><trkpt lat="45.7001041621" lon="7.1936498769"><ele>690.36</ele><time>2014-09-04T14:24:36Z</time></trkpt><trkpt lat="45.6999238674" lon="7.1930014528"><ele>689.88</ele><time>2014-09-04T14:24:48Z</time></trkpt><trkpt lat="45.6997561455" lon="7.1922295634"><ele>689.88</ele><time>2014-09-04T14:25:03Z</time></trkpt><trkpt lat="45.6997071952" lon="7.1918864921"><ele>690.36</ele><time>2014-09-04T14:25:09Z</time></trkpt><trkpt lat="45.6997009926" lon="7.1918264776"><ele>689.88</ele><time>2014-09-04T14:25:10Z</time></trkpt><trkpt lat="45.6996996514" lon="7.1917692292"><ele>689.88</ele><time>2014-09-04T14:25:11Z</time></trkpt><trkpt lat="45.6997013278" lon="7.1917103045"><ele>689.88</ele><time>2014-09-04T14:25:12Z</time></trkpt><trkpt lat="45.6997061893" lon="7.1916425787"><ele>689.88</ele><time>2014-09-04T14:25:13Z</time></trkpt><trkpt lat="45.6999527011" lon="7.1906568669"><ele>689.88</ele><time>2014-09-04T14:25:30Z</time></trkpt><trkpt lat="45.7003784180" lon="7.1898765117"><ele>692.77</ele><time>2014-09-04T14:25:48Z</time></trkpt><trkpt lat="45.7007018756" lon="7.1892965678"><ele>694.21</ele><time>2014-09-04T14:26:03Z</time></trkpt><trkpt lat="45.7009707671" lon="7.1888148598"><ele>696.61</ele><time>2014-09-04T14:26:18Z</time></trkpt><trkpt lat="45.7011481281" lon="7.1884851996"><ele>698.53</ele><time>2014-09-04T14:26:32Z</time></trkpt><trkpt lat="45.7011504751" lon="7.1884836070"><ele>696.13</ele><time>2014-09-04T14:26:46Z</time></trkpt><trkpt lat="45.7013257407" lon="7.1881603170"><ele>698.53</ele><time>2014-09-04T14:26:59Z</time></trkpt><trkpt lat="45.7017225400" lon="7.1874642000"><ele>702.86</ele><time>2014-09-04T14:27:21Z</time></trkpt><trkpt lat="45.7020459138" lon="7.1868839208"><ele>705.75</ele><time>2014-09-04T14:27:39Z</time></trkpt><trkpt lat="45.7023267075" lon="7.1863903943"><ele>708.15</ele><time>2014-09-04T14:27:57Z</time></trkpt><trkpt lat="45.7025628258" lon="7.1860236861"><ele>711.03</ele><time>2014-09-04T14:28:14Z</time></trkpt><trkpt lat="45.7027113531" lon="7.1857025754"><ele>712.47</ele><time>2014-09-04T14:28:28Z</time></trkpt><trkpt lat="45.7029120997" lon="7.1853367891"><ele>714.88</ele><time>2014-09-04T14:28:44Z</time></trkpt><trkpt lat="45.7030637283" lon="7.1849739365"><ele>715.84</ele><time>2014-09-04T14:28:58Z</time></trkpt><trkpt lat="45.7031642273" lon="7.1844670828"><ele>716.80</ele><time>2014-09-04T14:29:14Z</time></trkpt><trkpt lat="45.7031631377" lon="7.1838557906"><ele>717.76</ele><time>2014-09-04T14:29:31Z</time></trkpt><trkpt lat="45.7031248324" lon="7.1832169220"><ele>719.20</ele><time>2014-09-04T14:29:48Z</time></trkpt><trkpt lat="45.7031109184" lon="7.1826723497"><ele>722.09</ele><time>2014-09-04T14:30:03Z</time></trkpt><trkpt lat="45.7031575218" lon="7.1822371613"><ele>723.53</ele><time>2014-09-04T14:30:18Z</time></trkpt><trkpt lat="45.7032729406" lon="7.1818409488"><ele>725.45</ele><time>2014-09-04T14:30:34Z</time></trkpt><trkpt lat="45.7034177799" lon="7.1815206762"><ele>726.89</ele><time>2014-09-04T14:30:48Z</time></trkpt><trkpt lat="45.7036756910" lon="7.1811905131"><ele>728.82</ele><time>2014-09-04T14:31:04Z</time></trkpt><trkpt lat="45.7040668745" lon="7.1808432508"><ele>731.22</ele><time>2014-09-04T14:31:23Z</time></trkpt><trkpt lat="45.7044816110" lon="7.1804883610"><ele>733.62</ele><time>2014-09-04T14:31:42Z</time></trkpt><trkpt lat="45.7047695294" lon="7.1801345609"><ele>736.03</ele><time>2014-09-04T14:31:58Z</time></trkpt><trkpt lat="45.7050018758" lon="7.1798238438"><ele>736.03</ele><time>2014-09-04T14:32:13Z</time></trkpt><trkpt lat="45.7052004430" lon="7.1797393542"><ele>736.51</ele><time>2014-09-04T14:32:25Z</time></trkpt><trkpt lat="45.7054140978" lon="7.1798088402"><ele>736.03</ele><time>2014-09-04T14:32:38Z</time></trkpt><trkpt lat="45.7054259162" lon="7.1798128635"><ele>736.03</ele><time>2014-09-04T14:32:39Z</time></trkpt><trkpt lat="45.7054380700" lon="7.1798142046"><ele>736.03</ele><time>2014-09-04T14:32:40Z</time></trkpt><trkpt lat="45.7054480445" lon="7.1798158810"><ele>736.03</ele><time>2014-09-04T14:32:41Z</time></trkpt><trkpt lat="45.7054578513" lon="7.1798212454"><ele>736.03</ele><time>2014-09-04T14:32:42Z</time></trkpt><trkpt lat="45.7054608688" lon="7.1798515879"><ele>736.51</ele><time>2014-09-04T14:32:45Z</time></trkpt><trkpt lat="45.7054502238" lon="7.1798551083"><ele>736.03</ele><time>2014-09-04T14:32:46Z</time></trkpt><trkpt lat="45.7054421771" lon="7.1798510011"><ele>736.03</ele><time>2014-09-04T14:32:47Z</time></trkpt><trkpt lat="45.7052693423" lon="7.1797434613"><ele>736.51</ele><time>2014-09-04T14:32:59Z</time></trkpt><trkpt lat="45.7052074838" lon="7.1797130350"><ele>736.51</ele><time>2014-09-04T14:33:09Z</time></trkpt><trkpt lat="45.7052210625" lon="7.1796869673"><ele>736.51</ele><time>2014-09-04T14:33:26Z</time></trkpt><trkpt lat="45.7052165363" lon="7.1796858776"><ele>732.66</ele><time>2014-09-04T14:34:05Z</time></trkpt><trkpt lat="45.7052167039" lon="7.1796761546"><ele>736.03</ele><time>2014-09-04T14:34:43Z</time></trkpt><trkpt lat="45.7052185480" lon="7.1796780825"><ele>734.58</ele><time>2014-09-04T14:35:19Z</time></trkpt><trkpt lat="45.7052204758" lon="7.1796769928"><ele>735.07</ele><time>2014-09-04T14:35:47Z</time></trkpt><trkpt lat="45.7051804941" lon="7.1796851233"><ele>736.03</ele><time>2014-09-04T14:35:59Z</time></trkpt><trkpt lat="45.7051732857" lon="7.1796593070"><ele>736.03</ele><time>2014-09-04T14:36:00Z</time></trkpt><trkpt lat="45.7051645685" lon="7.1795976162"><ele>736.51</ele><time>2014-09-04T14:36:02Z</time></trkpt><trkpt lat="45.7051779795" lon="7.1795630828"><ele>736.51</ele><time>2014-09-04T14:36:03Z</time></trkpt><trkpt lat="45.7051879540" lon="7.1795486659"><ele>736.51</ele><time>2014-09-04T14:36:04Z</time></trkpt><trkpt lat="45.7052046340" lon="7.1795249451"><ele>736.51</ele><time>2014-09-04T14:36:05Z</time></trkpt><trkpt lat="45.7052208949" lon="7.1794979554"><ele>736.51</ele><time>2014-09-04T14:36:06Z</time></trkpt><trkpt lat="45.7055031136" lon="7.1790805366"><ele>738.91</ele><time>2014-09-04T14:36:23Z</time></trkpt><trkpt lat="45.7057422493" lon="7.1785993315"><ele>740.35</ele><time>2014-09-04T14:36:41Z</time></trkpt><trkpt lat="45.7058575004" lon="7.1781211440"><ele>741.79</ele><time>2014-09-04T14:36:56Z</time></trkpt><trkpt lat="45.7059088815" lon="7.1776113566"><ele>746.12</ele><time>2014-09-04T14:37:12Z</time></trkpt></trkseg><trkseg><trkpt lat="45.7055119146" lon="7.1751377732"><ele>757.66</ele><time>2014-09-04T14:38:20Z</time></trkpt><trkpt lat="45.7054430991" lon="7.1747531276"><ele>758.62</ele><time>2014-09-04T14:38:34Z</time></trkpt><trkpt lat="45.7053023670" lon="7.1742752753"><ele>759.10</ele><time>2014-09-04T14:38:48Z</time></trkpt><trkpt lat="45.7051196415" lon="7.1736517455"><ele>758.14</ele><time>2014-09-04T14:39:04Z</time></trkpt><trkpt lat="45.7049000356" lon="7.1728879027"><ele>761.02</ele><time>2014-09-04T14:39:22Z</time></trkpt><trkpt lat="45.7047026418" lon="7.1722152550"><ele>762.46</ele><time>2014-09-04T14:39:40Z</time></trkpt><trkpt lat="45.7045070920" lon="7.1717104968"><ele>764.39</ele><time>2014-09-04T14:39:56Z</time></trkpt><trkpt lat="45.7042989694" lon="7.1713499073"><ele>765.83</ele><time>2014-09-04T14:40:11Z</time></trkpt><trkpt lat="45.7040589955" lon="7.1710092667"><ele>764.87</ele><time>2014-09-04T14:40:25Z</time></trkpt><trkpt lat="45.7037139125" lon="7.1705401316"><ele>763.42</ele><time>2014-09-04T14:40:42Z</time></trkpt><trkpt lat="45.7034962345" lon="7.1700989082"><ele>761.98</ele><time>2014-09-04T14:40:57Z</time></trkpt><trkpt lat="45.7033559214" lon="7.1693749633"><ele>761.02</ele><time>2014-09-04T14:41:15Z</time></trkpt><trkpt lat="45.7033368945" lon="7.1687549539"><ele>758.14</ele><time>2014-09-04T14:41:31Z</time></trkpt><trkpt lat="45.7033427618" lon="7.1686623339"><ele>759.10</ele><time>2014-09-04T14:41:40Z</time></trkpt><trkpt lat="45.7033750322" lon="7.1683002356"><ele>759.10</ele><time>2014-09-04T14:41:53Z</time></trkpt><trkpt lat="45.7033571787" lon="7.1682833042"><ele>759.10</ele><time>2014-09-04T14:41:54Z</time></trkpt><trkpt lat="45.7033316977" lon="7.1682888363"><ele>759.58</ele><time>2014-09-04T14:41:55Z</time></trkpt><trkpt lat="45.7033213042" lon="7.1682981402"><ele>759.10</ele><time>2014-09-04T14:41:56Z</time></trkpt><trkpt lat="45.7032651454" lon="7.1683569811"><ele>759.58</ele><time>2014-09-04T14:41:59Z</time></trkpt><trkpt lat="45.7032458670" lon="7.1683599986"><ele>759.58</ele><time>2014-09-04T14:42:00Z</time></trkpt><trkpt lat="45.7032321207" lon="7.1683593281"><ele>760.06</ele><time>2014-09-04T14:42:01Z</time></trkpt><trkpt lat="45.7032177877" lon="7.1683504432"><ele>760.06</ele><time>2014-09-04T14:42:02Z</time></trkpt><trkpt lat="45.7032052148" lon="7.1683335956"><ele>760.06</ele><time>2014-09-04T14:42:03Z</time></trkpt><trkpt lat="45.7031956594" lon="7.1683152393"><ele>759.58</ele><time>2014-09-04T14:42:04Z</time></trkpt><trkpt lat="45.7031872775" lon="7.1682964638"><ele>759.58</ele><time>2014-09-04T14:42:05Z</time></trkpt><trkpt lat="45.7031747047" lon="7.1681171749"><ele>759.58</ele><time>2014-09-04T14:42:13Z</time></trkpt><trkpt lat="45.7031591982" lon="7.1680465993"><ele>759.10</ele><time>2014-09-04T14:42:16Z</time></trkpt><trkpt lat="45.7031571865" lon="7.1680215374"><ele>759.10</ele><time>2014-09-04T14:42:17Z</time></trkpt><trkpt lat="45.7031491399" lon="7.1680011693"><ele>758.62</ele><time>2014-09-04T14:42:18Z</time></trkpt><trkpt lat="45.7031396683" lon="7.1679825615"><ele>758.62</ele><time>2014-09-04T14:42:19Z</time></trkpt><trkpt lat="45.7031306159" lon="7.1679606009"><ele>758.14</ele><time>2014-09-04T14:42:20Z</time></trkpt><trkpt lat="45.7030441985" lon="7.1676632110"><ele>758.14</ele><time>2014-09-04T14:42:34Z</time></trkpt><trkpt lat="45.7030335534" lon="7.1676612832"><ele>759.10</ele><time>2014-09-04T14:42:47Z</time></trkpt><trkpt lat="45.7030143589" lon="7.1676094830"><ele>764.39</ele><time>2014-09-04T14:43:19Z</time></trkpt><trkpt lat="45.7030413486" lon="7.1675310284"><ele>762.94</ele><time>2014-09-04T14:43:46Z</time></trkpt><trkpt lat="45.7030566037" lon="7.1675535757"><ele>764.39</ele><time>2014-09-04T14:43:57Z</time></trkpt><trkpt lat="45.7030501496" lon="7.1675400808"><ele>764.39</ele><time>2014-09-04T14:43:58Z</time></trkpt><trkpt lat="45.7030436117" lon="7.1675276756"><ele>764.87</ele><time>2014-09-04T14:43:59Z</time></trkpt><trkpt lat="45.7030391693" lon="7.1675070561"><ele>764.87</ele><time>2014-09-04T14:44:00Z</time></trkpt><trkpt lat="45.7030356489" lon="7.1674845926"><ele>765.35</ele><time>2014-09-04T14:44:01Z</time></trkpt><trkpt lat="45.7030324638" lon="7.1674602013"><ele>765.35</ele><time>2014-09-04T14:44:02Z</time></trkpt><trkpt lat="45.7030319609" lon="7.1674336307"><ele>765.35</ele><time>2014-09-04T14:44:03Z</time></trkpt><trkpt lat="45.7030319609" lon="7.1674115025"><ele>765.35</ele><time>2014-09-04T14:44:04Z</time></trkpt><trkpt lat="45.7030541729" lon="7.1671005338"><ele>767.75</ele><time>2014-09-04T14:44:18Z</time></trkpt><trkpt lat="45.7030809950" lon="7.1669639088"><ele>769.19</ele><time>2014-09-04T14:44:24Z</time></trkpt><trkpt lat="45.7030820008" lon="7.1669406909"><ele>769.19</ele><time>2014-09-04T14:44:25Z</time></trkpt><trkpt lat="45.7030864432" lon="7.1669163834"><ele>769.67</ele><time>2014-09-04T14:44:26Z</time></trkpt><trkpt lat="45.7030921429" lon="7.1668929979"><ele>769.67</ele><time>2014-09-04T14:44:27Z</time></trkpt><trkpt lat="45.7030996028" lon="7.1668704506"><ele>770.15</ele><time>2014-09-04T14:44:28Z</time></trkpt><trkpt lat="45.7031069789" lon="7.1668489091"><ele>770.15</ele><time>2014-09-04T14:44:29Z</time></trkpt><trkpt lat="45.7031141035" lon="7.1668273676"><ele>770.63</ele><time>2014-09-04T14:44:30Z</time></trkpt><trkpt lat="45.7031222340" lon="7.1668050718"><ele>770.15</ele><time>2014-09-04T14:44:31Z</time></trkpt><trkpt lat="45.7031270955" lon="7.1667818539"><ele>770.15</ele><time>2014-09-04T14:44:32Z</time></trkpt><trkpt lat="45.7031301968" lon="7.1667560376"><ele>770.15</ele><time>2014-09-04T14:44:33Z</time></trkpt><trkpt lat="45.7031313702" lon="7.1667289641"><ele>769.67</ele><time>2014-09-04T14:44:34Z</time></trkpt><trkpt lat="45.7031303644" lon="7.1667013038"><ele>769.67</ele><time>2014-09-04T14:44:35Z</time></trkpt><trkpt lat="45.7031513192" lon="7.1663340088"><ele>770.63</ele><time>2014-09-04T14:44:49Z</time></trkpt><trkpt lat="45.7031666581" lon="7.1659786999"><ele>768.71</ele><time>2014-09-04T14:45:03Z</time></trkpt><trkpt lat="45.7031429373" lon="7.1657849941"><ele>766.31</ele><time>2014-09-04T14:45:17Z</time></trkpt><trkpt lat="45.7031622157" lon="7.1657863352"><ele>765.35</ele><time>2014-09-04T14:45:45Z</time></trkpt><trkpt lat="45.7031581923" lon="7.1657533105"><ele>763.42</ele><time>2014-09-04T14:46:13Z</time></trkpt><trkpt lat="45.7031690888" lon="7.1657698229"><ele>766.79</ele><time>2014-09-04T14:46:43Z</time></trkpt><trkpt lat="45.7031912170" lon="7.1658025123"><ele>767.75</ele><time>2014-09-04T14:47:07Z</time></trkpt><trkpt lat="45.7031887025" lon="7.1658129059"><ele>767.27</ele><time>2014-09-04T14:47:08Z</time></trkpt><trkpt lat="45.7031685859" lon="7.1660738345"><ele>767.27</ele><time>2014-09-04T14:47:17Z</time></trkpt><trkpt lat="45.7031667419" lon="7.1660943702"><ele>767.27</ele><time>2014-09-04T14:47:18Z</time></trkpt><trkpt lat="45.7031686697" lon="7.1661159955"><ele>767.27</ele><time>2014-09-04T14:47:19Z</time></trkpt><trkpt lat="45.7031702623" lon="7.1661406383"><ele>766.79</ele><time>2014-09-04T14:47:20Z</time></trkpt><trkpt lat="45.7031699270" lon="7.1661655325"><ele>766.79</ele><time>2014-09-04T14:47:21Z</time></trkpt><trkpt lat="45.7031526603" lon="7.1664034110"><ele>766.31</ele><time>2014-09-04T14:47:34Z</time></trkpt><trkpt lat="45.7031488046" lon="7.1666748170"><ele>765.35</ele><time>2014-09-04T14:47:48Z</time></trkpt><trkpt lat="45.7031013630" lon="7.1669157967"><ele>762.94</ele><time>2014-09-04T14:48:01Z</time></trkpt><trkpt lat="45.7030606270" lon="7.1670474764"><ele>761.02</ele><time>2014-09-04T14:48:08Z</time></trkpt><trkpt lat="45.7030583639" lon="7.1670676768"><ele>760.54</ele><time>2014-09-04T14:48:09Z</time></trkpt><trkpt lat="45.7030441146" lon="7.1673695091"><ele>761.50</ele><time>2014-09-04T14:48:22Z</time></trkpt><trkpt lat="45.7030420192" lon="7.1673892904"><ele>761.50</ele><time>2014-09-04T14:48:23Z</time></trkpt><trkpt lat="45.7030363195" lon="7.1674078144"><ele>761.98</ele><time>2014-09-04T14:48:24Z</time></trkpt><trkpt lat="45.7030328829" lon="7.1674276795"><ele>761.98</ele><time>2014-09-04T14:48:25Z</time></trkpt><trkpt lat="45.7030320447" lon="7.1674514003"><ele>761.98</ele><time>2014-09-04T14:48:26Z</time></trkpt><trkpt lat="45.7030327152" lon="7.1674745344"><ele>761.98</ele><time>2014-09-04T14:48:27Z</time></trkpt><trkpt lat="45.7030334696" lon="7.1674976684"><ele>762.46</ele><time>2014-09-04T14:48:28Z</time></trkpt><trkpt lat="45.7030348945" lon="7.1675197128"><ele>762.46</ele><time>2014-09-04T14:48:29Z</time></trkpt><trkpt lat="45.7030402590" lon="7.1676239837"><ele>762.46</ele><time>2014-09-04T14:48:35Z</time></trkpt><trkpt lat="45.7030415162" lon="7.1676525660"><ele>761.02</ele><time>2014-09-04T14:48:43Z</time></trkpt><trkpt lat="45.7030566875" lon="7.1676578466"><ele>761.50</ele><time>2014-09-04T14:48:54Z</time></trkpt><trkpt lat="45.7031162828" lon="7.1676394902"><ele>760.54</ele><time>2014-09-04T14:49:28Z</time></trkpt><trkpt lat="45.7031509001" lon="7.1676306892"><ele>762.46</ele><time>2014-09-04T14:50:04Z</time></trkpt><trkpt lat="45.7031156123" lon="7.1676300187"><ele>761.50</ele><time>2014-09-04T14:50:40Z</time></trkpt><trkpt lat="45.7031080686" lon="7.1676248219"><ele>759.58</ele><time>2014-09-04T14:51:06Z</time></trkpt><trkpt lat="45.7031071465" lon="7.1676403284"><ele>758.14</ele><time>2014-09-04T14:51:36Z</time></trkpt><trkpt lat="45.7030840125" lon="7.1676448546"><ele>758.62</ele><time>2014-09-04T14:52:04Z</time></trkpt><trkpt lat="45.7031174563" lon="7.1676291805"><ele>758.62</ele><time>2014-09-04T14:52:40Z</time></trkpt><trkpt lat="45.7030716911" lon="7.1676206309"><ele>759.10</ele><time>2014-09-04T14:52:48Z</time></trkpt><trkpt lat="45.7030562684" lon="7.1676331200"><ele>759.10</ele><time>2014-09-04T14:52:49Z</time></trkpt><trkpt lat="45.7030530833" lon="7.1676549129"><ele>759.10</ele><time>2014-09-04T14:52:50Z</time></trkpt><trkpt lat="45.7030509040" lon="7.1676779632"><ele>759.10</ele><time>2014-09-04T14:52:51Z</time></trkpt><trkpt lat="45.7030514069" lon="7.1676975768"><ele>759.58</ele><time>2014-09-04T14:52:52Z</time></trkpt><trkpt lat="45.7030612975" lon="7.1677275840"><ele>759.10</ele><time>2014-09-04T14:52:53Z</time></trkpt><trkpt lat="45.7030719426" lon="7.1677618660"><ele>759.58</ele><time>2014-09-04T14:52:54Z</time></trkpt><trkpt lat="45.7030806597" lon="7.1677895263"><ele>759.58</ele><time>2014-09-04T14:52:55Z</time></trkpt><trkpt lat="45.7031298615" lon="7.1678840742"><ele>759.58</ele><time>2014-09-04T14:52:59Z</time></trkpt><trkpt lat="45.7031482179" lon="7.1679093037"><ele>760.06</ele><time>2014-09-04T14:53:00Z</time></trkpt><trkpt lat="45.7031656522" lon="7.1679341979"><ele>760.06</ele><time>2014-09-04T14:53:01Z</time></trkpt><trkpt lat="45.7032358088" lon="7.1682515368"><ele>762.46</ele><time>2014-09-04T14:53:13Z</time></trkpt><trkpt lat="45.7032387424" lon="7.1682905965"><ele>762.46</ele><time>2014-09-04T14:53:15Z</time></trkpt><trkpt lat="45.7032391615" lon="7.1683042590"><ele>761.98</ele><time>2014-09-04T14:53:16Z</time></trkpt><trkpt lat="45.7032353058" lon="7.1683209389"><ele>761.98</ele><time>2014-09-04T14:53:17Z</time></trkpt><trkpt lat="45.7032352220" lon="7.1683418937"><ele>761.98</ele><time>2014-09-04T14:53:18Z</time></trkpt><trkpt lat="45.7032380719" lon="7.1683600824"><ele>761.50</ele><time>2014-09-04T14:53:19Z</time></trkpt><trkpt lat="45.7032404188" lon="7.1683807857"><ele>761.50</ele><time>2014-09-04T14:53:20Z</time></trkpt><trkpt lat="45.7032451127" lon="7.1684287302"><ele>761.50</ele><time>2014-09-04T14:53:22Z</time></trkpt><trkpt lat="45.7032531593" lon="7.1684511099"><ele>761.50</ele><time>2014-09-04T14:53:23Z</time></trkpt><trkpt lat="45.7032628823" lon="7.1684668679"><ele>761.50</ele><time>2014-09-04T14:53:24Z</time></trkpt><trkpt lat="45.7032735273" lon="7.1684718132"><ele>761.50</ele><time>2014-09-04T14:53:25Z</time></trkpt><trkpt lat="45.7032843400" lon="7.1684712265"><ele>761.02</ele><time>2014-09-04T14:53:26Z</time></trkpt><trkpt lat="45.7032967452" lon="7.1684717294"><ele>761.02</ele><time>2014-09-04T14:53:27Z</time></trkpt><trkpt lat="45.7033051271" lon="7.1684768423"><ele>761.02</ele><time>2014-09-04T14:53:28Z</time></trkpt><trkpt lat="45.7033188734" lon="7.1684773453"><ele>760.54</ele><time>2014-09-04T14:53:29Z</time></trkpt><trkpt lat="45.7033379003" lon="7.1684652753"><ele>760.06</ele><time>2014-09-04T14:53:30Z</time></trkpt><trkpt lat="45.7033673208" lon="7.1684278082"><ele>760.06</ele><time>2014-09-04T14:53:31Z</time></trkpt><trkpt lat="45.7033812348" lon="7.1683848929"><ele>759.58</ele><time>2014-09-04T14:53:33Z</time></trkpt><trkpt lat="45.7033956517" lon="7.1683071926"><ele>759.58</ele><time>2014-09-04T14:53:34Z</time></trkpt><trkpt lat="45.7034005132" lon="7.1682751738"><ele>759.10</ele><time>2014-09-04T14:53:35Z</time></trkpt><trkpt lat="45.7035259064" lon="7.1675704233"><ele>758.62</ele><time>2014-09-04T14:53:50Z</time></trkpt><trkpt lat="45.7036671415" lon="7.1667448059"><ele>757.66</ele><time>2014-09-04T14:54:06Z</time></trkpt><trkpt lat="45.7037974801" lon="7.1660734992"><ele>757.66</ele><time>2014-09-04T14:54:21Z</time></trkpt><trkpt lat="45.7039175928" lon="7.1652760450"><ele>758.14</ele><time>2014-09-04T14:54:37Z</time></trkpt><trkpt lat="45.7037963904" lon="7.1643169876"><ele>759.58</ele><time>2014-09-04T14:54:56Z</time></trkpt><trkpt lat="45.7034536544" lon="7.1636947151"><ele>759.10</ele><time>2014-09-04T14:55:11Z</time></trkpt><trkpt lat="45.7027484011" lon="7.1628884599"><ele>756.69</ele><time>2014-09-04T14:55:32Z</time></trkpt><trkpt lat="45.7026056573" lon="7.1627465542"><ele>755.73</ele><time>2014-09-04T14:55:36Z</time></trkpt><trkpt lat="45.7025782485" lon="7.1627082489"><ele>755.73</ele><time>2014-09-04T14:55:37Z</time></trkpt><trkpt lat="45.7025586348" lon="7.1626607236"><ele>755.25</ele><time>2014-09-04T14:55:38Z</time></trkpt><trkpt lat="45.7025448047" lon="7.1626030561"><ele>755.25</ele><time>2014-09-04T14:55:39Z</time></trkpt><trkpt lat="45.7025318965" lon="7.1625336539"><ele>754.77</ele><time>2014-09-04T14:55:40Z</time></trkpt><trkpt lat="45.7025159709" lon="7.1624891460"><ele>754.29</ele><time>2014-09-04T14:55:41Z</time></trkpt><trkpt lat="45.7024875563" lon="7.1624362562"><ele>754.29</ele><time>2014-09-04T14:55:42Z</time></trkpt><trkpt lat="45.7024462335" lon="7.1623927541"><ele>753.81</ele><time>2014-09-04T14:55:43Z</time></trkpt><trkpt lat="45.7024010550" lon="7.1623625793"><ele>753.33</ele><time>2014-09-04T14:55:44Z</time></trkpt><trkpt lat="45.7023422979" lon="7.1623223461"><ele>752.85</ele><time>2014-09-04T14:55:45Z</time></trkpt><trkpt lat="45.7022718061" lon="7.1622511838"><ele>752.85</ele><time>2014-09-04T14:55:47Z</time></trkpt><trkpt lat="45.7022457384" lon="7.1621942706"><ele>752.85</ele><time>2014-09-04T14:55:48Z</time></trkpt><trkpt lat="45.7021998055" lon="7.1620894969"><ele>752.37</ele><time>2014-09-04T14:55:49Z</time></trkpt><trkpt lat="45.7021714747" lon="7.1620143112"><ele>752.37</ele><time>2014-09-04T14:55:50Z</time></trkpt><trkpt lat="45.7019392122" lon="7.1608120110"><ele>749.00</ele><time>2014-09-04T14:56:03Z</time></trkpt><trkpt lat="45.7019417267" lon="7.1606075764"><ele>748.52</ele><time>2014-09-04T14:56:05Z</time></trkpt><trkpt lat="45.7020724844" lon="7.1595065296"><ele>747.56</ele><time>2014-09-04T14:56:18Z</time></trkpt><trkpt lat="45.7022404578" lon="7.1580872219"><ele>747.08</ele><time>2014-09-04T14:56:39Z</time></trkpt><trkpt lat="45.7023956906" lon="7.1566990111"><ele>748.52</ele><time>2014-09-04T14:57:00Z</time></trkpt><trkpt lat="45.7025588863" lon="7.1559548657"><ele>748.52</ele><time>2014-09-04T14:57:12Z</time></trkpt><trkpt lat="45.7027341519" lon="7.1555249579"><ele>749.00</ele><time>2014-09-04T14:57:20Z</time></trkpt><trkpt lat="45.7027561963" lon="7.1554694697"><ele>749.00</ele><time>2014-09-04T14:57:21Z</time></trkpt><trkpt lat="45.7029511593" lon="7.1549969818"><ele>749.97</ele><time>2014-09-04T14:57:30Z</time></trkpt><trkpt lat="45.7029729523" lon="7.1549509652"><ele>749.97</ele><time>2014-09-04T14:57:31Z</time></trkpt><trkpt lat="45.7029966731" lon="7.1549062897"><ele>749.97</ele><time>2014-09-04T14:57:32Z</time></trkpt><trkpt lat="45.7030199748" lon="7.1548550762"><ele>749.97</ele><time>2014-09-04T14:57:33Z</time></trkpt><trkpt lat="45.7030378282" lon="7.1548093949"><ele>749.97</ele><time>2014-09-04T14:57:34Z</time></trkpt><trkpt lat="45.7033040375" lon="7.1541395970"><ele>750.45</ele><time>2014-09-04T14:57:50Z</time></trkpt><trkpt lat="45.7034380641" lon="7.1538147982"><ele>751.41</ele><time>2014-09-04T14:58:01Z</time></trkpt><trkpt lat="45.7034502178" lon="7.1537744813"><ele>751.89</ele><time>2014-09-04T14:58:11Z</time></trkpt><trkpt lat="45.7034373097" lon="7.1537453122"><ele>752.85</ele><time>2014-09-04T14:58:34Z</time></trkpt><trkpt lat="45.7034605276" lon="7.1535414644"><ele>753.81</ele><time>2014-09-04T14:58:50Z</time></trkpt></trkseg><trkseg><trkpt lat="45.7041005697" lon="7.1496980265"><ele>763.90</ele><time>2014-09-04T14:59:56Z</time></trkpt><trkpt lat="45.7042480074" lon="7.1487903502"><ele>773.52</ele><time>2014-09-04T15:00:12Z</time></trkpt><trkpt lat="45.7044495922" lon="7.1479653195"><ele>774.48</ele><time>2014-09-04T15:00:28Z</time></trkpt><trkpt lat="45.7047489937" lon="7.1469726507"><ele>774.00</ele><time>2014-09-04T15:00:48Z</time></trkpt><trkpt lat="45.7050370798" lon="7.1459974162"><ele>771.60</ele><time>2014-09-04T15:01:07Z</time></trkpt><trkpt lat="45.7051359862" lon="7.1456794906"><ele>771.11</ele><time>2014-09-04T15:01:13Z</time></trkpt><trkpt lat="45.7051552646" lon="7.1456274390"><ele>770.63</ele><time>2014-09-04T15:01:14Z</time></trkpt><trkpt lat="45.7054516487" lon="7.1447163261"><ele>767.27</ele><time>2014-09-04T15:01:32Z</time></trkpt><trkpt lat="45.7055309415" lon="7.1443827264"><ele>765.83</ele><time>2014-09-04T15:01:43Z</time></trkpt><trkpt lat="45.7055633795" lon="7.1443506237"><ele>765.35</ele><time>2014-09-04T15:01:45Z</time></trkpt><trkpt lat="45.7056244835" lon="7.1443267353"><ele>764.39</ele><time>2014-09-04T15:01:55Z</time></trkpt><trkpt lat="45.7056410797" lon="7.1443238854"><ele>761.50</ele><time>2014-09-04T15:02:23Z</time></trkpt><trkpt lat="45.7055680733" lon="7.1443051938"><ele>765.35</ele><time>2014-09-04T15:03:07Z</time></trkpt><trkpt lat="45.7056119107" lon="7.1442818921"><ele>764.87</ele><time>2014-09-04T15:03:45Z</time></trkpt><trkpt lat="45.7055882737" lon="7.1442970634"><ele>764.87</ele><time>2014-09-04T15:04:24Z</time></trkpt><trkpt lat="45.7055497169" lon="7.1443129051"><ele>762.46</ele><time>2014-09-04T15:04:59Z</time></trkpt><trkpt lat="45.7055838313" lon="7.1443076245"><ele>764.87</ele><time>2014-09-04T15:05:29Z</time></trkpt><trkpt lat="45.7056226395" lon="7.1443374641"><ele>763.90</ele><time>2014-09-04T15:06:08Z</time></trkpt><trkpt lat="45.7055832446" lon="7.1443058643"><ele>760.54</ele><time>2014-09-04T15:06:41Z</time></trkpt><trkpt lat="45.7056246512" lon="7.1443201136"><ele>759.10</ele><time>2014-09-04T15:07:30Z</time></trkpt><trkpt lat="45.7056883536" lon="7.1443489473"><ele>757.66</ele><time>2014-09-04T15:07:58Z</time></trkpt><trkpt lat="45.7056363858" lon="7.1443058643"><ele>762.94</ele><time>2014-09-04T15:08:12Z</time></trkpt><trkpt lat="45.7055918779" lon="7.1440062951"><ele>764.87</ele><time>2014-09-04T15:08:24Z</time></trkpt><trkpt lat="45.7056746911" lon="7.1434438694"><ele>765.35</ele><time>2014-09-04T15:08:37Z</time></trkpt><trkpt lat="45.7057950553" lon="7.1428774204"><ele>766.79</ele><time>2014-09-04T15:08:51Z</time></trkpt><trkpt lat="45.7059345301" lon="7.1422606800"><ele>767.75</ele><time>2014-09-04T15:09:08Z</time></trkpt><trkpt lat="45.7059854921" lon="7.1420350391"><ele>767.75</ele><time>2014-09-04T15:09:20Z</time></trkpt><trkpt lat="45.7059948798" lon="7.1420370508"><ele>771.11</ele><time>2014-09-04T15:10:01Z</time></trkpt><trkpt lat="45.7059522159" lon="7.1420405712"><ele>770.63</ele><time>2014-09-04T15:10:49Z</time></trkpt><trkpt lat="45.7059930358" lon="7.1420156769"><ele>768.71</ele><time>2014-09-04T15:11:25Z</time></trkpt><trkpt lat="45.7059910242" lon="7.1420093067"><ele>767.75</ele><time>2014-09-04T15:11:51Z</time></trkpt><trkpt lat="45.7059959695" lon="7.1419676486"><ele>768.23</ele><time>2014-09-04T15:11:54Z</time></trkpt><trkpt lat="45.7060019206" lon="7.1419464424"><ele>768.23</ele><time>2014-09-04T15:11:55Z</time></trkpt><trkpt lat="45.7060062792" lon="7.1419219673"><ele>768.23</ele><time>2014-09-04T15:11:56Z</time></trkpt><trkpt lat="45.7060121465" lon="7.1418950614"><ele>768.71</ele><time>2014-09-04T15:11:57Z</time></trkpt><trkpt lat="45.7060180139" lon="7.1418671496"><ele>768.71</ele><time>2014-09-04T15:11:58Z</time></trkpt><trkpt lat="45.7060246356" lon="7.1418369748"><ele>768.71</ele><time>2014-09-04T15:11:59Z</time></trkpt><trkpt lat="45.7060305867" lon="7.1418061294"><ele>769.19</ele><time>2014-09-04T15:12:00Z</time></trkpt><trkpt lat="45.7060357835" lon="7.1417736076"><ele>769.19</ele><time>2014-09-04T15:12:01Z</time></trkpt><trkpt lat="45.7060406450" lon="7.1417416725"><ele>769.67</ele><time>2014-09-04T15:12:02Z</time></trkpt><trkpt lat="45.7060450036" lon="7.1417088155"><ele>769.67</ele><time>2014-09-04T15:12:03Z</time></trkpt><trkpt lat="45.7060511224" lon="7.1416740306"><ele>769.67</ele><time>2014-09-04T15:12:04Z</time></trkpt><trkpt lat="45.7061668765" lon="7.1408655122"><ele>772.08</ele><time>2014-09-04T15:12:25Z</time></trkpt><trkpt lat="45.7062590774" lon="7.1402464248"><ele>774.96</ele><time>2014-09-04T15:12:41Z</time></trkpt><trkpt lat="45.7063710596" lon="7.1396982484"><ele>775.44</ele><time>2014-09-04T15:12:57Z</time></trkpt><trkpt lat="45.7065004762" lon="7.1392159536"><ele>777.84</ele><time>2014-09-04T15:13:12Z</time></trkpt><trkpt lat="45.7066125423" lon="7.1387262829"><ele>780.25</ele><time>2014-09-04T15:13:28Z</time></trkpt><trkpt lat="45.7066348381" lon="7.1382511966"><ele>783.13</ele><time>2014-09-04T15:13:44Z</time></trkpt></trkseg><trkseg><trkpt lat="45.7064941898" lon="7.1365103591"><ele>799.47</ele><time>2014-09-04T15:14:38Z</time></trkpt><trkpt lat="45.7065055892" lon="7.1364213433"><ele>789.86</ele><time>2014-09-04T15:14:49Z</time></trkpt><trkpt lat="45.7065193355" lon="7.1364286356"><ele>791.78</ele><time>2014-09-04T15:14:52Z</time></trkpt><trkpt lat="45.7064942736" lon="7.1363113727"><ele>793.22</ele><time>2014-09-04T15:14:59Z</time></trkpt><trkpt lat="45.7064765040" lon="7.1362743247"><ele>793.22</ele><time>2014-09-04T15:15:01Z</time></trkpt><trkpt lat="45.7064495143" lon="7.1361473389"><ele>791.78</ele><time>2014-09-04T15:15:07Z</time></trkpt><trkpt lat="45.7065020688" lon="7.1360021643"><ele>789.86</ele><time>2014-09-04T15:15:20Z</time></trkpt><trkpt lat="45.7065129653" lon="7.1359755099"><ele>789.38</ele><time>2014-09-04T15:15:55Z</time></trkpt><trkpt lat="45.7065164857" lon="7.1358568221"><ele>788.42</ele><time>2014-09-04T15:16:01Z</time></trkpt><trkpt lat="45.7064734865" lon="7.1357147489"><ele>789.38</ele><time>2014-09-04T15:16:08Z</time></trkpt><trkpt lat="45.7064690441" lon="7.1356762759"><ele>788.90</ele><time>2014-09-04T15:16:10Z</time></trkpt><trkpt lat="45.7064888254" lon="7.1356062870"><ele>788.42</ele><time>2014-09-04T15:16:13Z</time></trkpt><trkpt lat="45.7065283041" lon="7.1355233900"><ele>787.94</ele><time>2014-09-04T15:16:17Z</time></trkpt><trkpt lat="45.7065071817" lon="7.1354804747"><ele>788.42</ele><time>2014-09-04T15:16:19Z</time></trkpt><trkpt lat="45.7064841315" lon="7.1354697458"><ele>788.42</ele><time>2014-09-04T15:16:20Z</time></trkpt><trkpt lat="45.7064623386" lon="7.1354689077"><ele>788.90</ele><time>2014-09-04T15:16:21Z</time></trkpt><trkpt lat="45.7064197585" lon="7.1354824025"><ele>788.42</ele><time>2014-09-04T15:16:23Z</time></trkpt><trkpt lat="45.7063914277" lon="7.1355060395"><ele>788.90</ele><time>2014-09-04T15:16:24Z</time></trkpt><trkpt lat="45.7063755859" lon="7.1355303470"><ele>788.90</ele><time>2014-09-04T15:16:25Z</time></trkpt><trkpt lat="45.7063584868" lon="7.1355585102"><ele>788.90</ele><time>2014-09-04T15:16:26Z</time></trkpt><trkpt lat="45.7063388731" lon="7.1355932951"><ele>788.90</ele><time>2014-09-04T15:16:27Z</time></trkpt><trkpt lat="45.7063230313" lon="7.1356270742"><ele>788.90</ele><time>2014-09-04T15:16:28Z</time></trkpt><trkpt lat="45.7062487677" lon="7.1357175987"><ele>789.38</ele><time>2014-09-04T15:16:32Z</time></trkpt><trkpt lat="45.7062159944" lon="7.1357262321"><ele>789.86</ele><time>2014-09-04T15:16:33Z</time></trkpt><trkpt lat="45.7061874960" lon="7.1357255615"><ele>789.86</ele><time>2014-09-04T15:16:35Z</time></trkpt><trkpt lat="45.7061520405" lon="7.1357086301"><ele>789.86</ele><time>2014-09-04T15:16:36Z</time></trkpt><trkpt lat="45.7061240450" lon="7.1356834844"><ele>790.34</ele><time>2014-09-04T15:16:37Z</time></trkpt><trkpt lat="45.7060986478" lon="7.1356435865"><ele>790.34</ele><time>2014-09-04T15:16:39Z</time></trkpt><trkpt lat="45.7060822193" lon="7.1356069576"><ele>790.82</ele><time>2014-09-04T15:16:40Z</time></trkpt><trkpt lat="45.7060687244" lon="7.1355800517"><ele>791.30</ele><time>2014-09-04T15:16:41Z</time></trkpt><trkpt lat="45.7060537208" lon="7.1355430037"><ele>791.30</ele><time>2014-09-04T15:16:42Z</time></trkpt><trkpt lat="45.7060439140" lon="7.1355197020"><ele>791.78</ele><time>2014-09-04T15:16:43Z</time></trkpt><trkpt lat="45.7060301676" lon="7.1354903653"><ele>791.78</ele><time>2014-09-04T15:16:44Z</time></trkpt><trkpt lat="45.7058497891" lon="7.1349771414"><ele>794.67</ele><time>2014-09-04T15:17:00Z</time></trkpt><trkpt lat="45.7057088055" lon="7.1342514362"><ele>795.63</ele><time>2014-09-04T15:17:19Z</time></trkpt><trkpt lat="45.7056518923" lon="7.1334805526"><ele>795.15</ele><time>2014-09-04T15:17:39Z</time></trkpt><trkpt lat="45.7055998407" lon="7.1327198111"><ele>796.59</ele><time>2014-09-04T15:17:55Z</time></trkpt><trkpt lat="45.7055253256" lon="7.1320194192"><ele>797.55</ele><time>2014-09-04T15:18:09Z</time></trkpt><trkpt lat="45.7054836676" lon="7.1311026067"><ele>797.55</ele><time>2014-09-04T15:18:26Z</time></trkpt><trkpt lat="45.7055420056" lon="7.1305597108"><ele>798.03</ele><time>2014-09-04T15:18:41Z</time></trkpt><trkpt lat="45.7055630442" lon="7.1305751335"><ele>799.47</ele><time>2014-09-04T15:19:10Z</time></trkpt><trkpt lat="45.7055622898" lon="7.1302378457"><ele>800.44</ele><time>2014-09-04T15:19:21Z</time></trkpt><trkpt lat="45.7057564147" lon="7.1293849032"><ele>801.88</ele><time>2014-09-04T15:19:39Z</time></trkpt><trkpt lat="45.7059853245" lon="7.1285519097"><ele>801.88</ele><time>2014-09-04T15:19:57Z</time></trkpt><trkpt lat="45.7061692234" lon="7.1278592292"><ele>803.32</ele><time>2014-09-04T15:20:12Z</time></trkpt><trkpt lat="45.7063807826" lon="7.1271184366"><ele>805.24</ele><time>2014-09-04T15:20:28Z</time></trkpt><trkpt lat="45.7065607421" lon="7.1264423523"><ele>805.24</ele><time>2014-09-04T15:20:44Z</time></trkpt><trkpt lat="45.7068219222" lon="7.1255309042"><ele>805.24</ele><time>2014-09-04T15:21:01Z</time></trkpt><trkpt lat="45.7068443019" lon="7.1254736558"><ele>805.24</ele><time>2014-09-04T15:21:02Z</time></trkpt><trkpt lat="45.7068658434" lon="7.1254187543"><ele>805.72</ele><time>2014-09-04T15:21:03Z</time></trkpt><trkpt lat="45.7071019616" lon="7.1248810552"><ele>805.24</ele><time>2014-09-04T15:21:14Z</time></trkpt><trkpt lat="45.7071251795" lon="7.1248290036"><ele>805.24</ele><time>2014-09-04T15:21:15Z</time></trkpt><trkpt lat="45.7075466216" lon="7.1241204813"><ele>806.20</ele><time>2014-09-04T15:21:30Z</time></trkpt><trkpt lat="45.7075762097" lon="7.1240779851"><ele>806.68</ele><time>2014-09-04T15:21:31Z</time></trkpt><trkpt lat="45.7076069713" lon="7.1240345668"><ele>806.68</ele><time>2014-09-04T15:21:32Z</time></trkpt></trkseg><trkseg><trkpt lat="45.7104591653" lon="7.1201376524"><ele>808.61</ele><time>2014-09-04T15:23:04Z</time></trkpt><trkpt lat="45.7105563954" lon="7.1199296974"><ele>808.13</ele><time>2014-09-04T15:23:08Z</time></trkpt><trkpt lat="45.7109144703" lon="7.1189393755"><ele>807.64</ele><time>2014-09-04T15:23:23Z</time></trkpt><trkpt lat="45.7115863636" lon="7.1172030643"><ele>803.80</ele><time>2014-09-04T15:23:44Z</time></trkpt><trkpt lat="45.7124968898" lon="7.1155111771"><ele>798.99</ele><time>2014-09-04T15:24:05Z</time></trkpt><trkpt lat="45.7130998839" lon="7.1141556557"><ele>796.11</ele><time>2014-09-04T15:24:21Z</time></trkpt><trkpt lat="45.7139418460" lon="7.1128939278"><ele>794.67</ele><time>2014-09-04T15:24:39Z</time></trkpt><trkpt lat="45.7146868296" lon="7.1118859202"><ele>792.74</ele><time>2014-09-04T15:24:56Z</time></trkpt><trkpt lat="45.7152486686" lon="7.1112707723"><ele>792.74</ele><time>2014-09-04T15:25:11Z</time></trkpt><trkpt lat="45.7153700385" lon="7.1112100035"><ele>793.22</ele><time>2014-09-04T15:25:14Z</time></trkpt><trkpt lat="45.7154096849" lon="7.1112015378"><ele>793.22</ele><time>2014-09-04T15:25:15Z</time></trkpt><trkpt lat="45.7154493313" lon="7.1111981012"><ele>793.22</ele><time>2014-09-04T15:25:16Z</time></trkpt><trkpt lat="45.7154883072" lon="7.1111974306"><ele>793.22</ele><time>2014-09-04T15:25:17Z</time></trkpt><trkpt lat="45.7155271154" lon="7.1112002805"><ele>793.22</ele><time>2014-09-04T15:25:18Z</time></trkpt><trkpt lat="45.7162254956" lon="7.1111379191"><ele>793.71</ele><time>2014-09-04T15:25:36Z</time></trkpt><trkpt lat="45.7165145874" lon="7.1108971070"><ele>793.71</ele><time>2014-09-04T15:25:44Z</time></trkpt><trkpt lat="45.7165751886" lon="7.1108051576"><ele>793.71</ele><time>2014-09-04T15:25:46Z</time></trkpt><trkpt lat="45.7171187550" lon="7.1100187674"><ele>792.74</ele><time>2014-09-04T15:26:04Z</time></trkpt><trkpt lat="45.7173620816" lon="7.1095705032"><ele>794.19</ele><time>2014-09-04T15:26:14Z</time></trkpt><trkpt lat="45.7174489181" lon="7.1093673259"><ele>794.19</ele><time>2014-09-04T15:26:18Z</time></trkpt><trkpt lat="45.7177057397" lon="7.1084334143"><ele>796.11</ele><time>2014-09-04T15:26:35Z</time></trkpt><trkpt lat="45.7179044746" lon="7.1077621914"><ele>797.07</ele><time>2014-09-04T15:26:48Z</time></trkpt><trkpt lat="45.7182280999" lon="7.1070452034"><ele>797.07</ele><time>2014-09-04T15:27:05Z</time></trkpt><trkpt lat="45.7186727598" lon="7.1062192507"><ele>799.47</ele><time>2014-09-04T15:27:26Z</time></trkpt><trkpt lat="45.7189988997" lon="7.1056379657"><ele>802.36</ele><time>2014-09-04T15:27:42Z</time></trkpt><trkpt lat="45.7193326671" lon="7.1050491370"><ele>803.32</ele><time>2014-09-04T15:27:59Z</time></trkpt><trkpt lat="45.7196031511" lon="7.1045571193"><ele>803.32</ele><time>2014-09-04T15:28:14Z</time></trkpt><trkpt lat="45.7198829390" lon="7.1040003095"><ele>804.28</ele><time>2014-09-04T15:28:28Z</time></trkpt><trkpt lat="45.7202801574" lon="7.1032756940"><ele>805.72</ele><time>2014-09-04T15:28:45Z</time></trkpt><trkpt lat="45.7206803095" lon="7.1026666649"><ele>806.68</ele><time>2014-09-04T15:29:00Z</time></trkpt><trkpt lat="45.7211878337" lon="7.1020218451"><ele>807.64</ele><time>2014-09-04T15:29:18Z</time></trkpt><trkpt lat="45.7214863133" lon="7.1015527099"><ele>808.13</ele><time>2014-09-04T15:29:33Z</time></trkpt><trkpt lat="45.7220417820" lon="7.1006208938"><ele>808.61</ele><time>2014-09-04T15:29:52Z</time></trkpt><trkpt lat="45.7226441056" lon="7.0995933563"><ele>809.09</ele><time>2014-09-04T15:30:12Z</time></trkpt><trkpt lat="45.7231285796" lon="7.0987736061"><ele>810.53</ele><time>2014-09-04T15:30:29Z</time></trkpt><trkpt lat="45.7235118840" lon="7.0981318876"><ele>811.97</ele><time>2014-09-04T15:30:45Z</time></trkpt><trkpt lat="45.7239239383" lon="7.0974426437"><ele>813.41</ele><time>2014-09-04T15:31:03Z</time></trkpt><trkpt lat="45.7243330590" lon="7.0967623685"><ele>815.82</ele><time>2014-09-04T15:31:22Z</time></trkpt><trkpt lat="45.7246024534" lon="7.0963005256"><ele>816.30</ele><time>2014-09-04T15:31:36Z</time></trkpt><trkpt lat="45.7248362247" lon="7.0959322248"><ele>817.74</ele><time>2014-09-04T15:31:50Z</time></trkpt><trkpt lat="45.7248606998" lon="7.0959352423"><ele>818.22</ele><time>2014-09-04T15:31:51Z</time></trkpt><trkpt lat="45.7248710934" lon="7.0959419478"><ele>818.22</ele><time>2014-09-04T15:31:52Z</time></trkpt><trkpt lat="45.7248795591" lon="7.0959544368"><ele>818.22</ele><time>2014-09-04T15:31:53Z</time></trkpt><trkpt lat="45.7248860132" lon="7.0959675126"><ele>818.22</ele><time>2014-09-04T15:31:54Z</time></trkpt><trkpt lat="45.7248959877" lon="7.0959789958"><ele>818.22</ele><time>2014-09-04T15:31:55Z</time></trkpt><trkpt lat="45.7249091472" lon="7.0959817618"><ele>818.22</ele><time>2014-09-04T15:31:56Z</time></trkpt><trkpt lat="45.7249216363" lon="7.0959694404"><ele>818.22</ele><time>2014-09-04T15:31:57Z</time></trkpt><trkpt lat="45.7249177806" lon="7.0959454682"><ele>818.22</ele><time>2014-09-04T15:31:59Z</time></trkpt><trkpt lat="45.7249025255" lon="7.0959108509"><ele>818.70</ele><time>2014-09-04T15:32:00Z</time></trkpt><trkpt lat="45.7248913776" lon="7.0958862081"><ele>818.22</ele><time>2014-09-04T15:32:01Z</time></trkpt><trkpt lat="45.7248845883" lon="7.0958573744"><ele>818.22</ele><time>2014-09-04T15:32:02Z</time></trkpt><trkpt lat="45.7248911262" lon="7.0958212484"><ele>818.22</ele><time>2014-09-04T15:32:03Z</time></trkpt><trkpt lat="45.7251991611" lon="7.0953057613"><ele>819.66</ele><time>2014-09-04T15:32:20Z</time></trkpt><trkpt lat="45.7255647797" lon="7.0946841594"><ele>822.06</ele><time>2014-09-04T15:32:37Z</time></trkpt><trkpt lat="45.7259062584" lon="7.0941140223"><ele>823.03</ele><time>2014-09-04T15:32:52Z</time></trkpt><trkpt lat="45.7262310572" lon="7.0935329050"><ele>825.43</ele><time>2014-09-04T15:33:07Z</time></trkpt><trkpt lat="45.7265799958" lon="7.0928841457"><ele>825.91</ele><time>2014-09-04T15:33:24Z</time></trkpt><trkpt lat="45.7269593608" lon="7.0921853464"><ele>827.35</ele><time>2014-09-04T15:33:40Z</time></trkpt><trkpt lat="45.7272912841" lon="7.0915890578"><ele>827.83</ele><time>2014-09-04T15:33:53Z</time></trkpt><trkpt lat="45.7273198664" lon="7.0915422868"><ele>828.31</ele><time>2014-09-04T15:33:54Z</time></trkpt><trkpt lat="45.7273456827" lon="7.0914934203"><ele>828.31</ele><time>2014-09-04T15:33:55Z</time></trkpt><trkpt lat="45.7273682300" lon="7.0914398599"><ele>828.31</ele><time>2014-09-04T15:33:56Z</time></trkpt><trkpt lat="45.7273906935" lon="7.0913862996"><ele>828.31</ele><time>2014-09-04T15:33:57Z</time></trkpt><trkpt lat="45.7274161745" lon="7.0913358405"><ele>828.31</ele><time>2014-09-04T15:33:58Z</time></trkpt><trkpt lat="45.7274424937" lon="7.0912875608"><ele>828.31</ele><time>2014-09-04T15:33:59Z</time></trkpt><trkpt lat="45.7279433124" lon="7.0903820638"><ele>828.31</ele><time>2014-09-04T15:34:18Z</time></trkpt><trkpt lat="45.7284720428" lon="7.0898506511"><ele>829.76</ele><time>2014-09-04T15:34:33Z</time></trkpt><trkpt lat="45.7286085002" lon="7.0897145290"><ele>830.24</ele><time>2014-09-04T15:34:37Z</time></trkpt><trkpt lat="45.7288709376" lon="7.0892548654"><ele>830.72</ele><time>2014-09-04T15:34:47Z</time></trkpt><trkpt lat="45.7290804852" lon="7.0884338580"><ele>830.72</ele><time>2014-09-04T15:35:03Z</time></trkpt><trkpt lat="45.7292216364" lon="7.0877225697"><ele>831.68</ele><time>2014-09-04T15:35:17Z</time></trkpt><trkpt lat="45.7294030208" lon="7.0870262012"><ele>834.56</ele><time>2014-09-04T15:35:33Z</time></trkpt><trkpt lat="45.7296551485" lon="7.0865154080"><ele>836.48</ele><time>2014-09-04T15:35:47Z</time></trkpt><trkpt lat="45.7299204357" lon="7.0860100631"><ele>838.89</ele><time>2014-09-04T15:36:03Z</time></trkpt><trkpt lat="45.7301168237" lon="7.0855988469"><ele>840.33</ele><time>2014-09-04T15:36:16Z</time></trkpt><trkpt lat="45.7304339111" lon="7.0849590562"><ele>838.89</ele><time>2014-09-04T15:36:32Z</time></trkpt><trkpt lat="45.7306813449" lon="7.0840074588"><ele>837.45</ele><time>2014-09-04T15:36:50Z</time></trkpt><trkpt lat="45.7307747193" lon="7.0830559451"><ele>835.52</ele><time>2014-09-04T15:37:07Z</time></trkpt><trkpt lat="45.7309160382" lon="7.0820600074"><ele>836.00</ele><time>2014-09-04T15:37:25Z</time></trkpt><trkpt lat="45.7309090812" lon="7.0820531342"><ele>836.96</ele><time>2014-09-04T15:37:40Z</time></trkpt><trkpt lat="45.7309319638" lon="7.0818731748"><ele>837.45</ele><time>2014-09-04T15:37:59Z</time></trkpt><trkpt lat="45.7310239132" lon="7.0811333880"><ele>837.93</ele><time>2014-09-04T15:38:14Z</time></trkpt><trkpt lat="45.7311811578" lon="7.0803548768"><ele>839.85</ele><time>2014-09-04T15:38:29Z</time></trkpt><trkpt lat="45.7312388252" lon="7.0800760947"><ele>840.81</ele><time>2014-09-04T15:38:41Z</time></trkpt><trkpt lat="45.7312451955" lon="7.0800782740"><ele>841.29</ele><time>2014-09-04T15:39:06Z</time></trkpt><trkpt lat="45.7312405854" lon="7.0800381247"><ele>842.25</ele><time>2014-09-04T15:39:23Z</time></trkpt><trkpt lat="45.7312403340" lon="7.0800190140"><ele>842.73</ele><time>2014-09-04T15:39:24Z</time></trkpt><trkpt lat="45.7312453631" lon="7.0800026692"><ele>842.73</ele><time>2014-09-04T15:39:25Z</time></trkpt><trkpt lat="45.7312509790" lon="7.0799859054"><ele>842.73</ele><time>2014-09-04T15:39:26Z</time></trkpt><trkpt lat="45.7312568463" lon="7.0799621008"><ele>842.73</ele><time>2014-09-04T15:39:27Z</time></trkpt><trkpt lat="45.7312638033" lon="7.0799346082"><ele>843.21</ele><time>2014-09-04T15:39:28Z</time></trkpt><trkpt lat="45.7313630451" lon="7.0793812349"><ele>844.18</ele><time>2014-09-04T15:39:42Z</time></trkpt><trkpt lat="45.7314148452" lon="7.0787904784"><ele>844.66</ele><time>2014-09-04T15:39:57Z</time></trkpt><trkpt lat="45.7314284239" lon="7.0784187410"><ele>844.66</ele><time>2014-09-04T15:40:11Z</time></trkpt><trkpt lat="45.7314427570" lon="7.0783941820"><ele>845.62</ele><time>2014-09-04T15:40:26Z</time></trkpt><trkpt lat="45.7314352132" lon="7.0783509314"><ele>845.62</ele><time>2014-09-04T15:40:28Z</time></trkpt><trkpt lat="45.7314321958" lon="7.0783280488"><ele>846.10</ele><time>2014-09-04T15:40:29Z</time></trkpt><trkpt lat="45.7314216346" lon="7.0778499451"><ele>846.58</ele><time>2014-09-04T15:40:42Z</time></trkpt><trkpt lat="45.7314596046" lon="7.0772706717"><ele>847.06</ele><time>2014-09-04T15:40:59Z</time></trkpt><trkpt lat="45.7314649690" lon="7.0771135110"><ele>848.50</ele><time>2014-09-04T15:41:04Z</time></trkpt><trkpt lat="45.7313875202" lon="7.0769673306"><ele>848.02</ele><time>2014-09-04T15:41:15Z</time></trkpt><trkpt lat="45.7313601114" lon="7.0769904647"><ele>849.94</ele><time>2014-09-04T15:41:33Z</time></trkpt><trkpt lat="45.7313875202" lon="7.0770342182"><ele>850.42</ele><time>2014-09-04T15:42:15Z</time></trkpt><trkpt lat="45.7314126659" lon="7.0769742876"><ele>850.42</ele><time>2014-09-04T15:42:53Z</time></trkpt><trkpt lat="45.7314338721" lon="7.0769440290"><ele>850.90</ele><time>2014-09-04T15:42:58Z</time></trkpt><trkpt lat="45.7314477861" lon="7.0769529138"><ele>850.90</ele><time>2014-09-04T15:42:59Z</time></trkpt><trkpt lat="45.7314775418" lon="7.0769675821"><ele>849.94</ele><time>2014-09-04T15:43:01Z</time></trkpt><trkpt lat="45.7314966526" lon="7.0769637264"><ele>849.46</ele><time>2014-09-04T15:43:02Z</time></trkpt><trkpt lat="45.7315242290" lon="7.0769380778"><ele>849.46</ele><time>2014-09-04T15:43:03Z</time></trkpt><trkpt lat="45.7315427531" lon="7.0769035444"><ele>848.98</ele><time>2014-09-04T15:43:05Z</time></trkpt><trkpt lat="45.7315664738" lon="7.0768671669"><ele>848.50</ele><time>2014-09-04T15:43:06Z</time></trkpt><trkpt lat="45.7315823995" lon="7.0768346451"><ele>848.50</ele><time>2014-09-04T15:43:07Z</time></trkpt><trkpt lat="45.7318211161" lon="7.0764178131"><ele>848.02</ele><time>2014-09-04T15:43:19Z</time></trkpt><trkpt lat="45.7322076056" lon="7.0759501867"><ele>849.46</ele><time>2014-09-04T15:43:33Z</time></trkpt><trkpt lat="45.7327710371" lon="7.0752789639"><ele>849.46</ele><time>2014-09-04T15:43:52Z</time></trkpt><trkpt lat="45.7333845925" lon="7.0745711122"><ele>850.42</ele><time>2014-09-04T15:44:13Z</time></trkpt><trkpt lat="45.7337097265" lon="7.0742784999"><ele>851.87</ele><time>2014-09-04T15:44:24Z</time></trkpt><trkpt lat="45.7341211103" lon="7.0736620110"><ele>852.35</ele><time>2014-09-04T15:44:40Z</time></trkpt><trkpt lat="45.7345609087" lon="7.0730085578"><ele>853.31</ele><time>2014-09-04T15:44:57Z</time></trkpt><trkpt lat="45.7350212429" lon="7.0724930707"><ele>853.79</ele><time>2014-09-04T15:45:14Z</time></trkpt><trkpt lat="45.7354140189" lon="7.0721624885"><ele>855.71</ele><time>2014-09-04T15:45:31Z</time></trkpt><trkpt lat="45.7357348781" lon="7.0718749892"><ele>858.11</ele><time>2014-09-04T15:45:47Z</time></trkpt><trkpt lat="45.7357359678" lon="7.0718514360"><ele>858.59</ele><time>2014-09-04T15:45:48Z</time></trkpt><trkpt lat="45.7357176114" lon="7.0718309004"><ele>858.59</ele><time>2014-09-04T15:45:49Z</time></trkpt><trkpt lat="45.7356935553" lon="7.0718217641"><ele>858.59</ele><time>2014-09-04T15:45:50Z</time></trkpt><trkpt lat="45.7356808987" lon="7.0718259551"><ele>858.59</ele><time>2014-09-04T15:45:51Z</time></trkpt><trkpt lat="45.7356549986" lon="7.0718398690"><ele>858.59</ele><time>2014-09-04T15:45:52Z</time></trkpt><trkpt lat="45.7356267516" lon="7.0718595665"><ele>858.11</ele><time>2014-09-04T15:45:53Z</time></trkpt><trkpt lat="45.7354323752" lon="7.0720137097"><ele>857.63</ele><time>2014-09-04T15:46:00Z</time></trkpt><trkpt lat="45.7354065590" lon="7.0719098579"><ele>857.15</ele><time>2014-09-04T15:46:03Z</time></trkpt><trkpt lat="45.7354333811" lon="7.0718661044"><ele>856.67</ele><time>2014-09-04T15:46:04Z</time></trkpt><trkpt lat="45.7354491390" lon="7.0718505140"><ele>856.67</ele><time>2014-09-04T15:46:05Z</time></trkpt><trkpt lat="45.7354780566" lon="7.0718272123"><ele>856.67</ele><time>2014-09-04T15:46:06Z</time></trkpt><trkpt lat="45.7355061360" lon="7.0718039945"><ele>856.67</ele><time>2014-09-04T15:46:07Z</time></trkpt><trkpt lat="45.7355322037" lon="7.0717785135"><ele>857.15</ele><time>2014-09-04T15:46:08Z</time></trkpt><trkpt lat="45.7355805673" lon="7.0715676248"><ele>858.11</ele><time>2014-09-04T15:46:17Z</time></trkpt><trkpt lat="45.7355751190" lon="7.0715682115"><ele>860.52</ele><time>2014-09-04T15:46:37Z</time></trkpt><trkpt lat="45.7355510630" lon="7.0716050919"><ele>865.80</ele><time>2014-09-04T15:47:17Z</time></trkpt><trkpt lat="45.7355542481" lon="7.0716344286"><ele>865.32</ele><time>2014-09-04T15:47:44Z</time></trkpt><trkpt lat="45.7355422620" lon="7.0716379490"><ele>868.69</ele><time>2014-09-04T15:48:31Z</time></trkpt><trkpt lat="45.7355351374" lon="7.0716089476"><ele>868.69</ele><time>2014-09-04T15:48:56Z</time></trkpt><trkpt lat="45.7355297729" lon="7.0716225263"><ele>868.69</ele><time>2014-09-04T15:48:58Z</time></trkpt><trkpt lat="45.7355197985" lon="7.0717760827"><ele>865.80</ele><time>2014-09-04T15:49:07Z</time></trkpt><trkpt lat="45.7354637235" lon="7.0718254521"><ele>865.32</ele><time>2014-09-04T15:49:09Z</time></trkpt><trkpt lat="45.7354320399" lon="7.0718555432"><ele>865.32</ele><time>2014-09-04T15:49:10Z</time></trkpt><trkpt lat="45.7354136836" lon="7.0718681160"><ele>865.32</ele><time>2014-09-04T15:49:11Z</time></trkpt><trkpt lat="45.7353845984" lon="7.0718903281"><ele>865.32</ele><time>2014-09-04T15:49:12Z</time></trkpt><trkpt lat="45.7353628892" lon="7.0719223469"><ele>864.84</ele><time>2014-09-04T15:49:13Z</time></trkpt><trkpt lat="45.7353505678" lon="7.0719578862"><ele>864.84</ele><time>2014-09-04T15:49:14Z</time></trkpt><trkpt lat="45.7353447843" lon="7.0719941799"><ele>864.36</ele><time>2014-09-04T15:49:15Z</time></trkpt><trkpt lat="45.7353999373" lon="7.0720822737"><ele>863.40</ele><time>2014-09-04T15:49:18Z</time></trkpt><trkpt lat="45.7354367338" lon="7.0720813517"><ele>863.40</ele><time>2014-09-04T15:49:19Z</time></trkpt><trkpt lat="45.7354554255" lon="7.0720816031"><ele>862.92</ele><time>2014-09-04T15:49:20Z</time></trkpt><trkpt lat="45.7354862709" lon="7.0720763225"><ele>862.92</ele><time>2014-09-04T15:49:21Z</time></trkpt><trkpt lat="45.7355145179" lon="7.0720615704"><ele>863.40</ele><time>2014-09-04T15:49:22Z</time></trkpt><trkpt lat="45.7355416752" lon="7.0720431302"><ele>862.92</ele><time>2014-09-04T15:49:23Z</time></trkpt><trkpt lat="45.7358680665" lon="7.0717593189"><ele>862.44</ele><time>2014-09-04T15:49:37Z</time></trkpt><trkpt lat="45.7364024967" lon="7.0713082049"><ele>866.29</ele><time>2014-09-04T15:50:00Z</time></trkpt><trkpt lat="45.7367579732" lon="7.0710005891"><ele>866.29</ele><time>2014-09-04T15:50:17Z</time></trkpt><trkpt lat="45.7370326482" lon="7.0707127545"><ele>869.17</ele><time>2014-09-04T15:50:32Z</time></trkpt><trkpt lat="45.7373558544" lon="7.0703837648"><ele>873.01</ele><time>2014-09-04T15:50:49Z</time></trkpt><trkpt lat="45.7376631349" lon="7.0700520091"><ele>874.94</ele><time>2014-09-04T15:51:04Z</time></trkpt><trkpt lat="45.7380066253" lon="7.0696844626"><ele>878.78</ele><time>2014-09-04T15:51:19Z</time></trkpt><trkpt lat="45.7383432426" lon="7.0693231188"><ele>884.07</ele><time>2014-09-04T15:51:34Z</time></trkpt><trkpt lat="45.7387739047" lon="7.0689461008"><ele>886.95</ele><time>2014-09-04T15:51:50Z</time></trkpt><trkpt lat="45.7392359152" lon="7.0687557478"><ele>889.84</ele><time>2014-09-04T15:52:06Z</time></trkpt><trkpt lat="45.7397275977" lon="7.0685907081"><ele>892.24</ele><time>2014-09-04T15:52:23Z</time></trkpt><trkpt lat="45.7402376365" lon="7.0683947392"><ele>892.24</ele><time>2014-09-04T15:52:42Z</time></trkpt><trkpt lat="45.7406354416" lon="7.0680775680"><ele>891.28</ele><time>2014-09-04T15:52:59Z</time></trkpt><trkpt lat="45.7408927660" lon="7.0675435569"><ele>887.43</ele><time>2014-09-04T15:53:16Z</time></trkpt><trkpt lat="45.7410163991" lon="7.0669144113"><ele>886.95</ele><time>2014-09-04T15:53:32Z</time></trkpt><trkpt lat="45.7411392778" lon="7.0662156120"><ele>888.40</ele><time>2014-09-04T15:53:49Z</time></trkpt><trkpt lat="45.7413162198" lon="7.0657059923"><ele>887.91</ele><time>2014-09-04T15:54:03Z</time></trkpt><trkpt lat="45.7415760588" lon="7.0652152319"><ele>889.84</ele><time>2014-09-04T15:54:18Z</time></trkpt><trkpt lat="45.7418529969" lon="7.0647005830"><ele>892.72</ele><time>2014-09-04T15:54:34Z</time></trkpt><trkpt lat="45.7420175336" lon="7.0643598586"><ele>894.64</ele><time>2014-09-04T15:54:46Z</time></trkpt><trkpt lat="45.7420358062" lon="7.0643407479"><ele>896.09</ele><time>2014-09-04T15:55:01Z</time></trkpt><trkpt lat="45.7420705911" lon="7.0642850082"><ele>897.05</ele><time>2014-09-04T15:55:16Z</time></trkpt><trkpt lat="45.7421280071" lon="7.0639299508"><ele>898.49</ele><time>2014-09-04T15:55:29Z</time></trkpt><trkpt lat="45.7421353832" lon="7.0638996921"><ele>898.49</ele><time>2014-09-04T15:55:30Z</time></trkpt><trkpt lat="45.7421403285" lon="7.0638642367"><ele>898.49</ele><time>2014-09-04T15:55:31Z</time></trkpt><trkpt lat="45.7421445195" lon="7.0638292003"><ele>898.49</ele><time>2014-09-04T15:55:32Z</time></trkpt><trkpt lat="45.7421457767" lon="7.0637935773"><ele>898.49</ele><time>2014-09-04T15:55:33Z</time></trkpt><trkpt lat="45.7421461958" lon="7.0637541823"><ele>898.97</ele><time>2014-09-04T15:55:34Z</time></trkpt><trkpt lat="45.7422507182" lon="7.0631929301"><ele>899.93</ele><time>2014-09-04T15:55:48Z</time></trkpt><trkpt lat="45.7424663845" lon="7.0626279060"><ele>900.41</ele><time>2014-09-04T15:56:04Z</time></trkpt><trkpt lat="45.7427889202" lon="7.0621903706"><ele>902.33</ele><time>2014-09-04T15:56:18Z</time></trkpt><trkpt lat="45.7433380187" lon="7.0618721098"><ele>905.70</ele><time>2014-09-04T15:56:35Z</time></trkpt><trkpt lat="45.7439588662" lon="7.0616739616"><ele>906.66</ele><time>2014-09-04T15:56:53Z</time></trkpt><trkpt lat="45.7442796417" lon="7.0616565272"><ele>905.70</ele><time>2014-09-04T15:57:05Z</time></trkpt><trkpt lat="45.7443199586" lon="7.0616936591"><ele>902.33</ele><time>2014-09-04T15:57:17Z</time></trkpt><trkpt lat="45.7443327829" lon="7.0617445372"><ele>902.82</ele><time>2014-09-04T15:57:45Z</time></trkpt><trkpt lat="45.7443548273" lon="7.0617639832"><ele>901.85</ele><time>2014-09-04T15:58:20Z</time></trkpt><trkpt lat="45.7443701662" lon="7.0617707726"><ele>900.41</ele><time>2014-09-04T15:58:48Z</time></trkpt><trkpt lat="45.7443648018" lon="7.0617519133"><ele>903.30</ele><time>2014-09-04T15:59:19Z</time></trkpt><trkpt lat="45.7443490438" lon="7.0617411006"><ele>898.97</ele><time>2014-09-04T15:59:53Z</time></trkpt><trkpt lat="45.7443525642" lon="7.0617171284"><ele>898.97</ele><time>2014-09-04T16:00:22Z</time></trkpt><trkpt lat="45.7443409134" lon="7.0617224090"><ele>899.45</ele><time>2014-09-04T16:00:54Z</time></trkpt><trkpt lat="45.7443483733" lon="7.0616994426"><ele>902.33</ele><time>2014-09-04T16:01:24Z</time></trkpt><trkpt lat="45.7443519775" lon="7.0617347304"><ele>900.41</ele><time>2014-09-04T16:01:58Z</time></trkpt><trkpt lat="45.7443342078" lon="7.0617286116"><ele>898.49</ele><time>2014-09-04T16:02:30Z</time></trkpt><trkpt lat="45.7443389855" lon="7.0617159549"><ele>899.93</ele><time>2014-09-04T16:02:55Z</time></trkpt><trkpt lat="45.7442925498" lon="7.0616227482"><ele>901.37</ele><time>2014-09-04T16:03:05Z</time></trkpt><trkpt lat="45.7443061285" lon="7.0616159588"><ele>901.37</ele><time>2014-09-04T16:03:06Z</time></trkpt><trkpt lat="45.7443206292" lon="7.0616092533"><ele>901.37</ele><time>2014-09-04T16:03:07Z</time></trkpt><trkpt lat="45.7446461823" lon="7.0615407731"><ele>900.89</ele><time>2014-09-04T16:03:19Z</time></trkpt><trkpt lat="45.7449490204" lon="7.0613940898"><ele>900.41</ele><time>2014-09-04T16:03:33Z</time></trkpt><trkpt lat="45.7453546207" lon="7.0611904096"><ele>899.93</ele><time>2014-09-04T16:03:46Z</time></trkpt><trkpt lat="45.7458364125" lon="7.0607257169"><ele>899.93</ele><time>2014-09-04T16:04:02Z</time></trkpt><trkpt lat="45.7462250814" lon="7.0601483714"><ele>899.93</ele><time>2014-09-04T16:04:16Z</time></trkpt><trkpt lat="45.7462827489" lon="7.0600568410"><ele>899.93</ele><time>2014-09-04T16:04:18Z</time></trkpt><trkpt lat="45.7463099901" lon="7.0600155182"><ele>899.93</ele><time>2014-09-04T16:04:19Z</time></trkpt><trkpt lat="45.7467139140" lon="7.0594395977"><ele>900.41</ele><time>2014-09-04T16:04:32Z</time></trkpt><trkpt lat="45.7472908404" lon="7.0585289039"><ele>900.41</ele><time>2014-09-04T16:04:51Z</time></trkpt><trkpt lat="45.7478348259" lon="7.0573176350"><ele>900.41</ele><time>2014-09-04T16:05:11Z</time></trkpt><trkpt lat="45.7483163662" lon="7.0562307537"><ele>900.41</ele><time>2014-09-04T16:05:30Z</time></trkpt><trkpt lat="45.7486471161" lon="7.0554938167"><ele>901.85</ele><time>2014-09-04T16:05:43Z</time></trkpt><trkpt lat="45.7486735191" lon="7.0554389991"><ele>901.85</ele><time>2014-09-04T16:05:44Z</time></trkpt><trkpt lat="45.7491459232" lon="7.0543558896"><ele>902.82</ele><time>2014-09-04T16:06:03Z</time></trkpt><trkpt lat="45.7495404594" lon="7.0534544159"><ele>904.26</ele><time>2014-09-04T16:06:20Z</time></trkpt><trkpt lat="45.7495791838" lon="7.0533603709"><ele>904.26</ele><time>2014-09-04T16:06:22Z</time></trkpt><trkpt lat="45.7496013120" lon="7.0533095766"><ele>904.26</ele><time>2014-09-04T16:06:23Z</time></trkpt><trkpt lat="45.7499185670" lon="7.0526281279"><ele>906.18</ele><time>2014-09-04T16:06:38Z</time></trkpt><trkpt lat="45.7503001112" lon="7.0518112276"><ele>907.14</ele><time>2014-09-04T16:06:57Z</time></trkpt><trkpt lat="45.7504954934" lon="7.0513527375"><ele>908.58</ele><time>2014-09-04T16:07:12Z</time></trkpt><trkpt lat="45.7507731020" lon="7.0507432893"><ele>910.03</ele><time>2014-09-04T16:07:27Z</time></trkpt><trkpt lat="45.7511331048" lon="7.0499246288"><ele>911.95</ele><time>2014-09-04T16:07:46Z</time></trkpt><trkpt lat="45.7513992302" lon="7.0493018534"><ele>912.91</ele><time>2014-09-04T16:08:01Z</time></trkpt><trkpt lat="45.7516137231" lon="7.0487559400"><ele>913.87</ele><time>2014-09-04T16:08:16Z</time></trkpt><trkpt lat="45.7518495061" lon="7.0481878147"><ele>915.31</ele><time>2014-09-04T16:08:31Z</time></trkpt><trkpt lat="45.7520985324" lon="7.0476294961"><ele>915.79</ele><time>2014-09-04T16:08:45Z</time></trkpt><trkpt lat="45.7524197269" lon="7.0468973368"><ele>917.72</ele><time>2014-09-04T16:09:04Z</time></trkpt><trkpt lat="45.7527486328" lon="7.0461678598"><ele>920.12</ele><time>2014-09-04T16:09:22Z</time></trkpt><trkpt lat="45.7531344518" lon="7.0452901069"><ele>921.56</ele><time>2014-09-04T16:09:41Z</time></trkpt><trkpt lat="45.7534724101" lon="7.0445204806"><ele>922.04</ele><time>2014-09-04T16:09:57Z</time></trkpt><trkpt lat="45.7537507731" lon="7.0441399422"><ele>922.04</ele><time>2014-09-04T16:10:08Z</time></trkpt><trkpt lat="45.7539538667" lon="7.0437861420"><ele>922.52</ele><time>2014-09-04T16:10:17Z</time></trkpt><trkpt lat="45.7541967742" lon="7.0430994127"><ele>922.52</ele><time>2014-09-04T16:10:33Z</time></trkpt><trkpt lat="45.7544577029" lon="7.0425528288"><ele>923.00</ele><time>2014-09-04T16:10:48Z</time></trkpt><trkpt lat="45.7546584494" lon="7.0421561133"><ele>923.96</ele><time>2014-09-04T16:11:00Z</time></trkpt><trkpt lat="45.7547350600" lon="7.0417358447"><ele>924.93</ele><time>2014-09-04T16:11:10Z</time></trkpt><trkpt lat="45.7548575196" lon="7.0413568150"><ele>924.45</ele><time>2014-09-04T16:11:20Z</time></trkpt><trkpt lat="45.7551564183" lon="7.0407021046"><ele>923.96</ele><time>2014-09-04T16:11:33Z</time></trkpt><trkpt lat="45.7552589290" lon="7.0404970832"><ele>924.45</ele><time>2014-09-04T16:11:37Z</time></trkpt><trkpt lat="45.7555749267" lon="7.0397421252"><ele>925.41</ele><time>2014-09-04T16:11:54Z</time></trkpt><trkpt lat="45.7556373719" lon="7.0395832881"><ele>925.41</ele><time>2014-09-04T16:12:01Z</time></trkpt><trkpt lat="45.7556465920" lon="7.0395629201"><ele>925.41</ele><time>2014-09-04T16:12:02Z</time></trkpt><trkpt lat="45.7556548063" lon="7.0395433065"><ele>925.41</ele><time>2014-09-04T16:12:03Z</time></trkpt><trkpt lat="45.7556639425" lon="7.0395240281"><ele>925.41</ele><time>2014-09-04T16:12:04Z</time></trkpt><trkpt lat="45.7556731626" lon="7.0395019837"><ele>925.41</ele><time>2014-09-04T16:12:05Z</time></trkpt><trkpt lat="45.7559299842" lon="7.0389199443"><ele>925.89</ele><time>2014-09-04T16:12:21Z</time></trkpt><trkpt lat="45.7561883144" lon="7.0382839255"><ele>926.85</ele><time>2014-09-04T16:12:37Z</time></trkpt><trkpt lat="45.7563333213" lon="7.0379762258"><ele>927.81</ele><time>2014-09-04T16:12:49Z</time></trkpt><trkpt lat="45.7563458104" lon="7.0379289519"><ele>927.33</ele><time>2014-09-04T16:12:56Z</time></trkpt><trkpt lat="45.7563181501" lon="7.0378786605"><ele>926.85</ele><time>2014-09-04T16:13:09Z</time></trkpt><trkpt lat="45.7563012186" lon="7.0378607232"><ele>925.89</ele><time>2014-09-04T16:13:23Z</time></trkpt><trkpt lat="45.7563425414" lon="7.0377905667"><ele>925.89</ele><time>2014-09-04T16:13:27Z</time></trkpt><trkpt lat="45.7563712075" lon="7.0377742220"><ele>925.89</ele><time>2014-09-04T16:13:28Z</time></trkpt><trkpt lat="45.7563883066" lon="7.0377591345"><ele>925.89</ele><time>2014-09-04T16:13:29Z</time></trkpt><trkpt lat="45.7564064953" lon="7.0377296302"><ele>926.37</ele><time>2014-09-04T16:13:30Z</time></trkpt><trkpt lat="45.7564230915" lon="7.0377000421"><ele>926.37</ele><time>2014-09-04T16:13:31Z</time></trkpt><trkpt lat="45.7564416155" lon="7.0376683585"><ele>926.85</ele><time>2014-09-04T16:13:32Z</time></trkpt><trkpt lat="45.7564604748" lon="7.0376368426"><ele>926.85</ele><time>2014-09-04T16:13:33Z</time></trkpt><trkpt lat="45.7566728722" lon="7.0371709764"><ele>927.33</ele><time>2014-09-04T16:13:48Z</time></trkpt><trkpt lat="45.7568526641" lon="7.0368123148"><ele>925.41</ele><time>2014-09-04T16:14:01Z</time></trkpt><trkpt lat="45.7569802366" lon="7.0363237336"><ele>924.45</ele><time>2014-09-04T16:14:16Z</time></trkpt><trkpt lat="45.7570864353" lon="7.0360179618"><ele>927.81</ele><time>2014-09-04T16:14:30Z</time></trkpt><trkpt lat="45.7570912968" lon="7.0359962527"><ele>927.81</ele><time>2014-09-04T16:14:31Z</time></trkpt><trkpt lat="45.7570918836" lon="7.0359763876"><ele>927.81</ele><time>2014-09-04T16:14:32Z</time></trkpt><trkpt lat="45.7570881117" lon="7.0359184686"><ele>928.29</ele><time>2014-09-04T16:14:35Z</time></trkpt><trkpt lat="45.7570938952" lon="7.0359051414"><ele>928.29</ele><time>2014-09-04T16:14:36Z</time></trkpt><trkpt lat="45.7570788078" lon="7.0358725358"><ele>928.29</ele><time>2014-09-04T16:14:40Z</time></trkpt><trkpt lat="45.7570695877" lon="7.0358660817"><ele>928.29</ele><time>2014-09-04T16:14:41Z</time></trkpt><trkpt lat="45.7570483815" lon="7.0358786546"><ele>928.29</ele><time>2014-09-04T16:14:53Z</time></trkpt><trkpt lat="45.7570721861" lon="7.0358915627"><ele>928.29</ele><time>2014-09-04T16:15:17Z</time></trkpt><trkpt lat="45.7570856810" lon="7.0358857792"><ele>928.77</ele><time>2014-09-04T16:15:18Z</time></trkpt><trkpt lat="45.7570960745" lon="7.0358742122"><ele>928.77</ele><time>2014-09-04T16:15:19Z</time></trkpt><trkpt lat="45.7571057975" lon="7.0358620584"><ele>928.77</ele><time>2014-09-04T16:15:20Z</time></trkpt><trkpt lat="45.7571140118" lon="7.0358462166"><ele>928.77</ele><time>2014-09-04T16:15:21Z</time></trkpt><trkpt lat="45.7571217231" lon="7.0358327217"><ele>928.77</ele><time>2014-09-04T16:15:22Z</time></trkpt><trkpt lat="45.7571313623" lon="7.0358232502"><ele>928.77</ele><time>2014-09-04T16:15:23Z</time></trkpt><trkpt lat="45.7571440190" lon="7.0358219091"><ele>928.77</ele><time>2014-09-04T16:15:24Z</time></trkpt><trkpt lat="45.7571277581" lon="7.0358728711"><ele>929.25</ele><time>2014-09-04T16:15:27Z</time></trkpt><trkpt lat="45.7571102399" lon="7.0358633995"><ele>929.25</ele><time>2014-09-04T16:15:28Z</time></trkpt><trkpt lat="45.7570961583" lon="7.0358463842"><ele>929.25</ele><time>2014-09-04T16:15:29Z</time></trkpt><trkpt lat="45.7570853457" lon="7.0358302910"><ele>929.25</ele><time>2014-09-04T16:15:30Z</time></trkpt><trkpt lat="45.7570700068" lon="7.0358063187"><ele>928.77</ele><time>2014-09-04T16:15:31Z</time></trkpt><trkpt lat="45.7568513229" lon="7.0354950149"><ele>927.81</ele><time>2014-09-04T16:15:44Z</time></trkpt><trkpt lat="45.7567776460" lon="7.0354337431"><ele>928.77</ele><time>2014-09-04T16:15:56Z</time></trkpt><trkpt lat="45.7568238303" lon="7.0354890637"><ele>929.25</ele><time>2014-09-04T16:16:10Z</time></trkpt><trkpt lat="45.7568243332" lon="7.0354745630"><ele>929.73</ele><time>2014-09-04T16:16:24Z</time></trkpt></trkseg><trkseg><trkpt lat="45.7559182495" lon="7.0394713897"><ele>958.57</ele><time>2014-09-04T17:14:42Z</time></trkpt><trkpt lat="45.7557299081" lon="7.0393629279"><ele>936.94</ele><time>2014-09-04T17:15:05Z</time></trkpt><trkpt lat="45.7556623500" lon="7.0393588208"><ele>931.65</ele><time>2014-09-04T17:15:25Z</time></trkpt><trkpt lat="45.7556509506" lon="7.0393651910"><ele>930.69</ele><time>2014-09-04T17:15:28Z</time></trkpt><trkpt lat="45.7556958776" lon="7.0393747464"><ele>930.21</ele><time>2014-09-04T17:15:31Z</time></trkpt><trkpt lat="45.7557266392" lon="7.0393558871"><ele>930.21</ele><time>2014-09-04T17:15:33Z</time></trkpt><trkpt lat="45.7557604183" lon="7.0393167436"><ele>929.73</ele><time>2014-09-04T17:15:34Z</time></trkpt><trkpt lat="45.7557799481" lon="7.0392813720"><ele>929.73</ele><time>2014-09-04T17:15:35Z</time></trkpt><trkpt lat="45.7557964604" lon="7.0392413065"><ele>929.73</ele><time>2014-09-04T17:15:36Z</time></trkpt><trkpt lat="45.7558115479" lon="7.0392031688"><ele>929.25</ele><time>2014-09-04T17:15:37Z</time></trkpt><trkpt lat="45.7558295690" lon="7.0391649473"><ele>929.25</ele><time>2014-09-04T17:15:38Z</time></trkpt><trkpt lat="45.7560829539" lon="7.0386237279"><ele>928.29</ele><time>2014-09-04T17:15:52Z</time></trkpt><trkpt lat="45.7565438747" lon="7.0380061492"><ele>928.29</ele><time>2014-09-04T17:16:10Z</time></trkpt><trkpt lat="45.7570286840" lon="7.0374641754"><ele>930.21</ele><time>2014-09-04T17:16:27Z</time></trkpt><trkpt lat="45.7575562410" lon="7.0368673839"><ele>931.65</ele><time>2014-09-04T17:16:46Z</time></trkpt><trkpt lat="45.7579385396" lon="7.0364282560"><ele>932.62</ele><time>2014-09-04T17:17:02Z</time></trkpt><trkpt lat="45.7582261227" lon="7.0359314606"><ele>932.62</ele><time>2014-09-04T17:17:17Z</time></trkpt><trkpt lat="45.7585233450" lon="7.0351973735"><ele>934.54</ele><time>2014-09-04T17:17:36Z</time></trkpt><trkpt lat="45.7586649153" lon="7.0346882567"><ele>935.50</ele><time>2014-09-04T17:17:51Z</time></trkpt><trkpt lat="45.7586413622" lon="7.0346746780"><ele>935.50</ele><time>2014-09-04T17:17:52Z</time></trkpt><trkpt lat="45.7586149592" lon="7.0346735884"><ele>935.02</ele><time>2014-09-04T17:17:53Z</time></trkpt><trkpt lat="45.7585976925" lon="7.0346701518"><ele>935.02</ele><time>2014-09-04T17:17:54Z</time></trkpt><trkpt lat="45.7585728820" lon="7.0346632786"><ele>935.02</ele><time>2014-09-04T17:17:55Z</time></trkpt><trkpt lat="45.7585467305" lon="7.0346504543"><ele>935.02</ele><time>2014-09-04T17:17:56Z</time></trkpt><trkpt lat="45.7585205790" lon="7.0346382167"><ele>935.02</ele><time>2014-09-04T17:17:57Z</time></trkpt><trkpt lat="45.7581872307" lon="7.0345226303"><ele>935.50</ele><time>2014-09-04T17:18:12Z</time></trkpt><trkpt lat="45.7578018308" lon="7.0344579220"><ele>934.06</ele><time>2014-09-04T17:18:28Z</time></trkpt><trkpt lat="45.7576583326" lon="7.0343662240"><ele>927.33</ele><time>2014-09-04T17:18:37Z</time></trkpt><trkpt lat="45.7576563209" lon="7.0343465265"><ele>927.33</ele><time>2014-09-04T17:18:38Z</time></trkpt><trkpt lat="45.7576628588" lon="7.0343308523"><ele>927.81</ele><time>2014-09-04T17:18:39Z</time></trkpt><trkpt lat="45.7576757669" lon="7.0343061257"><ele>927.81</ele><time>2014-09-04T17:18:40Z</time></trkpt><trkpt lat="45.7576876692" lon="7.0342784654"><ele>927.81</ele><time>2014-09-04T17:18:41Z</time></trkpt><trkpt lat="45.7576976437" lon="7.0342435129"><ele>927.81</ele><time>2014-09-04T17:18:42Z</time></trkpt><trkpt lat="45.7577080373" lon="7.0342049561"><ele>928.29</ele><time>2014-09-04T17:18:43Z</time></trkpt><trkpt lat="45.7577733323" lon="7.0340369828"><ele>929.25</ele><time>2014-09-04T17:18:48Z</time></trkpt><trkpt lat="45.7577818818" lon="7.0340052992"><ele>929.25</ele><time>2014-09-04T17:18:49Z</time></trkpt><trkpt lat="45.7578134816" lon="7.0338974241"><ele>929.25</ele><time>2014-09-04T17:18:53Z</time></trkpt><trkpt lat="45.7578263059" lon="7.0338591188"><ele>929.25</ele><time>2014-09-04T17:18:55Z</time></trkpt><trkpt lat="45.7578427345" lon="7.0338521618"><ele>929.25</ele><time>2014-09-04T17:18:56Z</time></trkpt><trkpt lat="45.7578592468" lon="7.0338585321"><ele>929.73</ele><time>2014-09-04T17:18:57Z</time></trkpt><trkpt lat="45.7578710653" lon="7.0338667464"><ele>930.69</ele><time>2014-09-04T17:18:58Z</time></trkpt><trkpt lat="45.7578826323" lon="7.0338793192"><ele>930.69</ele><time>2014-09-04T17:18:59Z</time></trkpt><trkpt lat="45.7578957919" lon="7.0338843483"><ele>931.17</ele><time>2014-09-04T17:19:00Z</time></trkpt><trkpt lat="45.7579078618" lon="7.0338918082"><ele>931.65</ele><time>2014-09-04T17:19:01Z</time></trkpt><trkpt lat="45.7579195965" lon="7.0338996872"><ele>931.65</ele><time>2014-09-04T17:19:02Z</time></trkpt><trkpt lat="45.7579300739" lon="7.0339084044"><ele>931.65</ele><time>2014-09-04T17:19:03Z</time></trkpt><trkpt lat="45.7579401322" lon="7.0339173730"><ele>931.65</ele><time>2014-09-04T17:19:04Z</time></trkpt><trkpt lat="45.7580174133" lon="7.0339566842"><ele>930.69</ele><time>2014-09-04T17:19:11Z</time></trkpt><trkpt lat="45.7580314111" lon="7.0339619648"><ele>930.69</ele><time>2014-09-04T17:19:12Z</time></trkpt><trkpt lat="45.7581430580" lon="7.0340405032"><ele>930.69</ele><time>2014-09-04T17:19:20Z</time></trkpt><trkpt lat="45.7581544574" lon="7.0340521540"><ele>931.17</ele><time>2014-09-04T17:19:21Z</time></trkpt><trkpt lat="45.7582081016" lon="7.0340877771"><ele>933.10</ele><time>2014-09-04T17:19:25Z</time></trkpt><trkpt lat="45.7582252007" lon="7.0340871904"><ele>933.58</ele><time>2014-09-04T17:19:26Z</time></trkpt><trkpt lat="45.7582419645" lon="7.0340975001"><ele>933.58</ele><time>2014-09-04T17:19:27Z</time></trkpt><trkpt lat="45.7582557108" lon="7.0341116656"><ele>934.06</ele><time>2014-09-04T17:19:28Z</time></trkpt><trkpt lat="45.7582676131" lon="7.0341197122"><ele>934.06</ele><time>2014-09-04T17:19:29Z</time></trkpt><trkpt lat="45.7583992928" lon="7.0341819059"><ele>935.02</ele><time>2014-09-04T17:19:36Z</time></trkpt><trkpt lat="45.7584147155" lon="7.0341903716"><ele>935.02</ele><time>2014-09-04T17:19:37Z</time></trkpt><trkpt lat="45.7584267017" lon="7.0342041180"><ele>935.02</ele><time>2014-09-04T17:19:38Z</time></trkpt><trkpt lat="45.7584398612" lon="7.0342143439"><ele>935.02</ele><time>2014-09-04T17:19:39Z</time></trkpt><trkpt lat="45.7584540267" lon="7.0342171099"><ele>935.02</ele><time>2014-09-04T17:19:40Z</time></trkpt><trkpt lat="45.7584676892" lon="7.0342223067"><ele>935.02</ele><time>2014-09-04T17:19:41Z</time></trkpt><trkpt lat="45.7584791724" lon="7.0342233125"><ele>935.02</ele><time>2014-09-04T17:19:42Z</time></trkpt><trkpt lat="45.7586260233" lon="7.0341606159"><ele>935.50</ele><time>2014-09-04T17:19:52Z</time></trkpt><trkpt lat="45.7586819306" lon="7.0341735240"><ele>936.94</ele><time>2014-09-04T17:19:55Z</time></trkpt><trkpt lat="45.7586947549" lon="7.0341908745"><ele>937.42</ele><time>2014-09-04T17:19:56Z</time></trkpt><trkpt lat="45.7587088365" lon="7.0342009328"><ele>937.42</ele><time>2014-09-04T17:19:57Z</time></trkpt><trkpt lat="45.7587398496" lon="7.0342158526"><ele>937.42</ele><time>2014-09-04T17:20:00Z</time></trkpt><trkpt lat="45.7587545179" lon="7.0342104044"><ele>937.42</ele><time>2014-09-04T17:20:01Z</time></trkpt><trkpt lat="45.7587741315" lon="7.0341876894"><ele>937.42</ele><time>2014-09-04T17:20:02Z</time></trkpt><trkpt lat="45.7587909792" lon="7.0341580175"><ele>936.94</ele><time>2014-09-04T17:20:03Z</time></trkpt><trkpt lat="45.7588013727" lon="7.0341346320"><ele>936.94</ele><time>2014-09-04T17:20:04Z</time></trkpt><trkpt lat="45.7588151190" lon="7.0341003500"><ele>936.94</ele><time>2014-09-04T17:20:05Z</time></trkpt><trkpt lat="45.7588251773" lon="7.0340659842"><ele>936.94</ele><time>2014-09-04T17:20:06Z</time></trkpt><trkpt lat="45.7588352356" lon="7.0340268407"><ele>936.94</ele><time>2014-09-04T17:20:07Z</time></trkpt><trkpt lat="45.7589996886" lon="7.0333127864"><ele>937.42</ele><time>2014-09-04T17:20:24Z</time></trkpt><trkpt lat="45.7591775525" lon="7.0325201936"><ele>938.38</ele><time>2014-09-04T17:20:42Z</time></trkpt><trkpt lat="45.7593580149" lon="7.0317834243"><ele>938.38</ele><time>2014-09-04T17:20:59Z</time></trkpt><trkpt lat="45.7595699094" lon="7.0309961960"><ele>939.83</ele><time>2014-09-04T17:21:19Z</time></trkpt><trkpt lat="45.7597573288" lon="7.0305555593"><ele>940.79</ele><time>2014-09-04T17:21:33Z</time></trkpt><trkpt lat="45.7599110529" lon="7.0301603526"><ele>940.79</ele><time>2014-09-04T17:21:48Z</time></trkpt><trkpt lat="45.7600201853" lon="7.0299287606"><ele>942.23</ele><time>2014-09-04T17:21:58Z</time></trkpt><trkpt lat="45.7600320876" lon="7.0299119968"><ele>942.23</ele><time>2014-09-04T17:21:59Z</time></trkpt><trkpt lat="45.7600424811" lon="7.0298981667"><ele>942.23</ele><time>2014-09-04T17:22:00Z</time></trkpt><trkpt lat="45.7600723207" lon="7.0298491325"><ele>943.19</ele><time>2014-09-04T17:22:04Z</time></trkpt><trkpt lat="45.7602070179" lon="7.0294286124"><ele>943.67</ele><time>2014-09-04T17:22:18Z</time></trkpt><trkpt lat="45.7603732310" lon="7.0287860557"><ele>944.15</ele><time>2014-09-04T17:22:34Z</time></trkpt><trkpt lat="45.7604217622" lon="7.0280825626"><ele>944.63</ele><time>2014-09-04T17:22:49Z</time></trkpt><trkpt lat="45.7603317406" lon="7.0270865411"><ele>944.63</ele><time>2014-09-04T17:23:07Z</time></trkpt><trkpt lat="45.7602487598" lon="7.0261504501"><ele>947.04</ele><time>2014-09-04T17:23:24Z</time></trkpt><trkpt lat="45.7602837961" lon="7.0252876170"><ele>948.48</ele><time>2014-09-04T17:23:40Z</time></trkpt><trkpt lat="45.7603034098" lon="7.0243283920"><ele>949.44</ele><time>2014-09-04T17:23:57Z</time></trkpt><trkpt lat="45.7603197545" lon="7.0236775372"><ele>950.40</ele><time>2014-09-04T17:24:08Z</time></trkpt><trkpt lat="45.7603221014" lon="7.0236189477"><ele>950.40</ele><time>2014-09-04T17:24:09Z</time></trkpt><trkpt lat="45.7603264600" lon="7.0235616993"><ele>950.40</ele><time>2014-09-04T17:24:10Z</time></trkpt><trkpt lat="45.7603956945" lon="7.0226377621"><ele>951.84</ele><time>2014-09-04T17:24:27Z</time></trkpt><trkpt lat="45.7605180703" lon="7.0220080297"><ele>955.21</ele><time>2014-09-04T17:24:43Z</time></trkpt><trkpt lat="45.7606571261" lon="7.0213139243"><ele>956.65</ele><time>2014-09-04T17:25:02Z</time></trkpt><trkpt lat="45.7607468124" lon="7.0206508320"><ele>957.13</ele><time>2014-09-04T17:25:19Z</time></trkpt><trkpt lat="45.7606858760" lon="7.0197921898"><ele>957.61</ele><time>2014-09-04T17:25:38Z</time></trkpt><trkpt lat="45.7605828624" lon="7.0191065501"><ele>958.09</ele><time>2014-09-04T17:25:53Z</time></trkpt><trkpt lat="45.7604595646" lon="7.0182582177"><ele>956.65</ele><time>2014-09-04T17:26:12Z</time></trkpt><trkpt lat="45.7604278810" lon="7.0175232925"><ele>956.17</ele><time>2014-09-04T17:26:29Z</time></trkpt><trkpt lat="45.7605099399" lon="7.0168394130"><ele>959.05</ele><time>2014-09-04T17:26:45Z</time></trkpt><trkpt lat="45.7605804317" lon="7.0162336528"><ele>960.01</ele><time>2014-09-04T17:26:59Z</time></trkpt><trkpt lat="45.7606674358" lon="7.0155683812"><ele>962.90</ele><time>2014-09-04T17:27:14Z</time></trkpt><trkpt lat="45.7607912365" lon="7.0147311967"><ele>964.34</ele><time>2014-09-04T17:27:33Z</time></trkpt><trkpt lat="45.7609623112" lon="7.0140044019"><ele>963.38</ele><time>2014-09-04T17:27:51Z</time></trkpt><trkpt lat="45.7610242534" lon="7.0138477441"><ele>964.34</ele><time>2014-09-04T17:28:02Z</time></trkpt><trkpt lat="45.7610222418" lon="7.0138481632"><ele>964.82</ele><time>2014-09-04T17:28:15Z</time></trkpt><trkpt lat="45.7610140275" lon="7.0138311479"><ele>962.90</ele><time>2014-09-04T17:28:43Z</time></trkpt><trkpt lat="45.7610079087" lon="7.0137778390"><ele>962.42</ele><time>2014-09-04T17:28:52Z</time></trkpt><trkpt lat="45.7610166259" lon="7.0137619134"><ele>962.42</ele><time>2014-09-04T17:28:53Z</time></trkpt><trkpt lat="45.7610358205" lon="7.0137203392"><ele>962.42</ele><time>2014-09-04T17:29:03Z</time></trkpt><trkpt lat="45.7610405982" lon="7.0137013961"><ele>962.42</ele><time>2014-09-04T17:29:04Z</time></trkpt><trkpt lat="45.7610470522" lon="7.0136784296"><ele>962.90</ele><time>2014-09-04T17:29:05Z</time></trkpt><trkpt lat="45.7611815818" lon="7.0131273195"><ele>962.42</ele><time>2014-09-04T17:29:20Z</time></trkpt><trkpt lat="45.7613001857" lon="7.0125035383"><ele>963.86</ele><time>2014-09-04T17:29:35Z</time></trkpt><trkpt lat="45.7614083961" lon="7.0118248556"><ele>962.90</ele><time>2014-09-04T17:29:51Z</time></trkpt><trkpt lat="45.7615149301" lon="7.0110557321"><ele>961.94</ele><time>2014-09-04T17:30:08Z</time></trkpt><trkpt lat="45.7616145909" lon="7.0101587009"><ele>963.38</ele><time>2014-09-04T17:30:29Z</time></trkpt><trkpt lat="45.7615811471" lon="7.0095062535"><ele>964.82</ele><time>2014-09-04T17:30:43Z</time></trkpt><trkpt lat="45.7615177799" lon="7.0090498589"><ele>964.82</ele><time>2014-09-04T17:30:57Z</time></trkpt><trkpt lat="45.7615063805" lon="7.0090140682"><ele>970.11</ele><time>2014-09-04T17:31:15Z</time></trkpt><trkpt lat="45.7614831626" lon="7.0089546405"><ele>972.51</ele><time>2014-09-04T17:31:42Z</time></trkpt><trkpt lat="45.7614280935" lon="7.0082901232"><ele>974.91</ele><time>2014-09-04T17:31:57Z</time></trkpt><trkpt lat="45.7615721785" lon="7.0074084308"><ele>976.84</ele><time>2014-09-04T17:32:17Z</time></trkpt><trkpt lat="45.7617901079" lon="7.0065248106"><ele>979.24</ele><time>2014-09-04T17:32:39Z</time></trkpt><trkpt lat="45.7620352786" lon="7.0058350638"><ele>981.64</ele><time>2014-09-04T17:32:58Z</time></trkpt><trkpt lat="45.7621871587" lon="7.0054435451"><ele>984.05</ele><time>2014-09-04T17:33:12Z</time></trkpt><trkpt lat="45.7623491809" lon="7.0049369428"><ele>986.45</ele><time>2014-09-04T17:33:28Z</time></trkpt><trkpt lat="45.7624328323" lon="7.0043935440"><ele>988.37</ele><time>2014-09-04T17:33:44Z</time></trkpt><trkpt lat="45.7624827884" lon="7.0040359721"><ele>988.85</ele><time>2014-09-04T17:33:55Z</time></trkpt><trkpt lat="45.7625185791" lon="7.0038672443"><ele>987.89</ele><time>2014-09-04T17:34:02Z</time></trkpt><trkpt lat="45.7625215128" lon="7.0038470440"><ele>987.89</ele><time>2014-09-04T17:34:03Z</time></trkpt><trkpt lat="45.7625283860" lon="7.0038296934"><ele>987.89</ele><time>2014-09-04T17:34:04Z</time></trkpt><trkpt lat="45.7625373546" lon="7.0038133487"><ele>987.89</ele><time>2014-09-04T17:34:05Z</time></trkpt><trkpt lat="45.7625471614" lon="7.0037956629"><ele>987.89</ele><time>2014-09-04T17:34:06Z</time></trkpt><trkpt lat="45.7625534479" lon="7.0037761331"><ele>987.89</ele><time>2014-09-04T17:34:07Z</time></trkpt><trkpt lat="45.7625588961" lon="7.0037582796"><ele>987.89</ele><time>2014-09-04T17:34:08Z</time></trkpt><trkpt lat="45.7625628356" lon="7.0037408452"><ele>987.89</ele><time>2014-09-04T17:34:09Z</time></trkpt><trkpt lat="45.7625652663" lon="7.0037213154"><ele>987.89</ele><time>2014-09-04T17:34:10Z</time></trkpt><trkpt lat="45.7625832874" lon="7.0036090817"><ele>988.37</ele><time>2014-09-04T17:34:17Z</time></trkpt><trkpt lat="45.7625842933" lon="7.0035901386"><ele>988.37</ele><time>2014-09-04T17:34:18Z</time></trkpt><trkpt lat="45.7625899091" lon="7.0035634842"><ele>988.37</ele><time>2014-09-04T17:34:19Z</time></trkpt><trkpt lat="45.7625934295" lon="7.0035467204"><ele>988.37</ele><time>2014-09-04T17:34:20Z</time></trkpt><trkpt lat="45.7625976205" lon="7.0035242569"><ele>988.85</ele><time>2014-09-04T17:34:21Z</time></trkpt><trkpt lat="45.7625974528" lon="7.0035000332"><ele>988.85</ele><time>2014-09-04T17:34:22Z</time></trkpt><trkpt lat="45.7625982072" lon="7.0034795813"><ele>988.85</ele><time>2014-09-04T17:34:23Z</time></trkpt><trkpt lat="45.7625847124" lon="7.0029843785"><ele>991.26</ele><time>2014-09-04T17:34:39Z</time></trkpt><trkpt lat="45.7625258714" lon="7.0025314204"><ele>994.14</ele><time>2014-09-04T17:34:54Z</time></trkpt><trkpt lat="45.7625176571" lon="7.0025347732"><ele>993.18</ele><time>2014-09-04T17:35:07Z</time></trkpt><trkpt lat="45.7624998875" lon="7.0024962164"><ele>991.26</ele><time>2014-09-04T17:35:40Z</time></trkpt><trkpt lat="45.7624848839" lon="7.0021029375"><ele>994.62</ele><time>2014-09-04T17:35:52Z</time></trkpt><trkpt lat="45.7625526935" lon="7.0015131030"><ele>997.99</ele><time>2014-09-04T17:36:08Z</time></trkpt><trkpt lat="45.7627380174" lon="7.0009845402"><ele>1000.39</ele><time>2014-09-04T17:36:23Z</time></trkpt><trkpt lat="45.7629771531" lon="7.0004043449"><ele>1001.35</ele><time>2014-09-04T17:36:40Z</time></trkpt><trkpt lat="45.7632599585" lon="6.9997293502"><ele>1004.72</ele><time>2014-09-04T17:36:59Z</time></trkpt><trkpt lat="45.7634670753" lon="6.9990898948"><ele>1009.52</ele><time>2014-09-04T17:37:16Z</time></trkpt><trkpt lat="45.7636260800" lon="6.9984782673"><ele>1011.93</ele><time>2014-09-04T17:37:33Z</time></trkpt><trkpt lat="45.7636477891" lon="6.9978251494"><ele>1011.93</ele><time>2014-09-04T17:37:50Z</time></trkpt><trkpt lat="45.7635015249" lon="6.9971855264"><ele>1011.44</ele><time>2014-09-04T17:38:08Z</time></trkpt><trkpt lat="45.7633758802" lon="6.9967831951"><ele>1011.44</ele><time>2014-09-04T17:38:20Z</time></trkpt><trkpt lat="45.7632378303" lon="6.9963749964"><ele>1012.89</ele><time>2014-09-04T17:38:34Z</time></trkpt><trkpt lat="45.7632321306" lon="6.9963542093"><ele>1013.37</ele><time>2014-09-04T17:38:35Z</time></trkpt><trkpt lat="45.7632298674" lon="6.9963345118"><ele>1013.37</ele><time>2014-09-04T17:38:36Z</time></trkpt><trkpt lat="45.7632231619" lon="6.9963149820"><ele>1013.37</ele><time>2014-09-04T17:38:37Z</time></trkpt><trkpt lat="45.7632158697" lon="6.9962983858"><ele>1013.37</ele><time>2014-09-04T17:38:38Z</time></trkpt><trkpt lat="45.7632091641" lon="6.9962776825"><ele>1013.37</ele><time>2014-09-04T17:38:39Z</time></trkpt><trkpt lat="45.7632044703" lon="6.9962548837"><ele>1013.37</ele><time>2014-09-04T17:38:40Z</time></trkpt><trkpt lat="45.7630131952" lon="6.9957937114"><ele>1012.89</ele><time>2014-09-04T17:38:53Z</time></trkpt><trkpt lat="45.7627929188" lon="6.9952907134"><ele>1012.89</ele><time>2014-09-04T17:39:05Z</time></trkpt><trkpt lat="45.7626997121" lon="6.9943294767"><ele>1012.89</ele><time>2014-09-04T17:39:23Z</time></trkpt><trkpt lat="45.7627887279" lon="6.9936462678"><ele>1011.93</ele><time>2014-09-04T17:39:37Z</time></trkpt><trkpt lat="45.7628526818" lon="6.9931275956"><ele>1012.41</ele><time>2014-09-04T17:39:53Z</time></trkpt><trkpt lat="45.7628732175" lon="6.9931242429"><ele>1013.85</ele><time>2014-09-04T17:40:13Z</time></trkpt><trkpt lat="45.7628862094" lon="6.9930977561"><ele>1014.81</ele><time>2014-09-04T17:40:35Z</time></trkpt><trkpt lat="45.7628810965" lon="6.9930244144"><ele>1014.81</ele><time>2014-09-04T17:40:38Z</time></trkpt><trkpt lat="45.7628437132" lon="6.9925327320"><ele>1013.85</ele><time>2014-09-04T17:40:54Z</time></trkpt><trkpt lat="45.7626929227" lon="6.9919634331"><ele>1012.41</ele><time>2014-09-04T17:41:10Z</time></trkpt><trkpt lat="45.7624289766" lon="6.9912269991"><ele>1012.41</ele><time>2014-09-04T17:41:29Z</time></trkpt><trkpt lat="45.7624412980" lon="6.9905950874"><ele>1012.89</ele><time>2014-09-04T17:41:44Z</time></trkpt><trkpt lat="45.7626666036" lon="6.9900391996"><ele>1012.41</ele><time>2014-09-04T17:41:59Z</time></trkpt><trkpt lat="45.7630527578" lon="6.9896006584"><ele>1012.89</ele><time>2014-09-04T17:42:18Z</time></trkpt><trkpt lat="45.7633248344" lon="6.9892576709"><ele>1012.89</ele><time>2014-09-04T17:42:33Z</time></trkpt><trkpt lat="45.7634715177" lon="6.9888978358"><ele>1013.37</ele><time>2014-09-04T17:42:47Z</time></trkpt><trkpt lat="45.7634814922" lon="6.9888782222"><ele>1013.37</ele><time>2014-09-04T17:43:00Z</time></trkpt><trkpt lat="45.7635121699" lon="6.9888814911"><ele>1017.21</ele><time>2014-09-04T17:43:24Z</time></trkpt><trkpt lat="45.7634922210" lon="6.9888700917"><ele>1016.25</ele><time>2014-09-04T17:43:41Z</time></trkpt><trkpt lat="45.7635014411" lon="6.9888577703"><ele>1016.25</ele><time>2014-09-04T17:43:42Z</time></trkpt><trkpt lat="45.7635022793" lon="6.9888430182"><ele>1016.25</ele><time>2014-09-04T17:43:43Z</time></trkpt><trkpt lat="45.7634988427" lon="6.9888243265"><ele>1016.25</ele><time>2014-09-04T17:43:44Z</time></trkpt><trkpt lat="45.7634939812" lon="6.9887970015"><ele>1016.25</ele><time>2014-09-04T17:43:45Z</time></trkpt><trkpt lat="45.7635011058" lon="6.9886020385"><ele>1017.69</ele><time>2014-09-04T17:43:52Z</time></trkpt><trkpt lat="45.7636117470" lon="6.9881157205"><ele>1018.17</ele><time>2014-09-04T17:44:09Z</time></trkpt><trkpt lat="45.7637384813" lon="6.9876054302"><ele>1017.69</ele><time>2014-09-04T17:44:26Z</time></trkpt><trkpt lat="45.7638687361" lon="6.9870671444"><ele>1018.65</ele><time>2014-09-04T17:44:43Z</time></trkpt><trkpt lat="45.7639709953" lon="6.9865585305"><ele>1022.02</ele><time>2014-09-04T17:45:00Z</time></trkpt><trkpt lat="45.7641578279" lon="6.9861991983"><ele>1025.86</ele><time>2014-09-04T17:45:15Z</time></trkpt><trkpt lat="45.7643915992" lon="6.9857370201"><ele>1028.27</ele><time>2014-09-04T17:45:33Z</time></trkpt><trkpt lat="45.7645702176" lon="6.9853231218"><ele>1029.71</ele><time>2014-09-04T17:45:49Z</time></trkpt><trkpt lat="45.7648032345" lon="6.9848164357"><ele>1032.11</ele><time>2014-09-04T17:46:08Z</time></trkpt><trkpt lat="45.7650726289" lon="6.9844671618"><ele>1034.52</ele><time>2014-09-04T17:46:24Z</time></trkpt><trkpt lat="45.7653471362" lon="6.9841818418"><ele>1036.92</ele><time>2014-09-04T17:46:40Z</time></trkpt><trkpt lat="45.7656389102" lon="6.9838588871"><ele>1039.80</ele><time>2014-09-04T17:46:57Z</time></trkpt><trkpt lat="45.7659635413" lon="6.9835230242"><ele>1042.69</ele><time>2014-09-04T17:47:15Z</time></trkpt><trkpt lat="45.7661457639" lon="6.9833118003"><ele>1045.09</ele><time>2014-09-04T17:47:26Z</time></trkpt><trkpt lat="45.7661667187" lon="6.9832961261"><ele>1045.09</ele><time>2014-09-04T17:47:27Z</time></trkpt><trkpt lat="45.7661863323" lon="6.9832799491"><ele>1045.09</ele><time>2014-09-04T17:47:28Z</time></trkpt><trkpt lat="45.7663323451" lon="6.9831554778"><ele>1046.53</ele><time>2014-09-04T17:47:38Z</time></trkpt><trkpt lat="45.7663407270" lon="6.9831446651"><ele>1046.53</ele><time>2014-09-04T17:47:39Z</time></trkpt><trkpt lat="45.7663421519" lon="6.9831522927"><ele>1044.61</ele><time>2014-09-04T17:47:50Z</time></trkpt><trkpt lat="45.7663798705" lon="6.9831425697"><ele>1048.45</ele><time>2014-09-04T17:48:15Z</time></trkpt><trkpt lat="45.7663570717" lon="6.9831608422"><ele>1046.05</ele><time>2014-09-04T17:48:49Z</time></trkpt><trkpt lat="45.7663943712" lon="6.9831391331"><ele>1046.53</ele><time>2014-09-04T17:49:17Z</time></trkpt><trkpt lat="45.7663972210" lon="6.9831271470"><ele>1050.38</ele><time>2014-09-04T17:49:45Z</time></trkpt><trkpt lat="45.7663500309" lon="6.9831757620"><ele>1046.53</ele><time>2014-09-04T17:50:17Z</time></trkpt><trkpt lat="45.7663698960" lon="6.9831674639"><ele>1044.61</ele><time>2014-09-04T17:50:44Z</time></trkpt><trkpt lat="45.7663681358" lon="6.9831464253"><ele>1042.21</ele><time>2014-09-04T17:51:13Z</time></trkpt><trkpt lat="45.7663280703" lon="6.9831693079"><ele>1044.13</ele><time>2014-09-04T17:51:38Z</time></trkpt><trkpt lat="45.7663577422" lon="6.9831835572"><ele>1042.69</ele><time>2014-09-04T17:52:04Z</time></trkpt><trkpt lat="45.7663553953" lon="6.9831225369"><ele>1045.57</ele><time>2014-09-04T17:52:35Z</time></trkpt><trkpt lat="45.7663538028" lon="6.9830951281"><ele>1046.53</ele><time>2014-09-04T17:52:46Z</time></trkpt><trkpt lat="45.7663520426" lon="6.9830789510"><ele>1047.01</ele><time>2014-09-04T17:52:47Z</time></trkpt><trkpt lat="45.7663473487" lon="6.9830533024"><ele>1047.01</ele><time>2014-09-04T17:52:48Z</time></trkpt><trkpt lat="45.7663367037" lon="6.9830322638"><ele>1047.01</ele><time>2014-09-04T17:52:49Z</time></trkpt><trkpt lat="45.7663169224" lon="6.9830103032"><ele>1047.01</ele><time>2014-09-04T17:52:50Z</time></trkpt><trkpt lat="45.7662682235" lon="6.9829832297"><ele>1046.53</ele><time>2014-09-04T17:52:52Z</time></trkpt><trkpt lat="45.7662399765" lon="6.9829921983"><ele>1046.53</ele><time>2014-09-04T17:52:53Z</time></trkpt><trkpt lat="45.7659247331" lon="6.9831994828"><ele>1047.49</ele><time>2014-09-04T17:53:06Z</time></trkpt><trkpt lat="45.7654172927" lon="6.9832910132"><ele>1049.42</ele><time>2014-09-04T17:53:24Z</time></trkpt><trkpt lat="45.7649800088" lon="6.9833076932"><ele>1051.34</ele><time>2014-09-04T17:53:41Z</time></trkpt><trkpt lat="45.7646811102" lon="6.9833236188"><ele>1053.74</ele><time>2014-09-04T17:53:55Z</time></trkpt><trkpt lat="45.7643699739" lon="6.9833441544"><ele>1055.18</ele><time>2014-09-04T17:54:11Z</time></trkpt><trkpt lat="45.7640821394" lon="6.9833564758"><ele>1058.07</ele><time>2014-09-04T17:54:26Z</time></trkpt><trkpt lat="45.7637949754" lon="6.9833428133"><ele>1059.03</ele><time>2014-09-04T17:54:40Z</time></trkpt><trkpt lat="45.7634935621" lon="6.9832522888"><ele>1060.95</ele><time>2014-09-04T17:54:56Z</time></trkpt><trkpt lat="45.7632221561" lon="6.9831703976"><ele>1062.39</ele><time>2014-09-04T17:55:11Z</time></trkpt><trkpt lat="45.7629841100" lon="6.9831345230"><ele>1064.80</ele><time>2014-09-04T17:55:24Z</time></trkpt><trkpt lat="45.7627072558" lon="6.9831934478"><ele>1069.12</ele><time>2014-09-04T17:55:40Z</time></trkpt><trkpt lat="45.7624172419" lon="6.9832993951"><ele>1070.57</ele><time>2014-09-04T17:55:55Z</time></trkpt><trkpt lat="45.7621678803" lon="6.9834469166"><ele>1073.93</ele><time>2014-09-04T17:56:10Z</time></trkpt><trkpt lat="45.7619432453" lon="6.9835953601"><ele>1077.29</ele><time>2014-09-04T17:56:24Z</time></trkpt><trkpt lat="45.7616935484" lon="6.9837391935"><ele>1078.26</ele><time>2014-09-04T17:56:39Z</time></trkpt><trkpt lat="45.7615379803" lon="6.9838241022"><ele>1081.14</ele><time>2014-09-04T17:56:49Z</time></trkpt><trkpt lat="45.7614916284" lon="6.9838391058"><ele>1083.06</ele><time>2014-09-04T17:57:04Z</time></trkpt><trkpt lat="45.7614509761" lon="6.9838629942"><ele>1078.74</ele><time>2014-09-04T17:57:31Z</time></trkpt><trkpt lat="45.7614410855" lon="6.9838979468"><ele>1077.29</ele><time>2014-09-04T17:57:57Z</time></trkpt><trkpt lat="45.7614461984" lon="6.9839784130"><ele>1078.26</ele><time>2014-09-04T17:58:14Z</time></trkpt><trkpt lat="45.7614351343" lon="6.9839908183"><ele>1078.26</ele><time>2014-09-04T17:58:15Z</time></trkpt><trkpt lat="45.7614211366" lon="6.9840029720"><ele>1078.74</ele><time>2014-09-04T17:58:16Z</time></trkpt><trkpt lat="45.7614041213" lon="6.9840167183"><ele>1079.22</ele><time>2014-09-04T17:58:17Z</time></trkpt><trkpt lat="45.7613831665" lon="6.9840261899"><ele>1080.18</ele><time>2014-09-04T17:58:18Z</time></trkpt><trkpt lat="45.7613633852" lon="6.9840420317"><ele>1080.18</ele><time>2014-09-04T17:58:19Z</time></trkpt><trkpt lat="45.7613429334" lon="6.9840589631"><ele>1081.14</ele><time>2014-09-04T17:58:20Z</time></trkpt><trkpt lat="45.7613248285" lon="6.9840804208"><ele>1082.10</ele><time>2014-09-04T17:58:21Z</time></trkpt><trkpt lat="45.7613077294" lon="6.9841009565"><ele>1082.58</ele><time>2014-09-04T17:58:22Z</time></trkpt><trkpt lat="45.7612913009" lon="6.9841164630"><ele>1082.58</ele><time>2014-09-04T17:58:23Z</time></trkpt><trkpt lat="45.7612738665" lon="6.9841290358"><ele>1082.58</ele><time>2014-09-04T17:58:24Z</time></trkpt><trkpt lat="45.7612555940" lon="6.9841443747"><ele>1082.58</ele><time>2014-09-04T17:58:25Z</time></trkpt><trkpt lat="45.7612426020" lon="6.9841627311"><ele>1082.10</ele><time>2014-09-04T17:58:26Z</time></trkpt><trkpt lat="45.7612275984" lon="6.9841786567"><ele>1082.10</ele><time>2014-09-04T17:58:27Z</time></trkpt><trkpt lat="45.7612136845" lon="6.9841951691"><ele>1082.10</ele><time>2014-09-04T17:58:28Z</time></trkpt><trkpt lat="45.7611981779" lon="6.9842096698"><ele>1082.10</ele><time>2014-09-04T17:58:29Z</time></trkpt><trkpt lat="45.7608816773" lon="6.9844413456"><ele>1082.58</ele><time>2014-09-04T17:58:46Z</time></trkpt><trkpt lat="45.7608269434" lon="6.9844840094"><ele>1083.54</ele><time>2014-09-04T17:58:49Z</time></trkpt><trkpt lat="45.7608091738" lon="6.9844870269"><ele>1084.02</ele><time>2014-09-04T17:58:50Z</time></trkpt><trkpt lat="45.7607931644" lon="6.9844796509"><ele>1084.02</ele><time>2014-09-04T17:58:51Z</time></trkpt><trkpt lat="45.7607795857" lon="6.9844572712"><ele>1084.50</ele><time>2014-09-04T17:58:52Z</time></trkpt><trkpt lat="45.7607782446" lon="6.9844287727"><ele>1084.99</ele><time>2014-09-04T17:58:53Z</time></trkpt><trkpt lat="45.7607903145" lon="6.9844027050"><ele>1085.47</ele><time>2014-09-04T17:58:54Z</time></trkpt><trkpt lat="45.7608048152" lon="6.9843871146"><ele>1085.95</ele><time>2014-09-04T17:58:55Z</time></trkpt><trkpt lat="45.7610569429" lon="6.9842761382"><ele>1089.79</ele><time>2014-09-04T17:59:09Z</time></trkpt><trkpt lat="45.7611755468" lon="6.9841121882"><ele>1089.79</ele><time>2014-09-04T17:59:23Z</time></trkpt><trkpt lat="45.7611667458" lon="6.9841506612"><ele>1087.87</ele><time>2014-09-04T17:59:42Z</time></trkpt><trkpt lat="45.7612044644" lon="6.9839761499"><ele>1089.79</ele><time>2014-09-04T17:59:59Z</time></trkpt><trkpt lat="45.7613345515" lon="6.9836175721"><ele>1090.75</ele><time>2014-09-04T18:00:12Z</time></trkpt><trkpt lat="45.7613503933" lon="6.9835970365"><ele>1090.75</ele><time>2014-09-04T18:00:13Z</time></trkpt><trkpt lat="45.7616592664" lon="6.9833050948"><ele>1093.16</ele><time>2014-09-04T18:00:31Z</time></trkpt><trkpt lat="45.7619172614" lon="6.9830217026"><ele>1096.52</ele><time>2014-09-04T18:00:47Z</time></trkpt><trkpt lat="45.7619888429" lon="6.9829582516"><ele>1097.48</ele><time>2014-09-04T18:00:52Z</time></trkpt><trkpt lat="45.7619386353" lon="6.9827404898"><ele>1099.89</ele><time>2014-09-04T18:01:05Z</time></trkpt><trkpt lat="45.7617568318" lon="6.9829264842"><ele>1101.33</ele><time>2014-09-04T18:01:17Z</time></trkpt><trkpt lat="45.7615585160" lon="6.9831481855"><ele>1104.21</ele><time>2014-09-04T18:01:29Z</time></trkpt><trkpt lat="45.7613456156" lon="6.9832503609"><ele>1105.65</ele><time>2014-09-04T18:01:41Z</time></trkpt><trkpt lat="45.7611183822" lon="6.9836086873"><ele>1105.65</ele><time>2014-09-04T18:01:56Z</time></trkpt><trkpt lat="45.7607838605" lon="6.9839266129"><ele>1104.69</ele><time>2014-09-04T18:02:15Z</time></trkpt><trkpt lat="45.7606489118" lon="6.9839589670"><ele>1105.65</ele><time>2014-09-04T18:02:22Z</time></trkpt><trkpt lat="45.7606353331" lon="6.9839367550"><ele>1105.65</ele><time>2014-09-04T18:02:23Z</time></trkpt><trkpt lat="45.7606342435" lon="6.9839102682"><ele>1105.65</ele><time>2014-09-04T18:02:24Z</time></trkpt><trkpt lat="45.7606426254" lon="6.9838858768"><ele>1105.65</ele><time>2014-09-04T18:02:25Z</time></trkpt><trkpt lat="45.7606558688" lon="6.9838647544"><ele>1105.65</ele><time>2014-09-04T18:02:26Z</time></trkpt><trkpt lat="45.7606720459" lon="6.9838505890"><ele>1106.13</ele><time>2014-09-04T18:02:27Z</time></trkpt><trkpt lat="45.7606909052" lon="6.9838405307"><ele>1106.13</ele><time>2014-09-04T18:02:28Z</time></trkpt><trkpt lat="45.7607095130" lon="6.9838354178"><ele>1106.61</ele><time>2014-09-04T18:02:29Z</time></trkpt><trkpt lat="45.7607274503" lon="6.9838323165"><ele>1106.61</ele><time>2014-09-04T18:02:30Z</time></trkpt><trkpt lat="45.7609475590" lon="6.9837144669"><ele>1108.54</ele><time>2014-09-04T18:02:44Z</time></trkpt><trkpt lat="45.7610618044" lon="6.9833788555"><ele>1109.02</ele><time>2014-09-04T18:02:59Z</time></trkpt><trkpt lat="45.7611032110" lon="6.9832377881"><ele>1109.50</ele><time>2014-09-04T18:03:05Z</time></trkpt><trkpt lat="45.7611133531" lon="6.9832138997"><ele>1109.98</ele><time>2014-09-04T18:03:06Z</time></trkpt><trkpt lat="45.7611203939" lon="6.9831888378"><ele>1109.98</ele><time>2014-09-04T18:03:07Z</time></trkpt><trkpt lat="45.7611309551" lon="6.9831673801"><ele>1109.98</ele><time>2014-09-04T18:03:08Z</time></trkpt><trkpt lat="45.7611420192" lon="6.9831475988"><ele>1110.46</ele><time>2014-09-04T18:03:09Z</time></trkpt><trkpt lat="45.7611533348" lon="6.9831280690"><ele>1110.94</ele><time>2014-09-04T18:03:10Z</time></trkpt><trkpt lat="45.7611682545" lon="6.9831092935"><ele>1110.94</ele><time>2014-09-04T18:03:11Z</time></trkpt><trkpt lat="45.7611818332" lon="6.9830937032"><ele>1110.94</ele><time>2014-09-04T18:03:12Z</time></trkpt><trkpt lat="45.7611970883" lon="6.9830806274"><ele>1110.94</ele><time>2014-09-04T18:03:13Z</time></trkpt><trkpt lat="45.7612140197" lon="6.9830652885"><ele>1110.46</ele><time>2014-09-04T18:03:14Z</time></trkpt><trkpt lat="45.7614632975" lon="6.9828118198"><ele>1112.38</ele><time>2014-09-04T18:03:30Z</time></trkpt><trkpt lat="45.7616921235" lon="6.9825521484"><ele>1113.82</ele><time>2014-09-04T18:03:45Z</time></trkpt><trkpt lat="45.7618269883" lon="6.9824315328"><ele>1115.27</ele><time>2014-09-04T18:03:54Z</time></trkpt><trkpt lat="45.7618373819" lon="6.9824226480"><ele>1115.27</ele><time>2014-09-04T18:03:55Z</time></trkpt><trkpt lat="45.7618474402" lon="6.9824160263"><ele>1115.75</ele><time>2014-09-04T18:03:56Z</time></trkpt><trkpt lat="45.7618534751" lon="6.9824052136"><ele>1115.75</ele><time>2014-09-04T18:03:57Z</time></trkpt><trkpt lat="45.7618527208" lon="6.9823438581"><ele>1114.79</ele><time>2014-09-04T18:04:09Z</time></trkpt><trkpt lat="45.7618094701" lon="6.9822918065"><ele>1118.15</ele><time>2014-09-04T18:04:42Z</time></trkpt><trkpt lat="45.7618077938" lon="6.9823339675"><ele>1116.23</ele><time>2014-09-04T18:05:04Z</time></trkpt><trkpt lat="45.7617900241" lon="6.9822663255"><ele>1113.34</ele><time>2014-09-04T18:05:30Z</time></trkpt><trkpt lat="45.7617709972" lon="6.9823032059"><ele>1119.59</ele><time>2014-09-04T18:05:54Z</time></trkpt><trkpt lat="45.7617808040" lon="6.9823043793"><ele>1114.31</ele><time>2014-09-04T18:06:25Z</time></trkpt><trkpt lat="45.7617534790" lon="6.9822943211"><ele>1114.79</ele><time>2014-09-04T18:06:53Z</time></trkpt><trkpt lat="45.7618030161" lon="6.9822975900"><ele>1116.71</ele><time>2014-09-04T18:07:29Z</time></trkpt><trkpt lat="45.7618432492" lon="6.9823112525"><ele>1116.23</ele><time>2014-09-04T18:07:52Z</time></trkpt><trkpt lat="45.7618141640" lon="6.9822922256"><ele>1114.79</ele><time>2014-09-04T18:08:15Z</time></trkpt><trkpt lat="45.7618300058" lon="6.9822903816"><ele>1116.71</ele><time>2014-09-04T18:08:34Z</time></trkpt><trkpt lat="45.7618348673" lon="6.9822508190"><ele>1117.19</ele><time>2014-09-04T18:08:37Z</time></trkpt><trkpt lat="45.7618281618" lon="6.9822294451"><ele>1117.19</ele><time>2014-09-04T18:08:38Z</time></trkpt><trkpt lat="45.7618174329" lon="6.9822037965"><ele>1117.67</ele><time>2014-09-04T18:08:39Z</time></trkpt><trkpt lat="45.7618025132" lon="6.9821801595"><ele>1117.67</ele><time>2014-09-04T18:08:40Z</time></trkpt><trkpt lat="45.7617867552" lon="6.9821649883"><ele>1117.67</ele><time>2014-09-04T18:08:41Z</time></trkpt><trkpt lat="45.7617695723" lon="6.9821545947"><ele>1117.67</ele><time>2014-09-04T18:08:42Z</time></trkpt><trkpt lat="45.7617527246" lon="6.9821534213"><ele>1118.15</ele><time>2014-09-04T18:08:43Z</time></trkpt><trkpt lat="45.7617332786" lon="6.9821616355"><ele>1118.15</ele><time>2014-09-04T18:08:44Z</time></trkpt><trkpt lat="45.7615082245" lon="6.9824441057"><ele>1118.63</ele><time>2014-09-04T18:08:55Z</time></trkpt><trkpt lat="45.7612420991" lon="6.9827689882"><ele>1121.03</ele><time>2014-09-04T18:09:09Z</time></trkpt><trkpt lat="45.7610004488" lon="6.9829828944"><ele>1127.28</ele><time>2014-09-04T18:09:22Z</time></trkpt><trkpt lat="45.7607515063" lon="6.9832990598"><ele>1127.76</ele><time>2014-09-04T18:09:37Z</time></trkpt><trkpt lat="45.7606116962" lon="6.9833075255"><ele>1128.24</ele><time>2014-09-04T18:09:44Z</time></trkpt><trkpt lat="45.7605895679" lon="6.9833037537"><ele>1128.24</ele><time>2014-09-04T18:09:45Z</time></trkpt><trkpt lat="45.7603156473" lon="6.9834599923"><ele>1129.69</ele><time>2014-09-04T18:09:59Z</time></trkpt><trkpt lat="45.7600630168" lon="6.9836858008"><ele>1129.69</ele><time>2014-09-04T18:10:14Z</time></trkpt><trkpt lat="45.7599304151" lon="6.9840180594"><ele>1129.21</ele><time>2014-09-04T18:10:27Z</time></trkpt><trkpt lat="45.7598450035" lon="6.9844080694"><ele>1130.65</ele><time>2014-09-04T18:10:41Z</time></trkpt><trkpt lat="45.7598173432" lon="6.9844842609"><ele>1131.13</ele><time>2014-09-04T18:10:44Z</time></trkpt><trkpt lat="45.7597997412" lon="6.9844929781"><ele>1131.61</ele><time>2014-09-04T18:10:45Z</time></trkpt><trkpt lat="45.7597849891" lon="6.9844765496"><ele>1131.61</ele><time>2014-09-04T18:10:46Z</time></trkpt><trkpt lat="45.7597763557" lon="6.9844498951"><ele>1131.61</ele><time>2014-09-04T18:10:47Z</time></trkpt><trkpt lat="45.7597722486" lon="6.9844218157"><ele>1131.61</ele><time>2014-09-04T18:10:48Z</time></trkpt><trkpt lat="45.7597714942" lon="6.9843963347"><ele>1132.09</ele><time>2014-09-04T18:10:49Z</time></trkpt><trkpt lat="45.7597742602" lon="6.9843729492"><ele>1132.09</ele><time>2014-09-04T18:10:50Z</time></trkpt><trkpt lat="45.7597766072" lon="6.9843468815"><ele>1132.57</ele><time>2014-09-04T18:10:51Z</time></trkpt><trkpt lat="45.7597831450" lon="6.9843185507"><ele>1132.57</ele><time>2014-09-04T18:10:52Z</time></trkpt><trkpt lat="45.7597896829" lon="6.9842896331"><ele>1132.57</ele><time>2014-09-04T18:10:53Z</time></trkpt><trkpt lat="45.7599205244" lon="6.9838796742"><ele>1136.90</ele><time>2014-09-04T18:11:08Z</time></trkpt><trkpt lat="45.7600591611" lon="6.9834554661"><ele>1140.26</ele><time>2014-09-04T18:11:24Z</time></trkpt><trkpt lat="45.7601754181" lon="6.9830781966"><ele>1143.63</ele><time>2014-09-04T18:11:38Z</time></trkpt><trkpt lat="45.7603023201" lon="6.9829743449"><ele>1145.07</ele><time>2014-09-04T18:11:45Z</time></trkpt><trkpt lat="45.7603224367" lon="6.9829655439"><ele>1145.07</ele><time>2014-09-04T18:11:46Z</time></trkpt><trkpt lat="45.7603407092" lon="6.9829534739"><ele>1145.07</ele><time>2014-09-04T18:11:47Z</time></trkpt><trkpt lat="45.7604507636" lon="6.9829099718"><ele>1146.99</ele><time>2014-09-04T18:11:53Z</time></trkpt><trkpt lat="45.7604679465" lon="6.9829023443"><ele>1146.99</ele><time>2014-09-04T18:11:54Z</time></trkpt><trkpt lat="45.7604829501" lon="6.9828928728"><ele>1147.47</ele><time>2014-09-04T18:11:55Z</time></trkpt><trkpt lat="45.7606996223" lon="6.9827549066"><ele>1149.39</ele><time>2014-09-04T18:12:07Z</time></trkpt><trkpt lat="45.7609531749" lon="6.9824319519"><ele>1149.39</ele><time>2014-09-04T18:12:22Z</time></trkpt><trkpt lat="45.7612700108" lon="6.9820464682"><ele>1150.84</ele><time>2014-09-04T18:12:41Z</time></trkpt><trkpt lat="45.7613494713" lon="6.9820095878"><ele>1151.32</ele><time>2014-09-04T18:12:45Z</time></trkpt><trkpt lat="45.7613693364" lon="6.9819989428"><ele>1151.32</ele><time>2014-09-04T18:12:46Z</time></trkpt><trkpt lat="45.7613876928" lon="6.9819896389"><ele>1151.32</ele><time>2014-09-04T18:12:47Z</time></trkpt><trkpt lat="45.7614065520" lon="6.9819829334"><ele>1151.32</ele><time>2014-09-04T18:12:48Z</time></trkpt><trkpt lat="45.7614248246" lon="6.9819730427"><ele>1151.32</ele><time>2014-09-04T18:12:49Z</time></trkpt><trkpt lat="45.7614471205" lon="6.9819646608"><ele>1151.32</ele><time>2014-09-04T18:12:50Z</time></trkpt><trkpt lat="45.7614635490" lon="6.9819608890"><ele>1151.32</ele><time>2014-09-04T18:12:51Z</time></trkpt><trkpt lat="45.7614802290" lon="6.9819536805"><ele>1151.32</ele><time>2014-09-04T18:12:52Z</time></trkpt><trkpt lat="45.7614973281" lon="6.9819457177"><ele>1151.32</ele><time>2014-09-04T18:12:53Z</time></trkpt><trkpt lat="45.7615292631" lon="6.9819292054"><ele>1151.32</ele><time>2014-09-04T18:12:55Z</time></trkpt><trkpt lat="45.7615440991" lon="6.9819123577"><ele>1151.32</ele><time>2014-09-04T18:12:56Z</time></trkpt><trkpt lat="45.7615563367" lon="6.9818951748"><ele>1151.32</ele><time>2014-09-04T18:12:57Z</time></trkpt><trkpt lat="45.7615640480" lon="6.9818764832"><ele>1151.32</ele><time>2014-09-04T18:12:58Z</time></trkpt><trkpt lat="45.7615687419" lon="6.9818540197"><ele>1151.32</ele><time>2014-09-04T18:12:59Z</time></trkpt><trkpt lat="45.7615735196" lon="6.9817991182"><ele>1150.35</ele><time>2014-09-04T18:13:01Z</time></trkpt><trkpt lat="45.7615673169" lon="6.9817683566"><ele>1150.35</ele><time>2014-09-04T18:13:02Z</time></trkpt><trkpt lat="45.7615581807" lon="6.9817447197"><ele>1150.35</ele><time>2014-09-04T18:13:03Z</time></trkpt><trkpt lat="45.7615440991" lon="6.9817159697"><ele>1150.35</ele><time>2014-09-04T18:13:04Z</time></trkpt><trkpt lat="45.7615285926" lon="6.9816909917"><ele>1150.35</ele><time>2014-09-04T18:13:05Z</time></trkpt><trkpt lat="45.7615125831" lon="6.9816692825"><ele>1149.87</ele><time>2014-09-04T18:13:06Z</time></trkpt><trkpt lat="45.7614935562" lon="6.9816503394"><ele>1149.87</ele><time>2014-09-04T18:13:07Z</time></trkpt><trkpt lat="45.7614761218" lon="6.9816386048"><ele>1149.87</ele><time>2014-09-04T18:13:08Z</time></trkpt><trkpt lat="45.7614570949" lon="6.9816320669"><ele>1150.35</ele><time>2014-09-04T18:13:09Z</time></trkpt><trkpt lat="45.7614380680" lon="6.9816326536"><ele>1150.35</ele><time>2014-09-04T18:13:10Z</time></trkpt><trkpt lat="45.7614189573" lon="6.9816429634"><ele>1150.35</ele><time>2014-09-04T18:13:11Z</time></trkpt><trkpt lat="45.7613999303" lon="6.9816581346"><ele>1150.35</ele><time>2014-09-04T18:13:12Z</time></trkpt><trkpt lat="45.7613824122" lon="6.9816768263"><ele>1150.35</ele><time>2014-09-04T18:13:13Z</time></trkpt><trkpt lat="45.7613630500" lon="6.9817019720"><ele>1150.35</ele><time>2014-09-04T18:13:14Z</time></trkpt><trkpt lat="45.7613430172" lon="6.9817272853"><ele>1150.35</ele><time>2014-09-04T18:13:15Z</time></trkpt><trkpt lat="45.7613231521" lon="6.9817520957"><ele>1150.35</ele><time>2014-09-04T18:13:16Z</time></trkpt><trkpt lat="45.7610197272" lon="6.9820882101"><ele>1151.80</ele><time>2014-09-04T18:13:33Z</time></trkpt><trkpt lat="45.7607320603" lon="6.9823293574"><ele>1152.76</ele><time>2014-09-04T18:13:49Z</time></trkpt><trkpt lat="45.7603810262" lon="6.9824048784"><ele>1154.68</ele><time>2014-09-04T18:14:06Z</time></trkpt><trkpt lat="45.7600033376" lon="6.9825057965"><ele>1158.05</ele><time>2014-09-04T18:14:24Z</time></trkpt><trkpt lat="45.7597568259" lon="6.9827632885"><ele>1159.49</ele><time>2014-09-04T18:14:38Z</time></trkpt><trkpt lat="45.7596531417" lon="6.9829144981"><ele>1159.49</ele><time>2014-09-04T18:14:45Z</time></trkpt><trkpt lat="45.7596102264" lon="6.9829717465"><ele>1159.97</ele><time>2014-09-04T18:14:48Z</time></trkpt><trkpt lat="45.7595082186" lon="6.9834591541"><ele>1160.93</ele><time>2014-09-04T18:15:05Z</time></trkpt><trkpt lat="45.7594242319" lon="6.9840388466"><ele>1161.89</ele><time>2014-09-04T18:15:24Z</time></trkpt><trkpt lat="45.7593712583" lon="6.9843604602"><ele>1162.85</ele><time>2014-09-04T18:15:35Z</time></trkpt><trkpt lat="45.7593520638" lon="6.9843597896"><ele>1162.85</ele><time>2014-09-04T18:15:36Z</time></trkpt><trkpt lat="45.7593348809" lon="6.9843460433"><ele>1163.33</ele><time>2014-09-04T18:15:37Z</time></trkpt><trkpt lat="45.7593270019" lon="6.9843219873"><ele>1163.81</ele><time>2014-09-04T18:15:38Z</time></trkpt><trkpt lat="45.7593236491" lon="6.9842967577"><ele>1164.29</ele><time>2014-09-04T18:15:39Z</time></trkpt><trkpt lat="45.7593233138" lon="6.9842703547"><ele>1164.29</ele><time>2014-09-04T18:15:40Z</time></trkpt><trkpt lat="45.7593268342" lon="6.9842445385"><ele>1164.77</ele><time>2014-09-04T18:15:41Z</time></trkpt><trkpt lat="45.7593288459" lon="6.9842146989"><ele>1164.77</ele><time>2014-09-04T18:15:42Z</time></trkpt><trkpt lat="45.7593695819" lon="6.9837674405"><ele>1167.18</ele><time>2014-09-04T18:15:58Z</time></trkpt><trkpt lat="45.7593985833" lon="6.9834289793"><ele>1171.02</ele><time>2014-09-04T18:16:10Z</time></trkpt><trkpt lat="45.7594248187" lon="6.9830517098"><ele>1172.47</ele><time>2014-09-04T18:16:24Z</time></trkpt><trkpt lat="45.7595150080" lon="6.9826160185"><ele>1175.35</ele><time>2014-09-04T18:16:40Z</time></trkpt><trkpt lat="45.7597276568" lon="6.9823309500"><ele>1177.75</ele><time>2014-09-04T18:16:54Z</time></trkpt><trkpt lat="45.7599820476" lon="6.9821654912"><ele>1181.60</ele><time>2014-09-04T18:17:08Z</time></trkpt><trkpt lat="45.7603047509" lon="6.9820254296"><ele>1184.00</ele><time>2014-09-04T18:17:25Z</time></trkpt><trkpt lat="45.7604562119" lon="6.9819961768"><ele>1185.44</ele><time>2014-09-04T18:17:34Z</time></trkpt><trkpt lat="45.7604666892" lon="6.9819923211"><ele>1185.44</ele><time>2014-09-04T18:17:35Z</time></trkpt><trkpt lat="45.7604916673" lon="6.9819844421"><ele>1184.48</ele><time>2014-09-04T18:17:47Z</time></trkpt><trkpt lat="45.7604795136" lon="6.9819428679"><ele>1181.60</ele><time>2014-09-04T18:18:19Z</time></trkpt><trkpt lat="45.7604782563" lon="6.9819531776"><ele>1182.56</ele><time>2014-09-04T18:18:57Z</time></trkpt><trkpt lat="45.7604864705" lon="6.9819792453"><ele>1181.12</ele><time>2014-09-04T18:19:24Z</time></trkpt><trkpt lat="45.7604718860" lon="6.9819267746"><ele>1182.08</ele><time>2014-09-04T18:19:56Z</time></trkpt><trkpt lat="45.7604867220" lon="6.9819015451"><ele>1183.04</ele><time>2014-09-04T18:20:06Z</time></trkpt><trkpt lat="45.7604964450" lon="6.9818836078"><ele>1183.04</ele><time>2014-09-04T18:20:07Z</time></trkpt><trkpt lat="45.7605066709" lon="6.9818582106"><ele>1183.04</ele><time>2014-09-04T18:20:09Z</time></trkpt><trkpt lat="45.7605078444" lon="6.9818328973"><ele>1183.04</ele><time>2014-09-04T18:20:10Z</time></trkpt><trkpt lat="45.7605062518" lon="6.9818018004"><ele>1183.04</ele><time>2014-09-04T18:20:11Z</time></trkpt><trkpt lat="45.7604966965" lon="6.9817750622"><ele>1182.56</ele><time>2014-09-04T18:20:12Z</time></trkpt><trkpt lat="45.7604844589" lon="6.9817518443"><ele>1182.56</ele><time>2014-09-04T18:20:13Z</time></trkpt><trkpt lat="45.7604675274" lon="6.9817358349"><ele>1182.08</ele><time>2014-09-04T18:20:14Z</time></trkpt><trkpt lat="45.7604479138" lon="6.9817282073"><ele>1181.60</ele><time>2014-09-04T18:20:15Z</time></trkpt><trkpt lat="45.7604273781" lon="6.9817259442"><ele>1181.12</ele><time>2014-09-04T18:20:16Z</time></trkpt><trkpt lat="45.7604019810" lon="6.9817233458"><ele>1181.12</ele><time>2014-09-04T18:20:17Z</time></trkpt><trkpt lat="45.7600893360" lon="6.9819067419"><ele>1182.08</ele><time>2014-09-04T18:20:30Z</time></trkpt><trkpt lat="45.7597915269" lon="6.9819737133"><ele>1182.56</ele><time>2014-09-04T18:20:43Z</time></trkpt><trkpt lat="45.7594875991" lon="6.9821740407"><ele>1183.52</ele><time>2014-09-04T18:20:59Z</time></trkpt><trkpt lat="45.7592575159" lon="6.9823901262"><ele>1184.00</ele><time>2014-09-04T18:21:14Z</time></trkpt><trkpt lat="45.7591319550" lon="6.9827377237"><ele>1184.96</ele><time>2014-09-04T18:21:28Z</time></trkpt><trkpt lat="45.7589737885" lon="6.9831811264"><ele>1185.92</ele><time>2014-09-04T18:21:45Z</time></trkpt></trkseg><trkseg><trkpt lat="45.7572943065" lon="6.9841937441"><ele>1246.01</ele><time>2014-09-04T18:22:58Z</time></trkpt><trkpt lat="45.7572327834" lon="6.9842606317"><ele>1236.39</ele><time>2014-09-04T18:22:59Z</time></trkpt><trkpt lat="45.7572138403" lon="6.9843246695"><ele>1241.68</ele><time>2014-09-04T18:23:00Z</time></trkpt><trkpt lat="45.7570173685" lon="6.9836133812"><ele>1202.27</ele><time>2014-09-04T18:23:17Z</time></trkpt><trkpt lat="45.7567670848" lon="6.9831802044"><ele>1206.59</ele><time>2014-09-04T18:23:35Z</time></trkpt><trkpt lat="45.7565696072" lon="6.9828664698"><ele>1209.48</ele><time>2014-09-04T18:23:48Z</time></trkpt><trkpt lat="45.7562570460" lon="6.9826776255"><ele>1207.55</ele><time>2014-09-04T18:24:04Z</time></trkpt><trkpt lat="45.7560315728" lon="6.9825301878"><ele>1207.07</ele><time>2014-09-04T18:24:16Z</time></trkpt><trkpt lat="45.7558408007" lon="6.9821444526"><ele>1212.36</ele><time>2014-09-04T18:24:33Z</time></trkpt><trkpt lat="45.7557185926" lon="6.9818400219"><ele>1214.76</ele><time>2014-09-04T18:24:47Z</time></trkpt><trkpt lat="45.7555913553" lon="6.9815434702"><ele>1217.17</ele><time>2014-09-04T18:25:02Z</time></trkpt><trkpt lat="45.7555040158" lon="6.9811864011"><ele>1216.69</ele><time>2014-09-04T18:25:19Z</time></trkpt><trkpt lat="45.7554592565" lon="6.9810396340"><ele>1213.32</ele><time>2014-09-04T18:25:31Z</time></trkpt><trkpt lat="45.7554233819" lon="6.9810009096"><ele>1213.32</ele><time>2014-09-04T18:25:36Z</time></trkpt><trkpt lat="45.7554136589" lon="6.9809973892"><ele>1213.32</ele><time>2014-09-04T18:25:37Z</time></trkpt><trkpt lat="45.7554044388" lon="6.9809898455"><ele>1213.32</ele><time>2014-09-04T18:25:38Z</time></trkpt><trkpt lat="45.7553948835" lon="6.9809776079"><ele>1213.32</ele><time>2014-09-04T18:25:39Z</time></trkpt><trkpt lat="45.7553458493" lon="6.9809089601"><ele>1211.88</ele><time>2014-09-04T18:25:55Z</time></trkpt><trkpt lat="45.7553699892" lon="6.9809376262"><ele>1209.96</ele><time>2014-09-04T18:26:28Z</time></trkpt><trkpt lat="45.7553484477" lon="6.9809259754"><ele>1209.96</ele><time>2014-09-04T18:26:47Z</time></trkpt><trkpt lat="45.7552616112" lon="6.9807497039"><ele>1211.88</ele><time>2014-09-04T18:27:03Z</time></trkpt><trkpt lat="45.7552519720" lon="6.9807132427"><ele>1211.88</ele><time>2014-09-04T18:27:04Z</time></trkpt><trkpt lat="45.7552389801" lon="6.9806791283"><ele>1212.36</ele><time>2014-09-04T18:27:05Z</time></trkpt><trkpt lat="45.7552229706" lon="6.9806465227"><ele>1212.36</ele><time>2014-09-04T18:27:06Z</time></trkpt><trkpt lat="45.7552053686" lon="6.9806145877"><ele>1212.84</ele><time>2014-09-04T18:27:07Z</time></trkpt><trkpt lat="45.7547806576" lon="6.9801655691"><ele>1215.72</ele><time>2014-09-04T18:27:25Z</time></trkpt><trkpt lat="45.7539586443" lon="6.9808083773"><ele>1211.40</ele><time>2014-09-04T18:27:26Z</time></trkpt><trkpt lat="45.7535636052" lon="6.9814153947"><ele>1201.79</ele><time>2014-09-04T18:27:30Z</time></trkpt><trkpt lat="45.7543889713" lon="6.9800991006"><ele>1224.86</ele><time>2014-09-04T18:27:34Z</time></trkpt><trkpt lat="45.7541414537" lon="6.9792853016"><ele>1212.84</ele><time>2014-09-04T18:27:50Z</time></trkpt><trkpt lat="45.7539204229" lon="6.9788284879"><ele>1214.76</ele><time>2014-09-04T18:28:03Z</time></trkpt><trkpt lat="45.7536080293" lon="6.9787588343"><ele>1217.65</ele><time>2014-09-04T18:28:18Z</time></trkpt><trkpt lat="45.7532169297" lon="6.9786710758"><ele>1220.53</ele><time>2014-09-04T18:28:37Z</time></trkpt><trkpt lat="45.7525597885" lon="6.9779543392"><ele>1221.97</ele><time>2014-09-04T18:28:49Z</time></trkpt><trkpt lat="45.7524121832" lon="6.9775900617"><ele>1219.57</ele><time>2014-09-04T18:28:50Z</time></trkpt><trkpt lat="45.7522230037" lon="6.9772743993"><ele>1223.42</ele><time>2014-09-04T18:28:51Z</time></trkpt><trkpt lat="45.7516900823" lon="6.9757783134"><ele>1224.38</ele><time>2014-09-04T18:29:11Z</time></trkpt><trkpt lat="45.7513519563" lon="6.9752899837"><ele>1226.30</ele><time>2014-09-04T18:29:27Z</time></trkpt><trkpt lat="45.7510624453" lon="6.9748138078"><ele>1225.34</ele><time>2014-09-04T18:29:44Z</time></trkpt><trkpt lat="45.7509202883" lon="6.9744449202"><ele>1228.22</ele><time>2014-09-04T18:30:00Z</time></trkpt><trkpt lat="45.7509083860" lon="6.9744114764"><ele>1229.18</ele><time>2014-09-04T18:30:02Z</time></trkpt><trkpt lat="45.7509008422" lon="6.9743952993"><ele>1229.18</ele><time>2014-09-04T18:30:03Z</time></trkpt><trkpt lat="45.7508932985" lon="6.9743782002"><ele>1229.66</ele><time>2014-09-04T18:30:04Z</time></trkpt><trkpt lat="45.7508115750" lon="6.9742673077"><ele>1231.59</ele><time>2014-09-04T18:30:19Z</time></trkpt><trkpt lat="45.7508288417" lon="6.9742916152"><ele>1226.30</ele><time>2014-09-04T18:30:40Z</time></trkpt><trkpt lat="45.7507650554" lon="6.9741870090"><ele>1226.78</ele><time>2014-09-04T18:31:00Z</time></trkpt><trkpt lat="45.7504571043" lon="6.9737905450"><ele>1231.59</ele><time>2014-09-04T18:31:19Z</time></trkpt><trkpt lat="45.7499880530" lon="6.9736501481"><ele>1233.99</ele><time>2014-09-04T18:31:40Z</time></trkpt><trkpt lat="45.7490877528" lon="6.9739619549"><ele>1233.03</ele><time>2014-09-04T18:32:02Z</time></trkpt><trkpt lat="45.7488485333" lon="6.9739171118"><ele>1231.59</ele><time>2014-09-04T18:32:25Z</time></trkpt><trkpt lat="45.7487764489" lon="6.9739308581"><ele>1233.99</ele><time>2014-09-04T18:32:54Z</time></trkpt><trkpt lat="45.7485209685" lon="6.9735306222"><ele>1236.87</ele><time>2014-09-04T18:33:19Z</time></trkpt></trkseg><trkseg><trkpt lat="45.7480457984" lon="6.9711588789"><ele>1237.35</ele><time>2014-09-04T18:34:08Z</time></trkpt><trkpt lat="45.7478222530" lon="6.9709458947"><ele>1259.46</ele><time>2014-09-04T18:34:20Z</time></trkpt><trkpt lat="45.7476284634" lon="6.9706262928"><ele>1261.87</ele><time>2014-09-04T18:34:36Z</time></trkpt><trkpt lat="45.7474881504" lon="6.9703453314"><ele>1262.83</ele><time>2014-09-04T18:34:50Z</time></trkpt><trkpt lat="45.7474765833" lon="6.9703299925"><ele>1263.31</ele><time>2014-09-04T18:34:51Z</time></trkpt><trkpt lat="45.7474225201" lon="6.9702194352"><ele>1263.79</ele><time>2014-09-04T18:35:04Z</time></trkpt><trkpt lat="45.7474412955" lon="6.9701859076"><ele>1255.62</ele><time>2014-09-04T18:35:38Z</time></trkpt><trkpt lat="45.7474496774" lon="6.9701794535"><ele>1254.18</ele><time>2014-09-04T18:36:11Z</time></trkpt><trkpt lat="45.7474254537" lon="6.9702585787"><ele>1258.50</ele><time>2014-09-04T18:36:43Z</time></trkpt><trkpt lat="45.7474314887" lon="6.9702200219"><ele>1254.18</ele><time>2014-09-04T18:37:24Z</time></trkpt><trkpt lat="45.7474141382" lon="6.9701768551"><ele>1253.70</ele><time>2014-09-04T18:37:47Z</time></trkpt><trkpt lat="45.7474082708" lon="6.9701685570"><ele>1254.18</ele><time>2014-09-04T18:37:48Z</time></trkpt><trkpt lat="45.7473498490" lon="6.9700699020"><ele>1258.02</ele><time>2014-09-04T18:37:54Z</time></trkpt><trkpt lat="45.7473302353" lon="6.9700429123"><ele>1258.50</ele><time>2014-09-04T18:37:55Z</time></trkpt><trkpt lat="45.7473231945" lon="6.9700308423"><ele>1258.50</ele><time>2014-09-04T18:37:56Z</time></trkpt><trkpt lat="45.7473109569" lon="6.9700080436"><ele>1258.98</ele><time>2014-09-04T18:37:57Z</time></trkpt><trkpt lat="45.7471447438" lon="6.9697192870"><ele>1261.87</ele><time>2014-09-04T18:38:09Z</time></trkpt><trkpt lat="45.7469195221" lon="6.9693323784"><ele>1262.83</ele><time>2014-09-04T18:38:25Z</time></trkpt><trkpt lat="45.7466693223" lon="6.9689814281"><ele>1267.64</ele><time>2014-09-04T18:38:42Z</time></trkpt></trkseg><trkseg><trkpt lat="45.7450553030" lon="6.9677696563"><ele>1281.57</ele><time>2014-09-04T18:40:02Z</time></trkpt><trkpt lat="45.7448413968" lon="6.9677843247"><ele>1276.77</ele><time>2014-09-04T18:40:15Z</time></trkpt><trkpt lat="45.7444650494" lon="6.9677006733"><ele>1277.25</ele><time>2014-09-04T18:40:32Z</time></trkpt><trkpt lat="45.7440573536" lon="6.9675406627"><ele>1277.73</ele><time>2014-09-04T18:40:48Z</time></trkpt><trkpt lat="45.7436597161" lon="6.9671075698"><ele>1280.61</ele><time>2014-09-04T18:41:06Z</time></trkpt><trkpt lat="45.7433666009" lon="6.9666053262"><ele>1282.06</ele><time>2014-09-04T18:41:24Z</time></trkpt><trkpt lat="45.7432658505" lon="6.9662183337"><ele>1283.98</ele><time>2014-09-04T18:41:37Z</time></trkpt><trkpt lat="45.7430659421" lon="6.9658186845"><ele>1285.90</ele><time>2014-09-04T18:41:53Z</time></trkpt><trkpt lat="45.7428761758" lon="6.9655104820"><ele>1288.78</ele><time>2014-09-04T18:42:06Z</time></trkpt><trkpt lat="45.7427010778" lon="6.9652606174"><ele>1290.23</ele><time>2014-09-04T18:42:17Z</time></trkpt><trkpt lat="45.7423794642" lon="6.9649734534"><ele>1292.15</ele><time>2014-09-04T18:42:35Z</time></trkpt><trkpt lat="45.7420723513" lon="6.9646644965"><ele>1293.11</ele><time>2014-09-04T18:42:53Z</time></trkpt><trkpt lat="45.7417970896" lon="6.9643371832"><ele>1296.48</ele><time>2014-09-04T18:43:09Z</time></trkpt><trkpt lat="45.7415068243" lon="6.9640205987"><ele>1299.36</ele><time>2014-09-04T18:43:26Z</time></trkpt><trkpt lat="45.7413209975" lon="6.9638769329"><ele>1298.88</ele><time>2014-09-04T18:43:40Z</time></trkpt><trkpt lat="45.7413048204" lon="6.9638728257"><ele>1298.88</ele><time>2014-09-04T18:43:41Z</time></trkpt><trkpt lat="45.7412865479" lon="6.9638641085"><ele>1298.88</ele><time>2014-09-04T18:43:42Z</time></trkpt><trkpt lat="45.7408978790" lon="6.9636414852"><ele>1299.36</ele><time>2014-09-04T18:44:01Z</time></trkpt><trkpt lat="45.7405376248" lon="6.9634761941"><ele>1299.84</ele><time>2014-09-04T18:44:17Z</time></trkpt><trkpt lat="45.7401563320" lon="6.9633497111"><ele>1300.80</ele><time>2014-09-04T18:44:34Z</time></trkpt><trkpt lat="45.7397665735" lon="6.9632015191"><ele>1301.28</ele><time>2014-09-04T18:44:51Z</time></trkpt><trkpt lat="45.7394998614" lon="6.9629079010"><ele>1304.65</ele><time>2014-09-04T18:45:06Z</time></trkpt><trkpt lat="45.7392868772" lon="6.9624230918"><ele>1308.97</ele><time>2014-09-04T18:45:24Z</time></trkpt><trkpt lat="45.7391256932" lon="6.9620272145"><ele>1311.86</ele><time>2014-09-04T18:45:38Z</time></trkpt><trkpt lat="45.7389427163" lon="6.9616883341"><ele>1315.22</ele><time>2014-09-04T18:45:51Z</time></trkpt><trkpt lat="45.7387255412" lon="6.9614528026"><ele>1315.70</ele><time>2014-09-04T18:46:04Z</time></trkpt><trkpt lat="45.7384160813" lon="6.9611062109"><ele>1316.18</ele><time>2014-09-04T18:46:22Z</time></trkpt><trkpt lat="45.7380718365" lon="6.9606328849"><ele>1315.70</ele><time>2014-09-04T18:46:41Z</time></trkpt><trkpt lat="45.7377852593" lon="6.9602748938"><ele>1312.82</ele><time>2014-09-04T18:46:55Z</time></trkpt><trkpt lat="45.7374226581" lon="6.9599640928"><ele>1314.74</ele><time>2014-09-04T18:47:10Z</time></trkpt><trkpt lat="45.7370801736" lon="6.9600009732"><ele>1312.82</ele><time>2014-09-04T18:47:24Z</time></trkpt><trkpt lat="45.7367403712" lon="6.9601894822"><ele>1312.34</ele><time>2014-09-04T18:47:37Z</time></trkpt><trkpt lat="45.7362657879" lon="6.9599863887"><ele>1311.86</ele><time>2014-09-04T18:47:54Z</time></trkpt><trkpt lat="45.7358989958" lon="6.9597941916"><ele>1313.78</ele><time>2014-09-04T18:48:08Z</time></trkpt><trkpt lat="45.7354510669" lon="6.9596759230"><ele>1315.22</ele><time>2014-09-04T18:48:26Z</time></trkpt><trkpt lat="45.7351537608" lon="6.9597220235"><ele>1315.22</ele><time>2014-09-04T18:48:41Z</time></trkpt><trkpt lat="45.7350277808" lon="6.9601724669"><ele>1314.74</ele><time>2014-09-04T18:48:56Z</time></trkpt><trkpt lat="45.7349900622" lon="6.9605250098"><ele>1316.18</ele><time>2014-09-04T18:49:08Z</time></trkpt><trkpt lat="45.7349929959" lon="6.9605727866"><ele>1316.18</ele><time>2014-09-04T18:49:10Z</time></trkpt><trkpt lat="45.7349967677" lon="6.9605941605"><ele>1315.70</ele><time>2014-09-04T18:49:11Z</time></trkpt><trkpt lat="45.7350023836" lon="6.9606219884"><ele>1315.70</ele><time>2014-09-04T18:49:12Z</time></trkpt><trkpt lat="45.7350105979" lon="6.9606488105"><ele>1316.18</ele><time>2014-09-04T18:49:13Z</time></trkpt><trkpt lat="45.7350220811" lon="6.9606758002"><ele>1316.18</ele><time>2014-09-04T18:49:14Z</time></trkpt><trkpt lat="45.7350363303" lon="6.9607014488"><ele>1316.18</ele><time>2014-09-04T18:49:15Z</time></trkpt><trkpt lat="45.7350514177" lon="6.9607224874"><ele>1316.18</ele><time>2014-09-04T18:49:16Z</time></trkpt><trkpt lat="45.7353648171" lon="6.9609513134"><ele>1317.14</ele><time>2014-09-04T18:49:32Z</time></trkpt><trkpt lat="45.7357332855" lon="6.9610866811"><ele>1319.07</ele><time>2014-09-04T18:49:49Z</time></trkpt><trkpt lat="45.7357636280" lon="6.9611228071"><ele>1320.03</ele><time>2014-09-04T18:49:51Z</time></trkpt><trkpt lat="45.7357746921" lon="6.9611440971"><ele>1320.51</ele><time>2014-09-04T18:49:52Z</time></trkpt><trkpt lat="45.7357859239" lon="6.9611676503"><ele>1320.51</ele><time>2014-09-04T18:49:53Z</time></trkpt><trkpt lat="45.7357912883" lon="6.9611964002"><ele>1320.51</ele><time>2014-09-04T18:49:54Z</time></trkpt><trkpt lat="45.7357910369" lon="6.9612228032"><ele>1320.99</ele><time>2014-09-04T18:49:55Z</time></trkpt><trkpt lat="45.7357866783" lon="6.9612497929"><ele>1320.99</ele><time>2014-09-04T18:49:56Z</time></trkpt><trkpt lat="45.7357807271" lon="6.9612739328"><ele>1321.47</ele><time>2014-09-04T18:49:57Z</time></trkpt><trkpt lat="45.7357670646" lon="6.9612953905"><ele>1321.47</ele><time>2014-09-04T18:49:58Z</time></trkpt><trkpt lat="45.7357532345" lon="6.9613083825"><ele>1321.95</ele><time>2014-09-04T18:49:59Z</time></trkpt><trkpt lat="45.7357373927" lon="6.9613216259"><ele>1321.95</ele><time>2014-09-04T18:50:00Z</time></trkpt><trkpt lat="45.7357209641" lon="6.9613332767"><ele>1322.43</ele><time>2014-09-04T18:50:01Z</time></trkpt><trkpt lat="45.7357036974" lon="6.9613408204"><ele>1322.43</ele><time>2014-09-04T18:50:02Z</time></trkpt><trkpt lat="45.7354518212" lon="6.9611874316"><ele>1326.28</ele><time>2014-09-04T18:50:16Z</time></trkpt><trkpt lat="45.7350221649" lon="6.9609479606"><ele>1328.68</ele><time>2014-09-04T18:50:38Z</time></trkpt><trkpt lat="45.7347106934" lon="6.9608394150"><ele>1331.56</ele><time>2014-09-04T18:50:54Z</time></trkpt><trkpt lat="45.7344249543" lon="6.9606466312"><ele>1334.93</ele><time>2014-09-04T18:51:10Z</time></trkpt><trkpt lat="45.7341140695" lon="6.9604420289"><ele>1337.81</ele><time>2014-09-04T18:51:27Z</time></trkpt><trkpt lat="45.7340201922" lon="6.9604015443"><ele>1338.77</ele><time>2014-09-04T18:51:33Z</time></trkpt><trkpt lat="45.7340253051" lon="6.9603776559"><ele>1340.22</ele><time>2014-09-04T18:51:44Z</time></trkpt><trkpt lat="45.7339922804" lon="6.9603985269"><ele>1335.89</ele><time>2014-09-04T18:52:16Z</time></trkpt><trkpt lat="45.7339794561" lon="6.9603973534"><ele>1335.89</ele><time>2014-09-04T18:52:17Z</time></trkpt><trkpt lat="45.7339623570" lon="6.9603904802"><ele>1336.37</ele><time>2014-09-04T18:52:18Z</time></trkpt><trkpt lat="45.7339440007" lon="6.9603820145"><ele>1336.85</ele><time>2014-09-04T18:52:19Z</time></trkpt><trkpt lat="45.7335816510" lon="6.9602106046"><ele>1340.70</ele><time>2014-09-04T18:52:36Z</time></trkpt><trkpt lat="45.7331977598" lon="6.9600594789"><ele>1344.06</ele><time>2014-09-04T18:52:54Z</time></trkpt><trkpt lat="45.7328833546" lon="6.9600089360"><ele>1345.98</ele><time>2014-09-04T18:53:08Z</time></trkpt><trkpt lat="45.7325945143" lon="6.9599736482"><ele>1348.39</ele><time>2014-09-04T18:53:22Z</time></trkpt><trkpt lat="45.7323013991" lon="6.9597427268"><ele>1349.35</ele><time>2014-09-04T18:53:39Z</time></trkpt><trkpt lat="45.7320663705" lon="6.9595541339"><ele>1352.71</ele><time>2014-09-04T18:53:54Z</time></trkpt><trkpt lat="45.7318129018" lon="6.9594665430"><ele>1353.67</ele><time>2014-09-04T18:54:09Z</time></trkpt><trkpt lat="45.7315125782" lon="6.9593936205"><ele>1354.63</ele><time>2014-09-04T18:54:26Z</time></trkpt><trkpt lat="45.7312172838" lon="6.9592079613"><ele>1356.08</ele><time>2014-09-04T18:54:44Z</time></trkpt><trkpt lat="45.7309866138" lon="6.9590570871"><ele>1358.96</ele><time>2014-09-04T18:54:58Z</time></trkpt><trkpt lat="45.7306586299" lon="6.9588200469"><ele>1362.81</ele><time>2014-09-04T18:55:18Z</time></trkpt><trkpt lat="45.7304075081" lon="6.9586011954"><ele>1366.17</ele><time>2014-09-04T18:55:34Z</time></trkpt><trkpt lat="45.7301956974" lon="6.9583978504"><ele>1371.94</ele><time>2014-09-04T18:55:50Z</time></trkpt><trkpt lat="45.7301519439" lon="6.9582711160"><ele>1374.34</ele><time>2014-09-04T18:56:04Z</time></trkpt><trkpt lat="45.7301680371" lon="6.9582374208"><ele>1372.42</ele><time>2014-09-04T18:56:29Z</time></trkpt><trkpt lat="45.7301459927" lon="6.9582571182"><ele>1369.54</ele><time>2014-09-04T18:56:59Z</time></trkpt><trkpt lat="45.7301242836" lon="6.9583121873"><ele>1365.21</ele><time>2014-09-04T18:57:31Z</time></trkpt><trkpt lat="45.7301355992" lon="6.9583122712"><ele>1370.02</ele><time>2014-09-04T18:58:09Z</time></trkpt><trkpt lat="45.7301619183" lon="6.9583083317"><ele>1371.46</ele><time>2014-09-04T18:58:46Z</time></trkpt><trkpt lat="45.7301457413" lon="6.9582851976"><ele>1366.17</ele><time>2014-09-04T18:59:17Z</time></trkpt><trkpt lat="45.7301438972" lon="6.9582807552"><ele>1359.44</ele><time>2014-09-04T18:59:55Z</time></trkpt><trkpt lat="45.7301532011" lon="6.9583132770"><ele>1365.21</ele><time>2014-09-04T19:00:36Z</time></trkpt><trkpt lat="45.7301288098" lon="6.9582845271"><ele>1370.02</ele><time>2014-09-04T19:01:09Z</time></trkpt><trkpt lat="45.7300164923" lon="6.9582126942"><ele>1370.50</ele><time>2014-09-04T19:01:18Z</time></trkpt><trkpt lat="45.7297296636" lon="6.9578832015"><ele>1373.86</ele><time>2014-09-04T19:01:36Z</time></trkpt><trkpt lat="45.7296351157" lon="6.9577460736"><ele>1374.34</ele><time>2014-09-04T19:01:43Z</time></trkpt><trkpt lat="45.7296221238" lon="6.9577331655"><ele>1374.82</ele><time>2014-09-04T19:01:44Z</time></trkpt><trkpt lat="45.7296109758" lon="6.9577128813"><ele>1374.82</ele><time>2014-09-04T19:01:45Z</time></trkpt><trkpt lat="45.7294131629" lon="6.9574074447"><ele>1376.75</ele><time>2014-09-04T19:02:01Z</time></trkpt><trkpt lat="45.7292228937" lon="6.9570466876"><ele>1379.63</ele><time>2014-09-04T19:02:20Z</time></trkpt><trkpt lat="45.7291557547" lon="6.9565964956"><ele>1382.03</ele><time>2014-09-04T19:02:39Z</time></trkpt><trkpt lat="45.7290678285" lon="6.9562002830"><ele>1383.96</ele><time>2014-09-04T19:02:56Z</time></trkpt><trkpt lat="45.7289096620" lon="6.9558481593"><ele>1386.36</ele><time>2014-09-04T19:03:13Z</time></trkpt><trkpt lat="45.7288330514" lon="6.9558450580"><ele>1386.84</ele><time>2014-09-04T19:03:19Z</time></trkpt><trkpt lat="45.7288214844" lon="6.9558636658"><ele>1386.84</ele><time>2014-09-04T19:03:20Z</time></trkpt><trkpt lat="45.7288119290" lon="6.9558862969"><ele>1386.84</ele><time>2014-09-04T19:03:21Z</time></trkpt><trkpt lat="45.7288079895" lon="6.9559147116"><ele>1386.84</ele><time>2014-09-04T19:03:22Z</time></trkpt><trkpt lat="45.7288020384" lon="6.9559415337"><ele>1386.84</ele><time>2014-09-04T19:03:23Z</time></trkpt><trkpt lat="45.7287955843" lon="6.9559655059"><ele>1386.84</ele><time>2014-09-04T19:03:24Z</time></trkpt><trkpt lat="45.7287914772" lon="6.9559913222"><ele>1386.84</ele><time>2014-09-04T19:03:25Z</time></trkpt><trkpt lat="45.7287914772" lon="6.9560193177"><ele>1386.84</ele><time>2014-09-04T19:03:26Z</time></trkpt><trkpt lat="45.7287908904" lon="6.9560505822"><ele>1386.84</ele><time>2014-09-04T19:03:27Z</time></trkpt><trkpt lat="45.7288364880" lon="6.9565264229"><ele>1387.80</ele><time>2014-09-04T19:03:44Z</time></trkpt><trkpt lat="45.7288505696" lon="6.9569023512"><ele>1389.72</ele><time>2014-09-04T19:03:59Z</time></trkpt><trkpt lat="45.7288825046" lon="6.9573515374"><ele>1391.65</ele><time>2014-09-04T19:04:17Z</time></trkpt><trkpt lat="45.7290079817" lon="6.9576849695"><ele>1394.53</ele><time>2014-09-04T19:04:32Z</time></trkpt><trkpt lat="45.7290582731" lon="6.9577472471"><ele>1395.01</ele><time>2014-09-04T19:04:36Z</time></trkpt><trkpt lat="45.7291272562" lon="6.9579324033"><ele>1395.49</ele><time>2014-09-04T19:04:44Z</time></trkpt><trkpt lat="45.7291278429" lon="6.9579558726"><ele>1395.97</ele><time>2014-09-04T19:04:45Z</time></trkpt><trkpt lat="45.7291248254" lon="6.9579732232"><ele>1395.97</ele><time>2014-09-04T19:04:46Z</time></trkpt><trkpt lat="45.7291165274" lon="6.9579863828"><ele>1395.97</ele><time>2014-09-04T19:04:47Z</time></trkpt><trkpt lat="45.7291036192" lon="6.9579867180"><ele>1395.97</ele><time>2014-09-04T19:04:48Z</time></trkpt><trkpt lat="45.7290902082" lon="6.9579830300"><ele>1396.45</ele><time>2014-09-04T19:04:49Z</time></trkpt><trkpt lat="45.7290607877" lon="6.9579723012"><ele>1396.93</ele><time>2014-09-04T19:04:51Z</time></trkpt><trkpt lat="45.7290482987" lon="6.9579660986"><ele>1396.93</ele><time>2014-09-04T19:04:52Z</time></trkpt><trkpt lat="45.7290367316" lon="6.9579566270"><ele>1396.93</ele><time>2014-09-04T19:04:53Z</time></trkpt><trkpt lat="45.7290286012" lon="6.9579424616"><ele>1396.93</ele><time>2014-09-04T19:04:54Z</time></trkpt><trkpt lat="45.7290173694" lon="6.9579299726"><ele>1396.93</ele><time>2014-09-04T19:04:55Z</time></trkpt><trkpt lat="45.7290063053" lon="6.9579190761"><ele>1397.41</ele><time>2014-09-04T19:04:56Z</time></trkpt><trkpt lat="45.7289961632" lon="6.9579004683"><ele>1397.89</ele><time>2014-09-04T19:04:57Z</time></trkpt><trkpt lat="45.7289844286" lon="6.9578868896"><ele>1398.37</ele><time>2014-09-04T19:04:58Z</time></trkpt><trkpt lat="45.7289747056" lon="6.9578660186"><ele>1398.37</ele><time>2014-09-04T19:04:59Z</time></trkpt><trkpt lat="45.7287962548" lon="6.9575360231"><ele>1402.22</ele><time>2014-09-04T19:05:16Z</time></trkpt><trkpt lat="45.7286840212" lon="6.9571652077"><ele>1403.66</ele><time>2014-09-04T19:05:32Z</time></trkpt><trkpt lat="45.7285877131" lon="6.9567709230"><ele>1405.10</ele><time>2014-09-04T19:05:48Z</time></trkpt><trkpt lat="45.7285209931" lon="6.9564729463"><ele>1406.55</ele><time>2014-09-04T19:06:01Z</time></trkpt><trkpt lat="45.7284420356" lon="6.9561228342"><ele>1408.95</ele><time>2014-09-04T19:06:16Z</time></trkpt><trkpt lat="45.7283553667" lon="6.9557180721"><ele>1408.47</ele><time>2014-09-04T19:06:34Z</time></trkpt><trkpt lat="45.7282759063" lon="6.9553687144"><ele>1409.91</ele><time>2014-09-04T19:06:49Z</time></trkpt><trkpt lat="45.7281210087" lon="6.9550612662"><ele>1412.79</ele><time>2014-09-04T19:07:05Z</time></trkpt><trkpt lat="45.7279062644" lon="6.9547566678"><ele>1414.72</ele><time>2014-09-04T19:07:23Z</time></trkpt><trkpt lat="45.7277317531" lon="6.9545239024"><ele>1417.60</ele><time>2014-09-04T19:07:40Z</time></trkpt><trkpt lat="45.7277215272" lon="6.9544933923"><ele>1416.64</ele><time>2014-09-04T19:07:52Z</time></trkpt><trkpt lat="45.7277529594" lon="6.9544897042"><ele>1414.72</ele><time>2014-09-04T19:08:22Z</time></trkpt><trkpt lat="45.7277505286" lon="6.9544885308"><ele>1413.76</ele><time>2014-09-04T19:08:57Z</time></trkpt><trkpt lat="45.7276861556" lon="6.9546098169"><ele>1422.89</ele><time>2014-09-04T19:09:30Z</time></trkpt><trkpt lat="45.7276895922" lon="6.9545342121"><ele>1428.66</ele><time>2014-09-04T19:10:00Z</time></trkpt><trkpt lat="45.7276776060" lon="6.9545229804"><ele>1428.66</ele><time>2014-09-04T19:10:01Z</time></trkpt><trkpt lat="45.7276635244" lon="6.9545083120"><ele>1428.18</ele><time>2014-09-04T19:10:02Z</time></trkpt><trkpt lat="45.7276491914" lon="6.9544936437"><ele>1428.18</ele><time>2014-09-04T19:10:03Z</time></trkpt><trkpt lat="45.7276370376" lon="6.9544718508"><ele>1428.18</ele><time>2014-09-04T19:10:04Z</time></trkpt><trkpt lat="45.7276254706" lon="6.9544477109"><ele>1428.18</ele><time>2014-09-04T19:10:05Z</time></trkpt><trkpt lat="45.7276133168" lon="6.9544229843"><ele>1428.18</ele><time>2014-09-04T19:10:06Z</time></trkpt><trkpt lat="45.7276029233" lon="6.9543977547"><ele>1428.18</ele><time>2014-09-04T19:10:07Z</time></trkpt><trkpt lat="45.7275903504" lon="6.9543793146"><ele>1427.70</ele><time>2014-09-04T19:10:08Z</time></trkpt><trkpt lat="45.7275765203" lon="6.9543633889"><ele>1427.21</ele><time>2014-09-04T19:10:09Z</time></trkpt><trkpt lat="45.7275632769" lon="6.9543436915"><ele>1426.73</ele><time>2014-09-04T19:10:10Z</time></trkpt><trkpt lat="45.7273248117" lon="6.9540872891"><ele>1426.25</ele><time>2014-09-04T19:10:25Z</time></trkpt><trkpt lat="45.7270068023" lon="6.9537362549"><ele>1428.18</ele><time>2014-09-04T19:10:42Z</time></trkpt><trkpt lat="45.7267779764" lon="6.9533707201"><ele>1427.21</ele><time>2014-09-04T19:10:57Z</time></trkpt><trkpt lat="45.7265695184" lon="6.9530257210"><ele>1428.18</ele><time>2014-09-04T19:11:12Z</time></trkpt><trkpt lat="45.7263351604" lon="6.9527051132"><ele>1430.10</ele><time>2014-09-04T19:11:26Z</time></trkpt><trkpt lat="45.7261189073" lon="6.9524176978"><ele>1431.54</ele><time>2014-09-04T19:11:40Z</time></trkpt><trkpt lat="45.7258997206" lon="6.9521132670"><ele>1432.02</ele><time>2014-09-04T19:11:54Z</time></trkpt><trkpt lat="45.7256884966" lon="6.9518050645"><ele>1433.46</ele><time>2014-09-04T19:12:08Z</time></trkpt><trkpt lat="45.7254045177" lon="6.9513924234"><ele>1436.35</ele><time>2014-09-04T19:12:26Z</time></trkpt><trkpt lat="45.7251015957" lon="6.9510520343"><ele>1440.19</ele><time>2014-09-04T19:12:43Z</time></trkpt><trkpt lat="45.7248577662" lon="6.9507279899"><ele>1442.60</ele><time>2014-09-04T19:12:58Z</time></trkpt><trkpt lat="45.7247680798" lon="6.9506005850"><ele>1442.60</ele><time>2014-09-04T19:13:04Z</time></trkpt><trkpt lat="45.7247639727" lon="6.9505136646"><ele>1444.04</ele><time>2014-09-04T19:13:21Z</time></trkpt></trkseg><trkseg><trkpt lat="45.7208425831" lon="6.9463958871"><ele>1438.75</ele><time>2014-09-04T19:15:22Z</time></trkpt><trkpt lat="45.7202387508" lon="6.9461839925"><ele>1437.79</ele><time>2014-09-04T19:15:35Z</time></trkpt><trkpt lat="45.7200246770" lon="6.9475732092"><ele>1438.27</ele><time>2014-09-04T19:15:47Z</time></trkpt><trkpt lat="45.7195946854" lon="6.9474409427"><ele>1441.63</ele><time>2014-09-04T19:16:03Z</time></trkpt><trkpt lat="45.7192655280" lon="6.9473271165"><ele>1444.52</ele><time>2014-09-04T19:16:15Z</time></trkpt><trkpt lat="45.7188049424" lon="6.9471978676"><ele>1446.44</ele><time>2014-09-04T19:16:32Z</time></trkpt><trkpt lat="45.7185016852" lon="6.9472509250"><ele>1447.40</ele><time>2014-09-04T19:16:45Z</time></trkpt><trkpt lat="45.7184403297" lon="6.9472808484"><ele>1446.92</ele><time>2014-09-04T19:16:49Z</time></trkpt><trkpt lat="45.7184202969" lon="6.9472879730"><ele>1446.92</ele><time>2014-09-04T19:16:50Z</time></trkpt><trkpt lat="45.7184001803" lon="6.9472983666"><ele>1446.92</ele><time>2014-09-04T19:16:51Z</time></trkpt><trkpt lat="45.7183816563" lon="6.9473101851"><ele>1446.92</ele><time>2014-09-04T19:16:52Z</time></trkpt><trkpt lat="45.7183630485" lon="6.9473241828"><ele>1446.92</ele><time>2014-09-04T19:16:53Z</time></trkpt><trkpt lat="45.7180800755" lon="6.9475002866"><ele>1447.40</ele><time>2014-09-04T19:17:07Z</time></trkpt><trkpt lat="45.7179214060" lon="6.9476144481"><ele>1448.84</ele><time>2014-09-04T19:17:15Z</time></trkpt><trkpt lat="45.7179060671" lon="6.9476183876"><ele>1448.84</ele><time>2014-09-04T19:17:16Z</time></trkpt><trkpt lat="45.7177956775" lon="6.9477063138"><ele>1450.29</ele><time>2014-09-04T19:17:29Z</time></trkpt><trkpt lat="45.7176645007" lon="6.9478556793"><ele>1451.73</ele><time>2014-09-04T19:17:43Z</time></trkpt><trkpt lat="45.7173280511" lon="6.9482026063"><ele>1454.61</ele><time>2014-09-04T19:17:59Z</time></trkpt><trkpt lat="45.7169622649" lon="6.9485975616"><ele>1457.98</ele><time>2014-09-04T19:18:18Z</time></trkpt><trkpt lat="45.7169446629" lon="6.9486279041"><ele>1457.02</ele><time>2014-09-04T19:18:31Z</time></trkpt><trkpt lat="45.7169511169" lon="6.9486141577"><ele>1455.09</ele><time>2014-09-04T19:19:00Z</time></trkpt><trkpt lat="45.7169361133" lon="6.9486553129"><ele>1456.05</ele><time>2014-09-04T19:19:06Z</time></trkpt><trkpt lat="45.7169328444" lon="6.9486874156"><ele>1456.53</ele><time>2014-09-04T19:19:07Z</time></trkpt><trkpt lat="45.7169243786" lon="6.9488056842"><ele>1457.50</ele><time>2014-09-04T19:19:11Z</time></trkpt><trkpt lat="45.7168926951" lon="6.9488537125"><ele>1458.94</ele><time>2014-09-04T19:19:15Z</time></trkpt><trkpt lat="45.7168813795" lon="6.9488620944"><ele>1459.42</ele><time>2014-09-04T19:19:16Z</time></trkpt><trkpt lat="45.7168684714" lon="6.9488698896"><ele>1459.90</ele><time>2014-09-04T19:19:17Z</time></trkpt><trkpt lat="45.7168526296" lon="6.9488848094"><ele>1459.90</ele><time>2014-09-04T19:19:18Z</time></trkpt><trkpt lat="45.7168385480" lon="6.9488985557"><ele>1459.90</ele><time>2014-09-04T19:19:19Z</time></trkpt><trkpt lat="45.7168225385" lon="6.9489124697"><ele>1460.38</ele><time>2014-09-04T19:19:20Z</time></trkpt><trkpt lat="45.7168046013" lon="6.9489250425"><ele>1460.38</ele><time>2014-09-04T19:19:21Z</time></trkpt><trkpt lat="45.7167882565" lon="6.9489394594"><ele>1460.86</ele><time>2014-09-04T19:19:22Z</time></trkpt><trkpt lat="45.7167738397" lon="6.9489578158"><ele>1461.34</ele><time>2014-09-04T19:19:23Z</time></trkpt><trkpt lat="45.7167570759" lon="6.9489825424"><ele>1461.82</ele><time>2014-09-04T19:19:25Z</time></trkpt><trkpt lat="45.7166681439" lon="6.9491055049"><ele>1462.78</ele><time>2014-09-04T19:19:31Z</time></trkpt><trkpt lat="45.7166526373" lon="6.9491173234"><ele>1463.26</ele><time>2014-09-04T19:19:32Z</time></trkpt><trkpt lat="45.7164883520" lon="6.9493309781"><ele>1462.30</ele><time>2014-09-04T19:19:46Z</time></trkpt><trkpt lat="45.7164720912" lon="6.9493387733"><ele>1462.78</ele><time>2014-09-04T19:19:47Z</time></trkpt><trkpt lat="45.7164579257" lon="6.9493481610"><ele>1462.78</ele><time>2014-09-04T19:19:48Z</time></trkpt><trkpt lat="45.7164474484" lon="6.9493606500"><ele>1463.26</ele><time>2014-09-04T19:19:49Z</time></trkpt><trkpt lat="45.7164365519" lon="6.9493778329"><ele>1463.74</ele><time>2014-09-04T19:19:50Z</time></trkpt><trkpt lat="45.7164268289" lon="6.9493945129"><ele>1463.74</ele><time>2014-09-04T19:19:51Z</time></trkpt><trkpt lat="45.7164164353" lon="6.9494103547"><ele>1464.23</ele><time>2014-09-04T19:19:52Z</time></trkpt><trkpt lat="45.7163918763" lon="6.9495320600"><ele>1465.19</ele><time>2014-09-04T19:20:06Z</time></trkpt><trkpt lat="45.7163753640" lon="6.9495644141"><ele>1469.03</ele><time>2014-09-04T19:20:30Z</time></trkpt><trkpt lat="45.7163769566" lon="6.9495391008"><ele>1469.03</ele><time>2014-09-04T19:20:56Z</time></trkpt><trkpt lat="45.7163639646" lon="6.9496188965"><ele>1467.59</ele><time>2014-09-04T19:21:30Z</time></trkpt><trkpt lat="45.7164020184" lon="6.9495939184"><ele>1469.51</ele><time>2014-09-04T19:21:54Z</time></trkpt><trkpt lat="45.7163912058" lon="6.9495841954"><ele>1466.63</ele><time>2014-09-04T19:22:40Z</time></trkpt><trkpt lat="45.7164337020" lon="6.9495762326"><ele>1464.23</ele><time>2014-09-04T19:23:23Z</time></trkpt><trkpt lat="45.7164288405" lon="6.9496028032"><ele>1466.63</ele><time>2014-09-04T19:23:50Z</time></trkpt><trkpt lat="45.7164431736" lon="6.9495573733"><ele>1466.63</ele><time>2014-09-04T19:23:57Z</time></trkpt><trkpt lat="45.7164549921" lon="6.9495421182"><ele>1466.63</ele><time>2014-09-04T19:23:58Z</time></trkpt><trkpt lat="45.7164642122" lon="6.9495279528"><ele>1466.15</ele><time>2014-09-04T19:23:59Z</time></trkpt><trkpt lat="45.7164703310" lon="6.9495235104"><ele>1466.15</ele><time>2014-09-04T19:24:00Z</time></trkpt><trkpt lat="45.7164818980" lon="6.9495214988"><ele>1465.67</ele><time>2014-09-04T19:24:01Z</time></trkpt><trkpt lat="45.7164926268" lon="6.9495154638"><ele>1465.67</ele><time>2014-09-04T19:24:02Z</time></trkpt><trkpt lat="45.7164694089" lon="6.9494835287"><ele>1465.67</ele><time>2014-09-04T19:24:07Z</time></trkpt><trkpt lat="45.7164648827" lon="6.9494955987"><ele>1465.67</ele><time>2014-09-04T19:24:08Z</time></trkpt><trkpt lat="45.7164521422" lon="6.9494981132"><ele>1466.15</ele><time>2014-09-04T19:24:09Z</time></trkpt><trkpt lat="45.7164399046" lon="6.9494983647"><ele>1466.15</ele><time>2014-09-04T19:24:10Z</time></trkpt><trkpt lat="45.7164168544" lon="6.9495002925"><ele>1466.15</ele><time>2014-09-04T19:24:11Z</time></trkpt><trkpt lat="45.7164049521" lon="6.9495021366"><ele>1466.15</ele><time>2014-09-04T19:24:12Z</time></trkpt><trkpt lat="45.7163960673" lon="6.9495053217"><ele>1466.63</ele><time>2014-09-04T19:24:13Z</time></trkpt><trkpt lat="45.7163836621" lon="6.9495080039"><ele>1466.63</ele><time>2014-09-04T19:24:14Z</time></trkpt><trkpt lat="45.7163671497" lon="6.9495084230"><ele>1466.15</ele><time>2014-09-04T19:24:15Z</time></trkpt><trkpt lat="45.7163538225" lon="6.9495167211"><ele>1466.63</ele><time>2014-09-04T19:24:16Z</time></trkpt><trkpt lat="45.7163419202" lon="6.9495447166"><ele>1466.63</ele><time>2014-09-04T19:24:17Z</time></trkpt><trkpt lat="45.7163233124" lon="6.9495595526"><ele>1466.63</ele><time>2014-09-04T19:24:18Z</time></trkpt><trkpt lat="45.7163101528" lon="6.9495654199"><ele>1466.63</ele><time>2014-09-04T19:24:19Z</time></trkpt><trkpt lat="45.7162913773" lon="6.9495749753"><ele>1467.11</ele><time>2014-09-04T19:24:20Z</time></trkpt><trkpt lat="45.7162722666" lon="6.9495900627"><ele>1467.11</ele><time>2014-09-04T19:24:21Z</time></trkpt><trkpt lat="45.7162620407" lon="6.9495998695"><ele>1467.11</ele><time>2014-09-04T19:24:22Z</time></trkpt><trkpt lat="45.7162476238" lon="6.9496125262"><ele>1467.59</ele><time>2014-09-04T19:24:23Z</time></trkpt><trkpt lat="45.7162301894" lon="6.9496225845"><ele>1467.59</ele><time>2014-09-04T19:24:24Z</time></trkpt><trkpt lat="45.7162100729" lon="6.9496325590"><ele>1468.07</ele><time>2014-09-04T19:24:25Z</time></trkpt><trkpt lat="45.7161491364" lon="6.9496556930"><ele>1468.07</ele><time>2014-09-04T19:24:29Z</time></trkpt><trkpt lat="45.7161358930" lon="6.9496648293"><ele>1468.55</ele><time>2014-09-04T19:24:30Z</time></trkpt><trkpt lat="45.7161217276" lon="6.9496706128"><ele>1469.03</ele><time>2014-09-04T19:24:31Z</time></trkpt><trkpt lat="45.7160638925" lon="6.9496857002"><ele>1469.51</ele><time>2014-09-04T19:24:35Z</time></trkpt><trkpt lat="45.7160513196" lon="6.9496898912"><ele>1469.51</ele><time>2014-09-04T19:24:36Z</time></trkpt><trkpt lat="45.7160367351" lon="6.9497038051"><ele>1469.51</ele><time>2014-09-04T19:24:37Z</time></trkpt><trkpt lat="45.7160199713" lon="6.9497157913"><ele>1469.51</ele><time>2014-09-04T19:24:38Z</time></trkpt><trkpt lat="45.7160038780" lon="6.9497264363"><ele>1469.51</ele><time>2014-09-04T19:24:39Z</time></trkpt><trkpt lat="45.7159881201" lon="6.9497375004"><ele>1469.51</ele><time>2014-09-04T19:24:40Z</time></trkpt><trkpt lat="45.7159230765" lon="6.9497854449"><ele>1469.99</ele><time>2014-09-04T19:24:45Z</time></trkpt><trkpt lat="45.7159100845" lon="6.9497979339"><ele>1469.99</ele><time>2014-09-04T19:24:46Z</time></trkpt><trkpt lat="45.7158955000" lon="6.9498090819"><ele>1470.47</ele><time>2014-09-04T19:24:47Z</time></trkpt><trkpt lat="45.7156724576" lon="6.9499454554"><ele>1472.40</ele><time>2014-09-04T19:25:01Z</time></trkpt><trkpt lat="45.7154313102" lon="6.9500720222"><ele>1472.88</ele><time>2014-09-04T19:25:15Z</time></trkpt><trkpt lat="45.7151824515" lon="6.9501701742"><ele>1472.40</ele><time>2014-09-04T19:25:26Z</time></trkpt><trkpt lat="45.7149067707" lon="6.9502615370"><ele>1471.92</ele><time>2014-09-04T19:25:37Z</time></trkpt><trkpt lat="45.7145991549" lon="6.9503460266"><ele>1471.92</ele><time>2014-09-04T19:25:50Z</time></trkpt><trkpt lat="45.7143192831" lon="6.9503760338"><ele>1471.92</ele><time>2014-09-04T19:26:04Z</time></trkpt><trkpt lat="45.7142796367" lon="6.9503886066"><ele>1471.92</ele><time>2014-09-04T19:26:07Z</time></trkpt><trkpt lat="45.7142592687" lon="6.9503882714"><ele>1471.92</ele><time>2014-09-04T19:26:08Z</time></trkpt><trkpt lat="45.7138305344" lon="6.9504961465"><ele>1471.92</ele><time>2014-09-04T19:26:25Z</time></trkpt><trkpt lat="45.7134798355" lon="6.9507204462"><ele>1476.72</ele><time>2014-09-04T19:26:40Z</time></trkpt><trkpt lat="45.7132298872" lon="6.9509394653"><ele>1477.68</ele><time>2014-09-04T19:26:53Z</time></trkpt><trkpt lat="45.7131032366" lon="6.9512568880"><ele>1478.65</ele><time>2014-09-04T19:27:05Z</time></trkpt><trkpt lat="45.7130956929" lon="6.9512713049"><ele>1478.65</ele><time>2014-09-04T19:27:06Z</time></trkpt><trkpt lat="45.7129650190" lon="6.9517027214"><ele>1480.57</ele><time>2014-09-04T19:27:20Z</time></trkpt><trkpt lat="45.7128456607" lon="6.9520043023"><ele>1481.53</ele><time>2014-09-04T19:27:30Z</time></trkpt><trkpt lat="45.7128148992" lon="6.9520055596"><ele>1481.53</ele><time>2014-09-04T19:27:31Z</time></trkpt><trkpt lat="45.7127929386" lon="6.9519981835"><ele>1481.53</ele><time>2014-09-04T19:27:32Z</time></trkpt><trkpt lat="45.7127835508" lon="6.9519864488"><ele>1481.53</ele><time>2014-09-04T19:27:33Z</time></trkpt><trkpt lat="45.7127670385" lon="6.9519659970"><ele>1481.53</ele><time>2014-09-04T19:27:34Z</time></trkpt><trkpt lat="45.7126027532" lon="6.9516406115"><ele>1482.01</ele><time>2014-09-04T19:27:47Z</time></trkpt><trkpt lat="45.7124161720" lon="6.9512946904"><ele>1483.93</ele><time>2014-09-04T19:28:03Z</time></trkpt><trkpt lat="45.7123984024" lon="6.9512516912"><ele>1483.93</ele><time>2014-09-04T19:28:05Z</time></trkpt><trkpt lat="45.7123688981" lon="6.9512434769"><ele>1483.45</ele><time>2014-09-04T19:28:09Z</time></trkpt><trkpt lat="45.7123719994" lon="6.9512841292"><ele>1483.45</ele><time>2014-09-04T19:28:10Z</time></trkpt><trkpt lat="45.7123858295" lon="6.9513142202"><ele>1483.45</ele><time>2014-09-04T19:28:11Z</time></trkpt><trkpt lat="45.7124079578" lon="6.9513557944"><ele>1483.45</ele><time>2014-09-04T19:28:12Z</time></trkpt><trkpt lat="45.7124239672" lon="6.9513887353"><ele>1483.45</ele><time>2014-09-04T19:28:13Z</time></trkpt><trkpt lat="45.7127742469" lon="6.9520623889"><ele>1483.45</ele><time>2014-09-04T19:28:28Z</time></trkpt><trkpt lat="45.7128650229" lon="6.9520815834"><ele>1483.45</ele><time>2014-09-04T19:28:32Z</time></trkpt><trkpt lat="45.7128888275" lon="6.9520443678"><ele>1483.45</ele><time>2014-09-04T19:28:34Z</time></trkpt><trkpt lat="45.7129092794" lon="6.9519876223"><ele>1482.97</ele><time>2014-09-04T19:28:35Z</time></trkpt><trkpt lat="45.7129225228" lon="6.9519390073"><ele>1482.97</ele><time>2014-09-04T19:28:36Z</time></trkpt><trkpt lat="45.7129365206" lon="6.9518874586"><ele>1482.49</ele><time>2014-09-04T19:28:37Z</time></trkpt><trkpt lat="45.7131665200" lon="6.9511265494"><ele>1479.13</ele><time>2014-09-04T19:28:51Z</time></trkpt><trkpt lat="45.7132961042" lon="6.9508710690"><ele>1477.68</ele><time>2014-09-04T19:29:00Z</time></trkpt><trkpt lat="45.7133075874" lon="6.9508626033"><ele>1477.20</ele><time>2014-09-04T19:29:01Z</time></trkpt><trkpt lat="45.7133230940" lon="6.9508544728"><ele>1477.20</ele><time>2014-09-04T19:29:02Z</time></trkpt><trkpt lat="45.7133436296" lon="6.9508415647"><ele>1476.72</ele><time>2014-09-04T19:29:03Z</time></trkpt><trkpt lat="45.7133644167" lon="6.9508211967"><ele>1476.72</ele><time>2014-09-04T19:29:04Z</time></trkpt><trkpt lat="45.7133865450" lon="6.9507990684"><ele>1476.24</ele><time>2014-09-04T19:29:05Z</time></trkpt><trkpt lat="45.7134067453" lon="6.9507829752"><ele>1476.24</ele><time>2014-09-04T19:29:06Z</time></trkpt><trkpt lat="45.7134216651" lon="6.9507709052"><ele>1476.24</ele><time>2014-09-04T19:29:07Z</time></trkpt><trkpt lat="45.7136720326" lon="6.9506157562"><ele>1474.80</ele><time>2014-09-04T19:29:17Z</time></trkpt><trkpt lat="45.7140646409" lon="6.9504239783"><ele>1472.88</ele><time>2014-09-04T19:29:24Z</time></trkpt><trkpt lat="45.7141270023" lon="6.9504218828"><ele>1472.88</ele><time>2014-09-04T19:29:25Z</time></trkpt><trkpt lat="45.7141877711" lon="6.9504201226"><ele>1472.40</ele><time>2014-09-04T19:29:26Z</time></trkpt><trkpt lat="45.7151054218" lon="6.9502118323"><ele>1471.92</ele><time>2014-09-04T19:29:42Z</time></trkpt><trkpt lat="45.7151981257" lon="6.9501766283"><ele>1471.92</ele><time>2014-09-04T19:29:44Z</time></trkpt><trkpt lat="45.7152407058" lon="6.9501638040"><ele>1471.92</ele><time>2014-09-04T19:29:45Z</time></trkpt><trkpt lat="45.7157093380" lon="6.9499598723"><ele>1472.40</ele><time>2014-09-04T19:30:00Z</time></trkpt><trkpt lat="45.7160676643" lon="6.9497216586"><ele>1470.47</ele><time>2014-09-04T19:30:13Z</time></trkpt><trkpt lat="45.7163565885" lon="6.9495305512"><ele>1469.03</ele><time>2014-09-04T19:30:24Z</time></trkpt><trkpt lat="45.7165838219" lon="6.9492315687"><ele>1464.23</ele><time>2014-09-04T19:30:34Z</time></trkpt><trkpt lat="45.7168121450" lon="6.9489379507"><ele>1461.34</ele><time>2014-09-04T19:30:47Z</time></trkpt><trkpt lat="45.7168150786" lon="6.9489193428"><ele>1460.86</ele><time>2014-09-04T19:31:12Z</time></trkpt><trkpt lat="45.7169001549" lon="6.9487882499"><ele>1457.50</ele><time>2014-09-04T19:31:17Z</time></trkpt><trkpt lat="45.7169350237" lon="6.9487349410"><ele>1456.53</ele><time>2014-09-04T19:31:18Z</time></trkpt><trkpt lat="45.7169827167" lon="6.9486647006"><ele>1456.53</ele><time>2014-09-04T19:31:19Z</time></trkpt><trkpt lat="45.7170303259" lon="6.9485968910"><ele>1456.05</ele><time>2014-09-04T19:31:20Z</time></trkpt><trkpt lat="45.7170611713" lon="6.9485556521"><ele>1455.57</ele><time>2014-09-04T19:31:21Z</time></trkpt><trkpt lat="45.7171087805" lon="6.9484968949"><ele>1455.57</ele><time>2014-09-04T19:31:22Z</time></trkpt><trkpt lat="45.7176790014" lon="6.9478557631"><ele>1452.21</ele><time>2014-09-04T19:31:35Z</time></trkpt><trkpt lat="45.7177603897" lon="6.9477262627"><ele>1452.21</ele><time>2014-09-04T19:31:38Z</time></trkpt><trkpt lat="45.7177632395" lon="6.9476586208"><ele>1452.21</ele><time>2014-09-04T19:31:39Z</time></trkpt><trkpt lat="45.7177468110" lon="6.9476166274"><ele>1452.21</ele><time>2014-09-04T19:31:40Z</time></trkpt><trkpt lat="45.7177307177" lon="6.9475895539"><ele>1451.73</ele><time>2014-09-04T19:31:41Z</time></trkpt><trkpt lat="45.7177019678" lon="6.9475509133"><ele>1451.73</ele><time>2014-09-04T19:31:42Z</time></trkpt><trkpt lat="45.7176821027" lon="6.9475382566"><ele>1451.73</ele><time>2014-09-04T19:31:43Z</time></trkpt><trkpt lat="45.7176634111" lon="6.9475334790"><ele>1451.73</ele><time>2014-09-04T19:31:44Z</time></trkpt><trkpt lat="45.7176335715" lon="6.9475398492"><ele>1451.73</ele><time>2014-09-04T19:31:45Z</time></trkpt><trkpt lat="45.7176017202" lon="6.9475616422"><ele>1451.73</ele><time>2014-09-04T19:31:46Z</time></trkpt><trkpt lat="45.7175697014" lon="6.9475825131"><ele>1451.73</ele><time>2014-09-04T19:31:47Z</time></trkpt><trkpt lat="45.7171695493" lon="6.9478928950"><ele>1451.73</ele><time>2014-09-04T19:32:01Z</time></trkpt><trkpt lat="45.7166468538" lon="6.9482117426"><ele>1452.69</ele><time>2014-09-04T19:32:17Z</time></trkpt><trkpt lat="45.7162772957" lon="6.9483087212"><ele>1455.09</ele><time>2014-09-04T19:32:28Z</time></trkpt><trkpt lat="45.7158895489" lon="6.9483113196"><ele>1456.05</ele><time>2014-09-04T19:32:41Z</time></trkpt><trkpt lat="45.7153637521" lon="6.9484481961"><ele>1456.05</ele><time>2014-09-04T19:32:57Z</time></trkpt><trkpt lat="45.7148378715" lon="6.9486305024"><ele>1456.05</ele><time>2014-09-04T19:33:13Z</time></trkpt><trkpt lat="45.7143488713" lon="6.9488837197"><ele>1457.02</ele><time>2014-09-04T19:33:28Z</time></trkpt><trkpt lat="45.7138833404" lon="6.9490318280"><ele>1457.98</ele><time>2014-09-04T19:33:42Z</time></trkpt><trkpt lat="45.7134064939" lon="6.9491429720"><ele>1458.94</ele><time>2014-09-04T19:33:57Z</time></trkpt><trkpt lat="45.7129188348" lon="6.9492764957"><ele>1460.38</ele><time>2014-09-04T19:34:13Z</time></trkpt><trkpt lat="45.7124368753" lon="6.9493994582"><ele>1461.82</ele><time>2014-09-04T19:34:30Z</time></trkpt><trkpt lat="45.7119228970" lon="6.9494894799"><ele>1461.82</ele><time>2014-09-04T19:34:47Z</time></trkpt><trkpt lat="45.7114252634" lon="6.9494057447"><ele>1463.26</ele><time>2014-09-04T19:35:03Z</time></trkpt><trkpt lat="45.7110921666" lon="6.9493143819"><ele>1465.67</ele><time>2014-09-04T19:35:14Z</time></trkpt><trkpt lat="45.7106019091" lon="6.9492535293"><ele>1468.55</ele><time>2014-09-04T19:35:30Z</time></trkpt><trkpt lat="45.7102061994" lon="6.9492009748"><ele>1469.99</ele><time>2014-09-04T19:35:46Z</time></trkpt><trkpt lat="45.7098998409" lon="6.9494217541"><ele>1469.51</ele><time>2014-09-04T19:35:59Z</time></trkpt><trkpt lat="45.7095439453" lon="6.9498854410"><ele>1469.99</ele><time>2014-09-04T19:36:13Z</time></trkpt><trkpt lat="45.7091525104" lon="6.9504640438"><ele>1471.92</ele><time>2014-09-04T19:36:29Z</time></trkpt><trkpt lat="45.7088308129" lon="6.9509505294"><ele>1472.88</ele><time>2014-09-04T19:36:45Z</time></trkpt><trkpt lat="45.7088065892" lon="6.9510464184"><ele>1473.84</ele><time>2014-09-04T19:36:49Z</time></trkpt><trkpt lat="45.7087904122" lon="6.9510480110"><ele>1473.84</ele><time>2014-09-04T19:36:50Z</time></trkpt><trkpt lat="45.7087780070" lon="6.9510505255"><ele>1473.84</ele><time>2014-09-04T19:36:51Z</time></trkpt><trkpt lat="45.7087582257" lon="6.9510607515"><ele>1473.84</ele><time>2014-09-04T19:36:52Z</time></trkpt><trkpt lat="45.7087355945" lon="6.9510756712"><ele>1473.84</ele><time>2014-09-04T19:36:53Z</time></trkpt><trkpt lat="45.7087117899" lon="6.9510958716"><ele>1473.36</ele><time>2014-09-04T19:36:54Z</time></trkpt><trkpt lat="45.7083830517" lon="6.9513692055"><ele>1474.32</ele><time>2014-09-04T19:37:07Z</time></trkpt><trkpt lat="45.7080714963" lon="6.9516233448"><ele>1475.76</ele><time>2014-09-04T19:37:20Z</time></trkpt><trkpt lat="45.7077382319" lon="6.9519581180"><ele>1479.61</ele><time>2014-09-04T19:37:32Z</time></trkpt><trkpt lat="45.7074846793" lon="6.9524689112"><ele>1483.93</ele><time>2014-09-04T19:37:47Z</time></trkpt><trkpt lat="45.7073425222" lon="6.9528676383"><ele>1483.93</ele><time>2014-09-04T19:38:01Z</time></trkpt><trkpt lat="45.7073164545" lon="6.9529763516"><ele>1482.97</ele><time>2014-09-04T19:38:11Z</time></trkpt><trkpt lat="45.7073084079" lon="6.9529895112"><ele>1482.97</ele><time>2014-09-04T19:38:12Z</time></trkpt><trkpt lat="45.7073021214" lon="6.9530062750"><ele>1482.97</ele><time>2014-09-04T19:38:13Z</time></trkpt><trkpt lat="45.7072955836" lon="6.9530234579"><ele>1482.49</ele><time>2014-09-04T19:38:14Z</time></trkpt><trkpt lat="45.7072588708" lon="6.9531282317"><ele>1482.49</ele><time>2014-09-04T19:38:28Z</time></trkpt><trkpt lat="45.7072610501" lon="6.9531635195"><ele>1482.01</ele><time>2014-09-04T19:38:44Z</time></trkpt><trkpt lat="45.7072598767" lon="6.9531698897"><ele>1481.53</ele><time>2014-09-04T19:39:00Z</time></trkpt><trkpt lat="45.7071914803" lon="6.9532866497"><ele>1481.05</ele><time>2014-09-04T19:39:18Z</time></trkpt><trkpt lat="45.7071552705" lon="6.9532874040"><ele>1480.09</ele><time>2014-09-04T19:39:35Z</time></trkpt><trkpt lat="45.7071440388" lon="6.9532852247"><ele>1480.09</ele><time>2014-09-04T19:39:54Z</time></trkpt><trkpt lat="45.7071566954" lon="6.9532879908"><ele>1479.13</ele><time>2014-09-04T19:40:05Z</time></trkpt><trkpt lat="45.7071276102" lon="6.9533236977"><ele>1478.16</ele><time>2014-09-04T19:40:21Z</time></trkpt><trkpt lat="45.7071201503" lon="6.9534117077"><ele>1478.16</ele><time>2014-09-04T19:40:33Z</time></trkpt><trkpt lat="45.7071295381" lon="6.9534365181"><ele>1478.16</ele><time>2014-09-04T19:40:38Z</time></trkpt><trkpt lat="45.7071344834" lon="6.9534514379"><ele>1478.16</ele><time>2014-09-04T19:40:39Z</time></trkpt><trkpt lat="45.7071389258" lon="6.9534666929"><ele>1478.16</ele><time>2014-09-04T19:40:40Z</time></trkpt><trkpt lat="45.7071819250" lon="6.9535229355"><ele>1479.61</ele><time>2014-09-04T19:40:51Z</time></trkpt><trkpt lat="45.7071897201" lon="6.9535587262"><ele>1479.13</ele><time>2014-09-04T19:41:03Z</time></trkpt><trkpt lat="45.7072038017" lon="6.9535592292"><ele>1480.57</ele><time>2014-09-04T19:41:18Z</time></trkpt></trkseg></trk></gpx>